[[{"header":{"parameterUnit":"m.s-1","parameterCategory":1,"la1":30.6,"la2":29.2853,"lo1":-89.7004,"lo2":-87.6739,"dy":0.0162,"dx":0.0183,"nx":112,"ny":82,"refTime":"2023-04-01T06:00:00:Z","depth":0,"parameterNumber":2,"parameterNumberName":"U-component_of_WINDS"},"data":[0.0,0.0,0.0,0.0,0.0,0.0,0.0,0.0,0.0,0.0,0.0,0.0,0.0,0.0,0.0,0.0,0.0,0.0,0.0,0.0,0.0,0.0,0.0,0.0,0.0,0.0,0.0,0.0,0.0,0.0,0.0,0.0,0.0,0.0,0.0,0.0,0.0,0.0,0.0,0.0,0.0,0.0,0.0,0.0,0.0,0.0,0.0,0.0,0.0,0.0,0.0,0.0,0.0,0.0,0.0,0.0,0.0,0.0,0.0,0.0,0.0,0.0,0.0,0.0,0.0,0.0,0.0,0.0,0.0,0.0,0.0,0.0,0.0,0.0,0.0,0.0,0.0,0.0,0.0,0.0,0.0,0.0,0.0,0.0,0.0,0.0,0.0,0.0,0.0,0.0,-6.4313,-6.4158,-6.4138,-6.4138,-6.4138,-6.3745,-6.3702,-6.4236,0.0,0.0,0.0,0.0,0.0,0.0,0.0,0.0,0.0,0.0,0.0,0.0,0.0,0.0,0.0,0.0,0.0,0.0,0.0,0.0,0.0,0.0,0.0,0.0,0.0,0.0,0.0,0.0,0.0,0.0,0.0,0.0,0.0,0.0,0.0,0.0,0.0,0.0,0.0,0.0,0.0,0.0,0.0,0.0,0.0,0.0,0.0,0.0,0.0,0.0,0.0,0.0,0.0,0.0,0.0,0.0,0.0,0.0,0.0,0.0,0.0,0.0,0.0,0.0,0.0,0.0,0.0,0.0,0.0,0.0,0.0,0.0,0.0,0.0,0.0,0.0,0.0,0.0,0.0,0.0,0.0,0.0,0.0,0.0,0.0,0.0,0.0,0.0,0.0,0.0,0.0,0.0,0.0,0.0,0.0,0.0,0.0,0.0,0.0,0.0,0.0,0.0,0.0,0.0,-6.4039,-6.3144,-6.3062,-6.3062,-6.3062,-6.2965,-6.3144,-6.368,0.0,0.0,0.0,0.0,0.0,0.0,0.0,0.0,0.0,0.0,0.0,0.0,0.0,0.0,0.0,0.0,0.0,0.0,0.0,0.0,0.0,0.0,0.0,0.0,0.0,0.0,0.0,0.0,0.0,0.0,0.0,0.0,0.0,0.0,0.0,0.0,0.0,0.0,0.0,0.0,0.0,0.0,0.0,0.0,0.0,0.0,0.0,0.0,0.0,0.0,0.0,0.0,0.0,0.0,0.0,0.0,0.0,0.0,0.0,0.0,0.0,0.0,0.0,0.0,0.0,0.0,0.0,0.0,0.0,0.0,0.0,0.0,0.0,0.0,0.0,0.0,0.0,0.0,0.0,0.0,0.0,0.0,0.0,0.0,0.0,0.0,0.0,0.0,0.0,0.0,0.0,0.0,0.0,0.0,0.0,0.0,0.0,0.0,0.0,0.0,0.0,0.0,0.0,-6.368,-6.334,-6.2855,-6.278,-6.278,-6.278,-6.278,-6.2892,-6.3144,-6.3168,0.0,0.0,0.0,0.0,0.0,0.0,0.0,0.0,0.0,0.0,0.0,0.0,0.0,0.0,0.0,0.0,0.0,0.0,0.0,0.0,0.0,0.0,0.0,0.0,0.0,0.0,0.0,0.0,0.0,0.0,0.0,0.0,0.0,0.0,0.0,0.0,0.0,0.0,0.0,0.0,0.0,0.0,0.0,0.0,0.0,0.0,0.0,0.0,0.0,0.0,0.0,0.0,0.0,0.0,0.0,0.0,0.0,0.0,0.0,0.0,0.0,0.0,0.0,0.0,0.0,0.0,0.0,0.0,0.0,0.0,0.0,0.0,0.0,0.0,0.0,0.0,0.0,0.0,0.0,0.0,0.0,0.0,0.0,0.0,0.0,0.0,0.0,0.0,0.0,0.0,0.0,0.0,0.0,0.0,0.0,0.0,0.0,0.0,0.0,0.0,0.0,0.0,-6.288,-6.278,-6.278,-6.278,-6.278,-6.278,-6.278,-6.278,-6.278,-6.278,0.0,0.0,0.0,0.0,0.0,0.0,0.0,0.0,0.0,0.0,0.0,0.0,0.0,0.0,0.0,0.0,0.0,0.0,0.0,0.0,0.0,0.0,0.0,0.0,0.0,0.0,0.0,0.0,0.0,0.0,0.0,0.0,0.0,0.0,0.0,0.0,0.0,0.0,0.0,0.0,0.0,0.0,0.0,0.0,0.0,0.0,0.0,0.0,0.0,0.0,0.0,0.0,0.0,0.0,0.0,0.0,0.0,0.0,0.0,0.0,0.0,0.0,0.0,0.0,0.0,0.0,0.0,0.0,0.0,0.0,0.0,0.0,0.0,0.0,0.0,0.0,0.0,0.0,0.0,0.0,0.0,0.0,0.0,0.0,0.0,0.0,0.0,0.0,0.0,0.0,0.0,0.0,0.0,0.0,0.0,0.0,0.0,0.0,0.0,0.0,0.0,0.0,-6.3097,-6.278,-6.278,-6.278,-6.278,-6.278,-6.278,-6.278,-6.278,-6.278,0.0,0.0,0.0,0.0,0.0,0.0,0.0,0.0,0.0,0.0,0.0,0.0,0.0,0.0,0.0,0.0,0.0,0.0,0.0,0.0,0.0,0.0,0.0,0.0,0.0,0.0,0.0,0.0,0.0,0.0,0.0,0.0,0.0,0.0,0.0,0.0,0.0,0.0,0.0,0.0,0.0,0.0,0.0,0.0,0.0,0.0,0.0,0.0,0.0,0.0,0.0,0.0,0.0,0.0,0.0,0.0,0.0,0.0,0.0,0.0,0.0,0.0,0.0,0.0,0.0,0.0,0.0,0.0,0.0,0.0,0.0,0.0,0.0,0.0,0.0,0.0,0.0,0.0,0.0,0.0,0.0,0.0,0.0,0.0,0.0,0.0,0.0,0.0,0.0,0.0,0.0,0.0,0.0,0.0,0.0,0.0,0.0,0.0,0.0,0.0,0.0,0.0,-6.2917,-6.278,-6.278,-6.278,-6.278,-6.278,-6.278,-6.278,-6.278,0.0,0.0,0.0,0.0,0.0,0.0,0.0,0.0,0.0,0.0,0.0,0.0,0.0,0.0,0.0,0.0,0.0,0.0,0.0,0.0,0.0,0.0,0.0,0.0,0.0,0.0,0.0,0.0,0.0,0.0,0.0,0.0,0.0,0.0,0.0,0.0,0.0,0.0,0.0,0.0,0.0,0.0,0.0,0.0,0.0,0.0,0.0,0.0,0.0,0.0,0.0,0.0,0.0,0.0,0.0,0.0,0.0,0.0,0.0,0.0,0.0,0.0,0.0,0.0,0.0,0.0,0.0,0.0,0.0,0.0,0.0,0.0,0.0,0.0,0.0,0.0,0.0,0.0,0.0,0.0,0.0,0.0,0.0,0.0,0.0,0.0,0.0,0.0,0.0,0.0,0.0,0.0,0.0,0.0,0.0,0.0,0.0,0.0,0.0,0.0,0.0,0.0,-6.2855,-6.278,-6.278,-6.278,-6.278,-6.278,-6.278,-6.278,-6.278,-6.278,0.0,0.0,0.0,0.0,0.0,0.0,0.0,0.0,0.0,0.0,0.0,0.0,0.0,0.0,0.0,0.0,0.0,0.0,0.0,0.0,0.0,0.0,0.0,0.0,0.0,0.0,0.0,0.0,0.0,0.0,0.0,0.0,0.0,0.0,0.0,0.0,0.0,0.0,0.0,0.0,0.0,0.0,0.0,0.0,0.0,0.0,0.0,0.0,0.0,0.0,0.0,0.0,0.0,0.0,0.0,0.0,0.0,0.0,0.0,0.0,0.0,0.0,0.0,0.0,0.0,0.0,0.0,0.0,0.0,0.0,0.0,0.0,0.0,0.0,0.0,0.0,0.0,0.0,0.0,0.0,0.0,0.0,0.0,0.0,0.0,0.0,0.0,0.0,0.0,0.0,0.0,0.0,0.0,0.0,0.0,0.0,0.0,0.0,0.0,0.0,0.0,0.0,-6.278,-6.278,-6.278,-6.278,-6.278,-6.278,-6.278,-6.278,-6.278,0.0,0.0,0.0,0.0,0.0,0.0,0.0,0.0,0.0,0.0,0.0,0.0,0.0,0.0,0.0,0.0,0.0,0.0,0.0,0.0,0.0,0.0,0.0,0.0,0.0,0.0,0.0,0.0,0.0,0.0,0.0,0.0,0.0,0.0,0.0,0.0,0.0,0.0,0.0,0.0,0.0,0.0,0.0,0.0,0.0,0.0,0.0,0.0,0.0,0.0,0.0,0.0,0.0,0.0,0.0,0.0,0.0,0.0,0.0,0.0,0.0,0.0,0.0,0.0,0.0,0.0,0.0,0.0,0.0,0.0,0.0,0.0,0.0,0.0,0.0,0.0,0.0,0.0,0.0,0.0,0.0,0.0,0.0,0.0,0.0,0.0,0.0,0.0,0.0,0.0,0.0,0.0,0.0,0.0,0.0,0.0,0.0,0.0,0.0,0.0,0.0,0.0,0.0,-6.278,-6.278,-6.278,-6.278,-6.278,-6.278,-6.278,-6.278,-6.278,-6.278,0.0,0.0,0.0,0.0,0.0,0.0,0.0,0.0,0.0,0.0,0.0,0.0,0.0,0.0,0.0,0.0,0.0,0.0,0.0,0.0,0.0,0.0,0.0,0.0,0.0,0.0,0.0,0.0,0.0,0.0,0.0,0.0,0.0,0.0,0.0,0.0,0.0,0.0,0.0,0.0,0.0,0.0,0.0,0.0,0.0,0.0,0.0,0.0,0.0,0.0,0.0,0.0,0.0,0.0,0.0,0.0,0.0,0.0,0.0,0.0,0.0,0.0,0.0,0.0,0.0,0.0,0.0,0.0,0.0,0.0,0.0,0.0,0.0,0.0,0.0,0.0,0.0,0.0,0.0,0.0,0.0,0.0,0.0,0.0,0.0,0.0,0.0,0.0,0.0,0.0,0.0,0.0,0.0,0.0,0.0,0.0,0.0,0.0,0.0,0.0,0.0,0.0,-6.278,-6.278,-6.278,-6.278,-6.278,-6.278,-6.278,-6.278,-6.278,-6.278,0.0,0.0,0.0,0.0,0.0,0.0,0.0,0.0,0.0,0.0,0.0,0.0,0.0,0.0,0.0,0.0,0.0,0.0,0.0,0.0,0.0,0.0,0.0,0.0,0.0,0.0,0.0,0.0,0.0,0.0,0.0,0.0,0.0,0.0,0.0,0.0,0.0,0.0,0.0,0.0,0.0,0.0,0.0,0.0,0.0,0.0,0.0,0.0,0.0,0.0,0.0,0.0,0.0,0.0,0.0,0.0,0.0,0.0,0.0,0.0,0.0,0.0,0.0,0.0,0.0,0.0,0.0,0.0,0.0,0.0,0.0,0.0,0.0,0.0,0.0,0.0,0.0,0.0,0.0,0.0,0.0,0.0,0.0,0.0,0.0,0.0,0.0,0.0,0.0,0.0,0.0,0.0,0.0,0.0,0.0,0.0,0.0,0.0,0.0,0.0,0.0,0.0,-6.278,-6.2732,-6.2695,-6.2695,-6.2622,-6.256,-6.256,-6.2658,-6.2695,-6.2695,0.0,0.0,0.0,0.0,0.0,0.0,0.0,0.0,0.0,0.0,0.0,0.0,0.0,0.0,0.0,0.0,0.0,0.0,0.0,0.0,0.0,0.0,0.0,0.0,0.0,0.0,0.0,0.0,0.0,0.0,0.0,0.0,0.0,0.0,0.0,0.0,0.0,0.0,0.0,0.0,0.0,0.0,0.0,0.0,0.0,0.0,0.0,0.0,0.0,0.0,0.0,0.0,0.0,0.0,0.0,0.0,0.0,0.0,0.0,0.0,-6.5691,-6.6632,0.0,0.0,0.0,0.0,0.0,0.0,0.0,0.0,0.0,0.0,0.0,0.0,0.0,0.0,0.0,0.0,0.0,0.0,0.0,0.0,0.0,0.0,0.0,0.0,0.0,0.0,0.0,0.0,0.0,0.0,0.0,0.0,0.0,0.0,0.0,0.0,0.0,0.0,0.0,0.0,-6.278,-6.2254,-6.1851,-6.1851,-6.13,-6.0933,-6.0933,-6.1484,-6.1851,-6.1851,-6.2438,0.0,0.0,0.0,0.0,0.0,0.0,0.0,0.0,0.0,0.0,0.0,0.0,0.0,0.0,0.0,0.0,0.0,0.0,0.0,0.0,0.0,0.0,0.0,0.0,0.0,0.0,0.0,0.0,0.0,0.0,0.0,0.0,0.0,0.0,0.0,0.0,0.0,0.0,0.0,0.0,0.0,0.0,0.0,0.0,0.0,0.0,0.0,0.0,0.0,0.0,0.0,0.0,0.0,0.0,0.0,0.0,0.0,0.0,0.0,-6.4489,-6.5348,0.0,0.0,0.0,0.0,0.0,0.0,0.0,0.0,0.0,0.0,0.0,0.0,0.0,0.0,0.0,0.0,0.0,0.0,0.0,0.0,0.0,0.0,0.0,0.0,0.0,0.0,0.0,0.0,0.0,0.0,0.0,0.0,0.0,0.0,0.0,0.0,0.0,0.0,0.0,0.0,-6.2291,-6.1851,-6.1447,-6.1043,-6.0639,-6.0419,-6.0419,-6.0786,-6.119,-6.1557,-6.1998,0.0,0.0,0.0,0.0,0.0,0.0,0.0,0.0,0.0,0.0,0.0,0.0,0.0,0.0,0.0,0.0,0.0,0.0,0.0,0.0,0.0,0.0,0.0,0.0,0.0,0.0,0.0,0.0,0.0,0.0,0.0,0.0,0.0,0.0,0.0,0.0,0.0,0.0,0.0,0.0,0.0,0.0,0.0,0.0,0.0,0.0,0.0,0.0,0.0,0.0,0.0,0.0,0.0,-6.4119,-6.3913,-6.3453,-6.3453,-6.3215,-6.2855,-6.3745,-6.4266,-6.4547,-6.4949,0.0,0.0,0.0,0.0,0.0,0.0,0.0,0.0,0.0,0.0,0.0,0.0,0.0,0.0,0.0,0.0,0.0,0.0,0.0,0.0,0.0,0.0,-6.3686,-6.2989,-6.278,-6.278,-6.278,0.0,0.0,0.0,0.0,0.0,0.0,0.0,0.0,0.0,0.0,0.0,-6.1484,-6.1263,-6.0933,-6.0272,-6.0089,-5.9979,-5.9979,-6.0126,-6.0456,-6.1153,-6.13,-6.1741,0.0,0.0,0.0,0.0,0.0,0.0,0.0,0.0,0.0,0.0,0.0,0.0,0.0,0.0,0.0,0.0,0.0,0.0,0.0,0.0,0.0,0.0,0.0,0.0,0.0,0.0,0.0,0.0,0.0,0.0,0.0,0.0,-6.4554,-6.4481,0.0,0.0,0.0,0.0,0.0,0.0,0.0,0.0,0.0,0.0,0.0,0.0,0.0,-6.4233,-6.3851,-6.3776,-6.3476,-6.3014,-6.3014,-6.2965,-6.2929,-6.2929,-6.288,-6.2805,-6.2941,0.0,-6.3076,-6.3137,0.0,0.0,0.0,0.0,0.0,0.0,0.0,0.0,0.0,0.0,0.0,0.0,0.0,0.0,0.0,0.0,0.0,0.0,0.0,0.0,0.0,0.0,-6.2952,-6.2817,-6.278,-6.278,-6.278,-6.278,-6.278,-6.278,-6.278,-6.278,0.0,0.0,0.0,0.0,0.0,0.0,-6.0676,-5.9942,-5.9478,-5.9368,-5.8731,-5.8327,-5.8327,-5.8988,-5.9404,-5.9515,-6.0162,-6.0933,-6.1704,-6.1741,0.0,0.0,0.0,0.0,0.0,0.0,0.0,0.0,0.0,0.0,0.0,0.0,0.0,0.0,0.0,0.0,0.0,0.0,0.0,0.0,0.0,0.0,0.0,0.0,0.0,0.0,0.0,0.0,0.0,-6.4019,-6.3615,-6.3934,-6.3954,-6.3954,0.0,0.0,0.0,0.0,0.0,0.0,0.0,0.0,0.0,-6.3483,-6.3483,-6.3385,-6.3144,-6.3144,-6.3038,-6.278,-6.278,-6.278,-6.278,-6.278,-6.278,-6.278,-6.278,-6.278,-6.278,-6.278,-6.3025,-6.3381,0.0,0.0,0.0,0.0,-6.5114,-6.5264,-6.4787,-6.464,-6.464,-6.464,0.0,0.0,0.0,0.0,0.0,0.0,0.0,-6.3282,-6.2915,-6.278,-6.278,-6.278,-6.278,-6.278,-6.278,-6.278,-6.278,-6.278,-6.278,-6.278,-6.278,-6.2438,0.0,0.0,0.0,-6.0639,-5.9832,-5.9404,-5.9038,-5.8584,-5.8217,-5.7997,-5.7997,-5.8327,-5.8731,-5.9148,-5.9515,-6.0089,-6.0896,-6.1374,-6.1777,0.0,0.0,0.0,0.0,0.0,0.0,0.0,0.0,0.0,0.0,0.0,0.0,0.0,0.0,0.0,0.0,0.0,0.0,0.0,0.0,0.0,0.0,0.0,0.0,0.0,0.0,0.0,0.0,-6.3294,-6.2941,-6.334,-6.3385,-6.3385,0.0,0.0,0.0,0.0,0.0,0.0,-6.3408,-6.3385,-6.3215,-6.2805,-6.278,-6.278,-6.278,-6.278,-6.278,-6.278,-6.278,-6.278,-6.278,-6.278,-6.278,-6.278,-6.278,-6.278,-6.278,-6.278,-6.278,-6.278,-6.278,-6.3209,-6.3759,-6.3759,-6.4163,-6.4567,-6.398,-6.3759,-6.3759,-6.3759,-6.3759,-6.387,-6.4494,0.0,0.0,0.0,0.0,-6.278,-6.278,-6.278,-6.278,-6.278,-6.278,-6.278,-6.278,-6.278,-6.278,-6.278,-6.278,-6.2732,-6.2548,-6.1998,0.0,-6.1043,-6.0493,-5.9795,-5.9024,-5.8914,-5.8657,-5.807,-5.7997,-5.7997,-5.7997,-5.7821,-5.8053,-5.8854,-5.8712,-5.9054,-6.0028,-6.0676,-6.119,-6.1594,0.0,0.0,0.0,0.0,0.0,0.0,0.0,0.0,0.0,0.0,0.0,0.0,0.0,0.0,0.0,0.0,0.0,0.0,0.0,0.0,0.0,0.0,0.0,0.0,0.0,0.0,0.0,0.0,0.0,-6.283,-6.283,0.0,0.0,0.0,0.0,-6.2904,-6.2904,-6.288,-6.2855,-6.283,-6.283,-6.278,-6.278,-6.278,-6.278,-6.278,-6.278,-6.278,-6.278,-6.278,-6.278,-6.278,-6.278,-6.278,-6.278,-6.278,-6.278,-6.278,-6.278,-6.278,-6.278,-6.2817,-6.2879,-6.2879,-6.289,-6.289,-6.2853,-6.2879,-6.2879,-6.2879,-6.2879,-6.2879,-6.289,-6.2915,0.0,0.0,-6.278,-6.278,-6.278,-6.278,-6.278,-6.278,-6.278,-6.278,-6.278,-6.278,-6.278,-6.278,-6.278,-6.2585,-6.1777,0.0,-6.108,-5.9551,-5.9294,-5.8964,-5.8143,-5.807,-5.8033,-5.7997,-5.7997,-5.7997,-5.7997,-5.7351,-5.7277,-5.801,-5.7388,-5.7676,-5.9197,-5.9294,-6.0052,-6.1557,-6.163,0.0,0.0,0.0,0.0,0.0,0.0,0.0,0.0,0.0,0.0,0.0,0.0,0.0,0.0,0.0,0.0,0.0,0.0,0.0,0.0,0.0,0.0,0.0,0.0,0.0,0.0,0.0,0.0,-6.278,-6.278,0.0,-6.278,-6.278,-6.278,-6.278,-6.278,-6.278,-6.278,-6.278,-6.278,-6.278,-6.278,-6.278,-6.278,-6.278,-6.278,-6.278,-6.278,-6.278,-6.278,-6.278,-6.278,-6.278,-6.278,-6.278,-6.278,-6.278,-6.278,-6.278,-6.278,-6.278,-6.278,-6.278,-6.278,-6.278,-6.278,-6.278,-6.278,-6.278,-6.278,-6.278,-6.278,-6.278,-6.278,-6.278,-6.278,-6.278,-6.278,-6.278,-6.278,-6.278,-6.278,-6.278,-6.278,-6.278,-6.2658,-6.2144,-6.2034,-6.1924,-6.163,-6.075,-5.9869,-5.9294,-5.8767,-5.8327,-5.8033,-5.7997,-5.7997,-5.7997,-5.7583,-5.7302,-5.7302,-5.704,-5.6773,-5.6554,-5.6747,-5.6917,-5.6948,-5.7451,-5.7981,-5.8583,-5.9122,-5.9665,0.0,0.0,0.0,0.0,0.0,0.0,0.0,0.0,0.0,0.0,0.0,0.0,0.0,0.0,0.0,0.0,0.0,0.0,0.0,0.0,0.0,0.0,0.0,0.0,0.0,-6.278,-6.278,-6.278,-6.278,-6.278,-6.278,-6.278,-6.278,-6.278,-6.278,-6.278,-6.278,-6.278,-6.278,-6.278,-6.278,-6.278,-6.278,-6.278,-6.278,-6.278,-6.278,-6.278,-6.278,-6.278,-6.278,-6.278,-6.278,-6.278,-6.278,-6.278,-6.278,-6.278,-6.278,-6.278,-6.278,-6.278,-6.278,-6.278,-6.278,-6.278,-6.278,-6.278,-6.278,-6.278,-6.278,-6.278,-6.278,-6.278,-6.278,-6.278,-6.278,-6.278,-6.278,-6.278,-6.278,-6.278,-6.278,-6.2585,-6.2254,-6.1704,-6.1594,-6.141,-6.0896,-5.9905,-5.9111,-5.8841,-5.8327,-5.7997,-5.7997,-5.7997,-5.7927,-5.7679,-5.7425,-5.7141,-5.6912,-5.6642,-5.6367,-5.6114,-5.6122,-5.6012,-5.5724,-5.6212,-5.6744,-5.7275,-5.7852,-5.8522,-5.9289,0.0,0.0,0.0,0.0,0.0,0.0,0.0,0.0,0.0,0.0,0.0,0.0,0.0,0.0,0.0,0.0,0.0,0.0,0.0,0.0,0.0,0.0,0.0,-6.278,-6.278,-6.278,-6.278,-6.278,-6.278,-6.278,-6.278,-6.278,-6.278,-6.278,-6.278,-6.278,-6.278,-6.278,-6.278,-6.278,-6.278,-6.278,-6.278,-6.278,-6.278,-6.278,-6.278,-6.278,-6.278,-6.278,-6.278,-6.278,-6.278,-6.278,-6.278,-6.278,-6.278,-6.278,-6.278,-6.278,-6.278,-6.278,-6.278,-6.278,-6.278,-6.278,-6.278,-6.278,-6.278,-6.278,-6.278,-6.278,-6.278,-6.278,-6.278,-6.278,-6.278,-6.278,-6.278,-6.278,-6.278,-6.2743,-6.2144,-6.1594,-6.152,-6.152,-6.1043,-5.9478,-5.9184,-5.8914,-5.8107,-5.7997,0.0,-5.7973,-5.7997,-5.7703,-5.6938,-5.7498,-5.7655,-5.6887,-5.6087,-5.5976,-5.6757,-5.5414,-5.4909,-5.561,-5.5638,-5.6345,-5.793,-5.7939,-5.8323,-5.9128,0.0,0.0,0.0,0.0,0.0,0.0,0.0,0.0,0.0,0.0,0.0,0.0,0.0,0.0,0.0,0.0,0.0,0.0,0.0,0.0,0.0,-6.278,-6.278,-6.278,-6.278,-6.278,-6.278,-6.278,-6.278,-6.278,-6.278,-6.278,-6.278,-6.278,-6.278,-6.278,-6.278,-6.278,-6.278,-6.278,-6.278,-6.278,-6.278,-6.278,-6.278,-6.278,-6.278,-6.278,-6.278,-6.278,-6.278,-6.278,-6.278,-6.278,-6.278,-6.278,-6.278,-6.278,-6.278,-6.278,-6.278,-6.278,-6.278,-6.278,-6.278,-6.278,-6.278,-6.278,-6.278,-6.278,-6.278,-6.278,-6.278,-6.278,-6.278,-6.278,-6.278,-6.278,-6.278,-6.278,-6.2658,-6.2071,-6.1741,-6.1263,-6.0089,-5.9869,-5.9722,-5.9258,-5.8731,-5.8253,-5.8033,-5.7997,-5.7797,-5.7277,-5.7679,-5.7498,-5.6169,-5.6196,-5.6031,-5.5297,-5.5029,-5.4791,-5.4422,-5.4544,-5.4451,-5.4106,-5.4106,-5.4312,-5.4758,-5.5279,-5.5655,0.0,0.0,0.0,0.0,0.0,0.0,0.0,0.0,0.0,0.0,0.0,0.0,0.0,0.0,0.0,0.0,0.0,0.0,0.0,0.0,0.0,0.0,-6.278,-6.278,-6.278,-6.278,-6.278,-6.278,-6.278,-6.278,-6.278,-6.278,-6.278,-6.278,-6.278,-6.278,-6.278,-6.278,-6.278,-6.278,-6.278,-6.278,-6.278,-6.278,-6.278,-6.278,-6.278,-6.278,-6.278,-6.278,-6.278,-6.278,-6.278,-6.278,-6.278,-6.278,-6.278,-6.278,0.0,0.0,0.0,0.0,-6.278,-6.278,-6.278,-6.278,-6.278,-6.278,-6.278,-6.278,-6.278,-6.278,-6.278,-6.278,-6.278,-6.278,-6.278,-6.278,-6.278,-6.278,-6.2548,-6.2181,-6.1704,-6.108,-6.0309,-5.9368,-5.8927,0.0,-5.8694,-5.8327,-5.7904,-5.7607,-5.7797,-5.7726,-5.6989,-5.7522,-5.7413,-5.5865,-5.6004,-5.5752,-5.4665,-5.4606,0.0,0.0,0.0,-5.3946,-5.3551,-5.3788,0.0,0.0,0.0,-5.46,-5.46,-5.504,0.0,0.0,-5.7775,-5.784,0.0,0.0,0.0,0.0,0.0,0.0,0.0,0.0,0.0,0.0,0.0,0.0,0.0,0.0,0.0,0.0,-6.278,-6.278,-6.278,-6.278,-6.278,-6.278,-6.278,-6.278,-6.278,-6.278,-6.278,-6.278,-6.278,-6.278,-6.278,-6.278,0.0,0.0,0.0,-6.278,-6.278,-6.278,-6.278,-6.278,-6.278,-6.278,-6.278,-6.278,-6.278,-6.278,-6.278,-6.278,-6.278,-6.278,-6.278,-6.278,-6.278,-6.278,-6.278,-6.278,-6.278,-6.278,-6.278,0.0,0.0,-6.278,-6.278,-6.278,-6.278,-6.278,-6.278,-6.278,-6.278,-6.278,-6.278,-6.278,-6.278,-6.278,-6.2181,-6.1557,-6.1484,-6.0272,-5.9148,-5.9074,-5.851,-5.7997,-5.7997,-5.7997,-5.7774,-5.7116,-5.757,-5.7726,-5.6989,-5.7474,-5.729,-5.5752,-5.6204,0.0,-5.4606,-5.4482,-5.4482,-5.4482,-5.3848,-5.3518,-5.3518,-5.4126,-5.416,-5.3518,-5.4126,-5.4465,-5.4465,-5.4465,-5.4871,-5.5615,-5.6427,-5.7137,0.0,0.0,0.0,0.0,0.0,0.0,0.0,0.0,0.0,0.0,0.0,0.0,0.0,0.0,0.0,-6.278,-6.278,-6.278,-6.278,-6.278,-6.278,-6.278,-6.278,-6.278,-6.278,-6.278,-6.278,-6.278,-6.278,-6.278,-6.278,-6.278,-6.278,-6.278,-6.278,-6.278,-6.278,-6.278,-6.278,-6.278,-6.278,0.0,-6.278,-6.278,-6.278,-6.278,-6.278,-6.278,-6.278,-6.278,-6.278,-6.278,-6.278,-6.278,-6.278,-6.278,-6.278,-6.278,-6.278,-6.278,-6.278,-6.278,-6.278,-6.278,-6.278,-6.278,0.0,-6.278,-6.278,-6.278,-6.278,-6.278,-6.278,-6.278,-6.2181,-6.141,-6.0786,-5.9905,-5.9001,-5.8364,-5.8107,-5.7997,-5.7997,-5.7997,-5.795,-5.7797,-5.7927,-5.7726,-5.6989,-5.7015,-5.6501,-5.4999,-5.4939,-5.4699,-5.3783,-5.3717,-5.3717,-5.3717,-5.3584,-5.3518,-5.3518,-5.3653,-5.3653,-5.3518,-5.3653,-5.3721,-5.3721,-5.3721,-5.4093,-5.4837,-5.619,-5.6867,0.0,0.0,0.0,0.0,0.0,0.0,0.0,0.0,0.0,0.0,0.0,-6.278,-6.278,0.0,-6.267,-6.2254,-6.2218,-6.2071,-6.1667,-6.1594,-6.1741,-6.2144,-6.2218,-6.2034,-6.163,-6.1594,-6.1594,-6.1594,-6.1594,-6.1594,-6.1594,-6.1594,-6.1594,-6.1594,-6.1594,-6.1594,-6.1594,-6.1998,-6.2218,-6.2218,-6.2622,-6.278,-6.278,-6.278,-6.278,-6.278,-6.278,-6.278,-6.278,-6.278,-6.278,-6.278,-6.278,-6.278,-6.278,-6.278,-6.278,-6.278,-6.278,-6.278,-6.278,-6.278,-6.278,-6.278,-6.278,-6.278,-6.278,-6.278,-6.278,-6.278,-6.278,-6.278,-6.267,-6.2291,-6.1594,-6.0786,-5.9979,-5.9171,-5.8474,-5.807,-5.7997,-5.7997,-5.7997,-5.7997,-5.7867,-5.7498,-5.775,-5.757,-5.6447,-5.6642,-5.6286,-5.4757,-5.4606,-5.4296,-5.3551,-5.3822,-5.4059,-5.4059,-5.4397,-5.46,-5.46,-5.46,-5.46,-5.46,-5.46,-5.46,-5.46,-5.46,-5.4803,-5.5175,-5.6292,-5.6596,0.0,0.0,0.0,0.0,0.0,0.0,0.0,-6.2303,-6.2303,-6.2303,-6.2303,-6.2303,-6.2303,-6.2303,-6.2144,-6.1484,-6.1374,-6.1153,-6.0493,-6.0419,-6.0566,-6.108,-6.1263,-6.1117,-6.0456,-6.0419,-6.0419,-6.0419,-6.0419,-6.0419,-6.0419,-6.0419,-6.0419,-6.0419,-6.0419,-6.0419,-6.0419,-6.1043,-6.1447,-6.1594,-6.2254,-6.2658,-6.278,-6.278,-6.278,-6.278,-6.278,-6.278,-6.278,-6.278,-6.278,-6.278,-6.278,-6.278,-6.278,-6.278,-6.278,-6.278,-6.278,-6.278,-6.278,-6.278,-6.278,-6.278,-6.278,-6.278,-6.278,-6.278,-6.278,-6.278,-6.278,-6.278,-6.2622,-6.1777,-6.1006,-6.0199,-5.9368,-5.8584,-5.7997,-5.7997,-5.7997,-5.7997,-5.7997,-5.7997,-5.7797,-5.7191,-5.7631,-5.7546,-5.6304,-5.6616,-5.6412,-5.5179,-5.4907,-5.4571,-5.3991,-5.4465,-5.4803,-5.4803,-5.5378,-5.5681,-5.5681,-5.5681,-5.5681,-5.5681,-5.5681,-5.5681,-5.5681,-5.5681,-5.5681,-5.5681,-5.6325,-5.6359,-6.0309,-6.0529,-6.0566,-6.0639,-6.0676,-6.0676,0.0,-6.0676,-6.0676,-6.0676,-6.0676,-6.0676,-6.0676,-6.0676,-6.0639,-6.0566,-6.0529,-6.0493,-6.0419,-6.0419,-6.0162,-5.9515,-6.0126,-6.0493,-6.0419,-6.0419,-6.0419,-6.0419,-6.0419,-6.0419,-6.0419,-6.0419,-6.0419,-6.0419,-6.0419,-6.0419,-6.0419,-6.0493,-6.0896,-6.1594,-6.1704,-6.2108,-6.278,-6.278,-6.278,-6.278,-6.278,-6.278,-6.278,-6.278,-6.278,-6.278,-6.278,-6.278,-6.278,-6.278,-6.278,-6.278,-6.278,-6.278,-6.278,-6.278,-6.278,-6.278,-6.278,-6.278,-6.278,-6.278,-6.278,-6.278,-6.278,-6.278,-6.2622,-6.1777,-6.1006,-6.0199,-5.9368,-5.8584,-5.7997,-5.7997,-5.7997,-5.7997,-5.7997,-5.7997,-5.7973,-5.7904,-5.795,-5.795,-5.7774,-5.7241,-5.6814,-5.6657,-5.5981,-5.5537,-5.5482,-5.5547,-5.5581,-5.5581,-5.5683,-5.5681,-5.5681,-5.5681,-5.5681,-5.5681,-5.5681,-5.5681,-5.5681,-5.5681,-5.5681,-5.5681,-5.5749,-5.6156,-5.9501,-6.0052,-6.0419,-6.0419,-6.0419,-6.0419,-6.0419,-6.0419,-6.0419,-6.0419,-6.0419,-6.0419,-6.0419,-6.0419,-6.0272,-5.9795,-5.9698,-5.9538,-5.9061,-5.8988,-5.8877,-5.8547,-5.8804,-5.8988,-5.8988,-5.8988,-5.8988,-5.8988,-5.8988,-5.8988,-5.8988,-5.8988,-5.8988,-5.8988,-5.8988,-5.8988,-5.8988,-5.9465,-5.9869,-6.0236,-6.1153,-6.1777,-6.2108,-6.2585,-6.278,-6.278,-6.278,-6.278,-6.278,-6.278,-6.278,-6.278,-6.278,-6.278,-6.278,-6.278,-6.278,-6.278,-6.278,-6.278,-6.278,-6.278,-6.278,-6.278,-6.278,-6.278,-6.278,-6.278,-6.278,-6.278,-6.278,-6.278,-6.2622,-6.1777,-6.1006,-6.0199,-5.9368,-5.8584,-5.8143,-5.8621,-5.8694,-5.8841,-5.9318,-5.9391,-5.9391,-5.9391,-5.8988,-5.8699,-5.876,-5.8492,-5.7953,-5.7026,-5.6184,-5.569,-5.5683,-5.6089,-5.6359,-5.6359,-5.6731,-5.6968,-5.6968,-5.6968,-5.6968,-5.6968,-5.6968,-5.6968,-5.6968,-5.6968,-5.6968,-5.6968,-5.6968,-5.7137,-5.8731,-5.9281,-5.9758,-5.9758,-5.9758,-5.9758,-5.9758,-5.9758,-5.9758,-5.9758,-5.9758,-5.9758,-5.9758,-5.9758,-5.9538,-5.8988,-5.8877,-5.8694,-5.807,-5.7997,-5.7997,-5.7997,-5.7997,-5.7997,-5.7997,-5.7997,-5.7997,-5.7997,-5.7997,-5.7997,-5.7997,-5.7997,-5.7997,-5.7997,-5.7997,-5.8107,-5.8327,-5.8891,-5.9404,-5.9905,-6.1043,-6.1704,-6.1961,-6.2548,-6.278,-6.278,-6.278,-6.278,-6.278,-6.278,-6.278,-6.278,-6.278,-6.278,-6.278,-6.278,-6.278,-6.278,-6.278,-6.278,-6.278,-6.278,-6.278,-6.278,-6.278,-6.278,-6.278,-6.278,-6.278,-6.278,-6.278,-6.278,-6.2622,-6.1777,-6.1153,-6.0529,-5.9698,-5.9061,-5.8841,-5.9428,-5.9515,-5.9722,-6.0309,-6.0419,-6.0493,-6.0713,-6.0236,-5.981,-5.9615,-5.9412,-5.873,-5.7332,-5.6645,-5.6325,-5.6325,-5.6799,-5.7103,-5.7103,-5.7577,-5.7881,-5.7881,-5.7881,-5.7881,-5.7881,-5.7881,-5.7881,-5.7881,-5.7881,-5.7881,-5.7881,-5.7881,-5.7881,-5.8033,-5.8033,-5.807,-5.807,-5.807,-5.807,-5.807,-5.807,-5.807,-5.807,-5.807,-5.807,-5.807,-5.807,-5.807,-5.8033,-5.8033,-5.8033,-5.7997,-5.7997,-5.7997,-5.7997,-5.7997,-5.7997,-5.7997,-5.7997,-5.7997,-5.7997,-5.7997,-5.7997,-5.7997,-5.7997,-5.7997,-5.7997,-5.7997,-5.8364,-5.9148,-5.9184,-5.9979,-6.152,-6.1557,-6.1998,-6.2743,-6.278,-6.278,-6.278,-6.278,-6.278,-6.278,-6.278,-6.278,-6.278,-6.278,-6.278,-6.278,-6.278,-6.278,-6.278,-6.278,-6.278,-6.278,-6.278,-6.278,-6.278,-6.278,-6.278,-6.278,-6.278,-6.278,-6.278,-6.278,-6.278,-6.2622,-6.1777,-6.1557,-6.1337,-6.0529,-6.0346,-6.0346,-6.0382,-6.0382,-6.0382,-6.0419,-6.0419,-6.0676,-6.1447,-6.152,-6.1263,-6.0469,-5.9689,-5.8858,-5.7967,-5.7874,-5.7814,-5.7814,-5.7848,-5.7848,-5.7848,-5.7881,-5.7881,-5.7881,-5.7881,-5.7881,-5.7881,-5.7881,-5.7881,-5.7881,-5.7881,-5.7881,-5.7881,-5.7881,-5.7881,0.0,0.0,-5.7997,-5.7997,-5.7997,-5.7997,-5.7997,-5.7997,-5.7997,-5.7997,-5.7997,-5.7997,-5.7997,-5.7997,-5.7997,-5.7997,-5.7997,-5.7997,-5.7997,-5.7997,-5.7997,-5.7997,-5.7997,-5.7997,-5.7997,-5.7997,-5.7997,-5.7997,-5.7997,-5.7997,-5.7997,-5.7997,-5.8253,-5.8804,-5.8804,-5.9208,-6.0015,-6.0015,-6.0272,-6.0823,-6.1337,-6.2034,-6.278,-6.278,-6.278,-6.278,-6.278,-6.278,-6.278,-6.278,-6.278,-6.278,-6.278,-6.278,-6.278,-6.278,-6.278,-6.278,-6.278,-6.278,-6.278,-6.278,-6.278,-6.278,-6.278,-6.278,-6.278,-6.278,-6.278,-6.278,-6.278,-6.278,-6.2732,-6.2475,-6.1998,-6.152,-6.1263,-6.0786,-6.0566,-6.108,-6.119,-6.1374,-6.1924,-6.1998,-6.2108,-6.2365,-6.2401,-6.2291,-6.2034,-6.1281,-6.069,-6.0392,-5.9367,-5.8668,-5.8668,-5.8209,-5.7881,-5.7881,-5.7881,-5.7881,-5.7881,-5.7881,-5.7881,-5.7881,-5.7881,-5.7881,-5.7881,-5.7881,-5.7881,-5.7881,-5.7881,-5.7881,0.0,-5.7997,-5.7997,-5.7997,-5.7997,-5.7997,-5.7997,-5.7997,-5.7997,-5.7997,-5.7997,-5.7997,-5.7997,-5.7997,-5.7997,-5.7997,-5.7997,-5.7997,-5.7997,-5.7997,-5.7997,-5.7997,-5.7997,-5.7997,-5.7997,-5.7997,-5.7997,-5.7997,-5.7997,-5.7997,-5.7997,-5.8253,-5.8694,-5.9184,-5.9478,-6.0015,-6.0823,-6.0823,-6.097,-6.1263,-6.1777,-6.2291,-6.278,-6.278,-6.278,-6.278,-6.278,-6.278,-6.278,-6.278,-6.278,-6.278,-6.278,-6.278,-6.278,-6.278,-6.278,-6.278,-6.278,-6.278,-6.278,-6.278,-6.278,-6.278,-6.278,-6.278,-6.278,-6.278,-6.278,-6.278,-6.278,-6.278,-6.278,-6.278,-6.2401,-6.2034,-6.2034,-6.163,-6.141,-6.1924,-6.2034,-6.2181,-6.2732,-6.278,-6.278,-6.278,-6.278,-6.2705,-6.2402,-6.1942,-6.1492,-6.12,-5.996,-5.9145,-5.9111,-5.8352,-5.7881,-5.7881,-5.7881,-5.7881,-5.7881,-5.7881,-5.7881,-5.7881,-5.7881,-5.7881,-5.7881,-5.7881,-5.7881,-5.7881,-5.7881,-5.7881,-5.7997,-5.7997,-5.7997,-5.7997,-5.7997,-5.7997,-5.7997,-5.7997,-5.7997,-5.7997,-5.7997,-5.7997,0.0,-5.7997,-5.7997,-5.7997,-5.7997,-5.7997,-5.7997,-5.7997,-5.7997,-5.7997,-5.7997,-5.7997,-5.7997,-5.7997,-5.7997,-5.7997,-5.7997,-5.8033,-5.807,-5.8804,-5.9221,-5.9294,-6.0052,-6.086,-6.163,-6.1667,-6.2034,-6.278,-6.278,-6.278,-6.278,-6.278,-6.278,-6.278,-6.278,-6.278,-6.278,-6.278,-6.278,-6.278,-6.278,-6.278,-6.278,-6.278,-6.278,-6.278,-6.278,-6.278,-6.278,-6.278,-6.278,-6.278,-6.278,-6.278,-6.278,-6.278,-6.278,-6.278,-6.278,-6.278,-6.278,-6.278,-6.278,-6.278,-6.278,-6.278,-6.278,-6.278,-6.278,-6.278,-6.278,-6.278,-6.278,-6.278,-6.278,-6.2515,-6.1742,-6.1659,-6.1343,-6.0549,-5.9739,-5.9247,-5.9111,-5.8352,-5.7881,-5.7881,-5.7881,-5.7881,-5.7881,-5.7881,-5.7881,-5.7881,-5.7881,-5.7881,-5.7881,-5.7881,-5.7915,-5.7949,-5.7949,-5.7983,-5.7997,-5.7997,-5.7997,-5.7997,-5.7997,-5.7997,-5.7997,-5.7997,-5.7997,-5.7997,-5.7997,-5.7997,-5.7997,-5.7997,-5.7997,-5.7997,-5.7997,-5.7997,-5.7997,-5.7997,-5.7997,-5.7997,-5.7997,-5.7997,-5.7997,-5.7997,-5.7997,-5.7997,-5.7997,-5.8253,-5.8854,-5.9074,-5.9758,-6.0933,-6.119,-6.1667,-6.2511,-6.2511,-6.2622,-6.278,-6.278,-6.278,-6.278,-6.278,-6.278,-6.278,-6.278,-6.278,-6.278,-6.278,-6.278,-6.278,-6.278,-6.278,-6.278,-6.278,-6.278,-6.278,-6.278,-6.278,-6.278,-6.278,-6.278,-6.278,-6.278,-6.278,-6.278,-6.278,-6.278,-6.278,-6.278,-6.278,-6.278,-6.278,-6.278,-6.278,-6.278,-6.278,-6.278,-6.278,-6.278,-6.278,-6.278,-6.278,-6.278,-6.278,-6.278,-6.273,-6.2515,-6.249,-6.2192,-6.1371,-6.058,-5.98,-5.9144,-5.8352,-5.7881,-5.7881,-5.7881,-5.7881,-5.7881,-5.7881,-5.7881,-5.7881,-5.7881,-5.7881,-5.7881,-5.7881,-5.8186,-5.8727,-5.8727,-5.8998,-5.7997,-5.7997,-5.7997,-5.7997,-5.7997,-5.7997,-5.7997,-5.7997,-5.7997,-5.7997,-5.7997,-5.7997,-5.7997,-5.7997,-5.7997,-5.7997,-5.7997,-5.7997,-5.7997,-5.7997,-5.7997,-5.7997,-5.7997,-5.7997,-5.7997,-5.7997,-5.8143,-5.851,-5.8547,-5.8731,-5.9184,-5.9869,-6.0676,-6.1557,-6.1924,-6.2365,-6.278,-6.278,-6.278,-6.278,-6.278,-6.278,-6.278,-6.278,-6.278,-6.278,-6.278,-6.278,-6.278,-6.278,-6.278,-6.278,-6.278,-6.278,-6.278,-6.278,-6.278,-6.278,-6.278,-6.278,-6.278,-6.278,-6.278,-6.278,-6.278,-6.278,-6.278,-6.278,-6.278,-6.278,-6.278,-6.278,-6.278,-6.278,-6.278,-6.278,-6.278,-6.278,-6.278,-6.278,-6.278,-6.278,-6.278,-6.278,-6.278,-6.278,-6.278,-6.2952,-6.3319,-6.2735,-6.2103,-6.1659,-6.0833,-6.0163,-5.9664,-5.9138,-5.8863,-5.8863,-5.8863,-5.8863,-5.8863,-5.8863,-5.8863,-5.8863,-5.8863,-5.8863,-5.8863,-5.8863,-5.9066,-5.9471,-5.9471,-5.9708,-5.7997,-5.7997,-5.7997,-5.7997,-5.7997,-5.7997,-5.7997,-5.7997,-5.7997,-5.7997,-5.7997,-5.7997,-5.7997,-5.7997,-5.7997,-5.7997,0.0,-5.7997,-5.7997,-5.7997,-5.7997,-5.7997,-5.7997,-5.7997,-5.7997,-5.8107,-5.8437,-5.9148,-5.9404,-5.9515,-5.9515,-6.086,-6.163,-6.1741,-6.2438,-6.278,-6.278,-6.278,-6.278,-6.278,-6.278,-6.278,-6.278,-6.278,-6.278,-6.278,-6.278,-6.278,-6.278,-6.278,-6.278,-6.278,-6.278,-6.278,-6.278,-6.278,-6.278,-6.278,-6.278,-6.278,-6.278,-6.278,-6.278,-6.278,-6.278,-6.278,-6.278,-6.278,-6.278,-6.278,-6.278,-6.278,-6.278,-6.278,-6.278,-6.278,-6.278,-6.278,-6.278,-6.278,-6.278,-6.278,-6.278,-6.2915,-6.2989,-6.2989,-6.3062,-6.3392,-6.4163,-6.291,-6.1932,-6.192,-6.1219,-6.0733,-6.0632,-6.0522,-6.0384,-6.0306,-6.0269,-6.0231,-6.0114,-6.0114,-6.0114,-6.0114,-6.0114,-6.0114,-6.0114,-6.0114,-6.0148,-6.025,-6.025,-6.0317,-5.7997,-5.7997,-5.7997,-5.7997,-5.7997,-5.7997,-5.7997,-5.7997,0.0,-5.7997,-5.7997,-5.7997,-5.7997,-5.7997,-5.7997,-5.7997,-5.7997,-5.7997,-5.7997,-5.7997,-5.7997,0.0,-5.7997,-5.7997,-5.7997,-5.8621,-5.9038,-5.9184,-6.0419,-6.119,-6.119,-6.1447,-6.1887,-6.2585,-6.2732,-6.278,-6.278,-6.278,-6.278,-6.278,-6.278,-6.278,-6.278,-6.278,-6.278,-6.278,-6.278,-6.278,-6.278,-6.278,-6.278,-6.278,-6.278,-6.278,-6.278,-6.278,-6.278,-6.278,-6.278,-6.278,-6.278,-6.278,-6.278,-6.278,-6.278,-6.278,-6.278,-6.278,-6.278,-6.278,-6.278,-6.278,-6.278,-6.278,-6.278,-6.278,-6.278,-6.278,-6.278,-6.278,-6.278,-6.278,-6.278,-6.3392,-6.387,-6.387,-6.4457,-6.4934,-6.5081,-6.4244,-6.3663,-6.3566,-6.3458,-6.3076,-6.2422,-6.237,-6.2012,-6.1327,-6.1256,-6.0899,-6.0118,-6.0114,-6.0114,-6.0114,-6.0114,-6.0114,-6.0114,-6.0114,-6.0452,-6.1095,-6.1095,-6.1434,-5.8198,-5.7997,-5.7997,-5.7997,-5.7997,-5.7997,-5.7997,0.0,0.0,-5.7997,-5.7997,-5.7997,-5.7997,-5.7997,-5.7997,-5.7997,-5.7997,-5.7997,-5.7997,-5.7997,-5.7997,-5.7997,-5.7997,-5.8143,-5.8584,-5.8964,-5.9551,-6.0382,-6.1153,-6.1594,-6.1594,-6.1998,-6.2401,-6.2805,-6.278,-6.278,-6.278,-6.278,-6.278,-6.278,-6.278,-6.278,-6.278,-6.278,-6.278,-6.2817,-6.3282,-6.3466,-6.3503,-6.3943,-6.4127,-6.4127,-6.4127,-6.4127,-6.4127,-6.4127,-6.4127,-6.4127,-6.4127,-6.4127,-6.4053,-6.3613,-6.3172,-6.278,-6.278,-6.278,-6.278,-6.278,-6.278,-6.278,-6.278,-6.278,-6.278,-6.278,-6.278,-6.278,-6.278,-6.278,-6.2952,-6.3392,-6.3466,-6.3613,-6.4053,-6.4457,-6.4714,-6.4714,-6.5044,-6.5448,-6.5888,-6.5595,-6.5001,-6.4101,-6.3986,-6.3774,-6.3396,-6.3328,-6.31,-6.2646,-6.2211,-6.1763,-6.1337,-6.1298,-6.1298,-6.1298,-6.1298,-6.1298,-6.1298,-6.1298,-6.1501,-6.1873,-6.1873,-6.2042,-5.8863,-5.8364,-5.8164,-5.8164,-5.8051,-5.7997,-5.7997,-5.7997,0.0,-5.7997,-5.7997,-5.7997,-5.7997,-5.7997,-5.7997,-5.7997,-5.7997,-5.7997,-5.7997,-5.7997,-5.7997,-5.7997,-5.8143,0.0,-5.9148,-5.9515,-6.0236,-6.1484,-6.1741,-6.1851,-6.1851,-6.2475,-6.278,-6.278,-6.278,-6.278,-6.278,-6.278,-6.278,-6.278,-6.278,-6.278,-6.278,-6.2989,-6.3099,-6.3135,-6.398,-6.4347,-6.442,-6.5044,-6.5301,-6.5301,-6.5301,-6.5301,-6.5301,-6.5301,-6.5301,-6.5301,-6.5301,-6.5301,-6.5191,-6.4567,-6.3796,-6.3062,-6.2853,-6.278,-6.278,-6.278,-6.278,-6.278,-6.278,-6.278,-6.278,-6.278,-6.2952,-6.3099,-6.3099,-6.3209,-6.3539,-6.4237,-6.4347,-6.4567,-6.5191,-6.5448,-6.5558,-6.5558,-6.5705,-6.6035,-6.6659,-6.6769,-6.6225,-6.4908,-6.4765,-6.4626,-6.4436,-6.4314,-6.4113,-6.3719,-6.3049,-6.2581,-6.242,-6.2381,-6.2381,-6.2381,-6.2381,-6.2381,-6.2381,-6.2381,-6.2381,-6.2381,-6.2381,-6.2381,-6.0488,-5.9552,-5.8632,-5.8632,-5.8326,-5.7997,-5.7997,0.0,-5.7997,-5.7997,-5.7997,-5.7997,-5.7997,-5.7997,-5.7997,-5.7997,-5.7997,-5.7997,-5.7997,-5.7997,-5.7997,-5.7997,0.0,0.0,-5.9184,-6.0529,-6.1447,-6.1594,-6.2291,-6.2695,-6.2695,-6.2768,-6.278,-6.278,-6.278,-6.278,-6.278,-6.278,-6.278,-6.278,-6.278,-6.278,-6.2817,-6.3613,-6.398,-6.4016,-6.4861,-6.5191,-6.5191,-6.5264,-6.5301,-6.5301,-6.5301,-6.5301,-6.5301,-6.5301,-6.5301,-6.5301,-6.5301,-6.5301,-6.5301,-6.5228,-6.464,-6.3833,-6.3062,-6.278,-6.278,-6.278,-6.278,-6.278,-6.278,-6.278,-6.278,-6.278,-6.3392,-6.398,-6.398,-6.4567,-6.5081,-6.5191,-6.5191,-6.5228,-6.5301,-6.5925,-6.6402,-6.6402,-6.699,-6.7504,-6.7577,-6.7577,-6.754,-6.7386,-6.7369,-6.7036,-6.6265,-6.615,-6.5462,-6.3827,-6.361,-6.3237,-6.242,-6.2381,-6.2381,-6.2381,-6.2381,-6.2381,-6.2381,-6.2381,-6.2381,-6.2381,-6.2381,-6.2381,-6.1626,-6.0677,-5.9853,-5.9542,-5.8942,-5.8332,-5.8051,0.0,-5.7997,-5.7997,-5.7997,-5.7997,-5.7997,-5.7997,-5.7997,-5.7997,-5.7997,0.0,-5.7997,-5.7997,-5.7997,-5.7997,-5.8731,-5.9368,-5.9905,-6.0933,-6.1777,-6.2291,-6.2622,-6.278,-6.278,-6.278,-6.278,-6.278,-6.278,-6.278,-6.278,-6.278,-6.278,-6.278,-6.3319,-6.3576,-6.3613,-6.4457,-6.4824,-6.4861,-6.5668,-6.6035,-6.6072,-6.6549,-6.6733,-6.6733,-6.6733,-6.6733,-6.6733,-6.6733,-6.6733,-6.6733,-6.6733,-6.6733,-6.6659,-6.6182,-6.5815,-6.5375,-6.4567,-6.431,-6.431,-6.431,-6.431,-6.431,-6.431,-6.431,-6.431,-6.431,-6.4567,-6.4824,-6.4824,-6.5081,-6.5448,-6.5925,-6.6035,-6.6182,-6.6659,-6.699,-6.721,-6.721,-6.7467,-6.7687,-6.7687,-6.7687,-6.7687,-6.7687,-6.723,-6.6794,-6.6434,-6.5397,-6.4462,-6.3755,-6.3237,-6.274,-6.242,-6.2381,-6.2381,-6.2381,-6.2381,-6.2381,-6.2381,-6.2381,-6.2381,-6.2381,-6.2381,-6.2381,-6.2975,-6.1999,-6.1076,-6.036,-5.9657,-5.8888,0.0,0.0,-5.7997,-5.7997,-5.7997,-5.7997,-5.7997,-5.7997,-5.7997,-5.7997,0.0,-5.7997,-5.7997,-5.7997,-5.8107,-5.8327,-5.9098,-5.9869,-6.0676,-6.1484,-6.2181,-6.2768,-6.278,-6.278,-6.278,-6.278,-6.278,-6.278,-6.278,-6.278,-6.278,-6.278,-6.2952,-6.3209,-6.3796,-6.42,-6.4494,-6.5301,-6.5668,-6.5705,-6.6512,-6.6843,-6.688,-6.7467,-6.7687,-6.7687,-6.7687,-6.7687,-6.7687,-6.7687,-6.7687,-6.7687,-6.7687,-6.7687,-6.7614,-6.7026,-6.6843,-6.6733,-6.6182,-6.5705,-6.5301,-6.5301,-6.5301,-6.5301,-6.5301,-6.5301,-6.5301,-6.5301,-6.5485,-6.5668,-6.5668,-6.5852,-6.6182,-6.6733,-6.6843,-6.7026,-6.7577,-6.7687,-6.7687,-6.7687,-6.7687,-6.7687,-6.7687,-6.7687,-6.7606,-6.7314,-6.6523,-6.5966,-6.5966,-6.4564,-6.3574,-6.3314,-6.2774,-6.2381,-6.2381,-6.2381,-6.2381,-6.2381,-6.2381,-6.2381,-6.2381,-6.2381,-6.2381,-6.2381,-6.2381,-6.2381,-6.4577,-6.3611,-6.2277,-6.1018,-6.0341,-5.9636,0.0,0.0,-5.7997,-5.7997,-5.7997,-5.7997,-5.7997,-5.7997,-5.7997,-5.7997,-5.7997,0.0,-5.7997,-5.7997,-5.829,0.0,-5.9905,-6.0713,-6.152,-6.2328,-6.278,-6.278,-6.278,-6.278,-6.278,-6.278,-6.278,-6.278,-6.278,-6.278,-6.278,-6.278,-6.3246,-6.409,-6.409,-6.453,-6.5301,-6.6109,-6.6476,-6.6512,-6.732,-6.7687,-6.7687,-6.7687,-6.7687,-6.7687,-6.7687,-6.7687,-6.7687,-6.7687,-6.7687,-6.7687,-6.7687,-6.7687,-6.7687,-6.7687,-6.7687,-6.7687,-6.7677,-6.6549,-6.5301,-6.5301,-6.5301,-6.5301,-6.5301,-6.5301,-6.5301,-6.5301,-6.5925,-6.6476,-6.6476,-6.71,-6.7677,-6.7687,-6.7687,-6.7687,-6.7687,-6.7687,-6.7687,-6.7687,-6.7687,-6.7687,-6.7687,-6.7687,-6.7378,-6.6493,-6.5586,-6.5032,-6.5032,-6.4183,-6.3314,-6.2459,-6.2381,-6.2381,-6.2381,-6.2381,-6.2381,-6.2381,-6.2381,-6.2381,-6.2381,-6.2381,-6.2381,-6.2381,-6.2381,-6.2381,-6.5474,-6.4744,-6.3778,-6.3054,-6.2077,-6.111,-6.0359,-5.9899,-5.9648,-5.9648,-5.9208,-5.8841,-5.8841,-5.8364,-5.7997,-5.7997,-5.7997,0.0,0.0,0.0,0.0,-5.9148,-6.0419,-6.1557,-6.2365,-6.2658,-6.278,-6.278,-6.278,-6.278,-6.278,-6.278,-6.278,-6.278,-6.278,-6.3099,-6.3686,-6.3686,-6.409,-6.4934,-6.5485,-6.5852,-6.6145,-6.6953,-6.732,-6.732,-6.7577,-6.7687,-6.7687,-6.7687,-6.7687,-6.7687,-6.7687,-6.7687,-6.7687,-6.7687,-6.7687,-6.7687,-6.7687,-6.7687,-6.7687,-6.7687,-6.7687,-6.7687,-6.7687,-6.732,-6.6953,-6.6953,-6.6953,-6.6953,-6.6953,-6.6953,-6.6953,-6.6953,-6.7136,-6.732,-6.732,-6.7504,-6.7687,-6.7687,-6.7687,-6.7687,-6.7687,-6.7687,-6.7687,-6.7687,-6.7687,-6.7687,-6.7687,-6.7687,-6.7569,-6.7314,-6.6487,-6.5458,-6.4253,-6.3829,-6.3574,-6.3314,-6.3277,-6.3277,-6.3277,-6.2736,-6.2381,-6.2381,-6.2381,-6.2381,-6.2381,-6.2381,-6.2381,-6.2381,-6.2381,-6.2381,-6.5897,-6.5513,-6.4872,-6.3854,-6.2959,0.0,0.0,-6.0628,-6.0419,-6.0419,-6.0015,-5.9551,-5.9258,-5.8804,-5.8364,-5.8033,-5.7997,-5.7997,-5.7997,-5.8694,-5.9404,-6.0052,-6.1263,-6.2254,-6.2743,-6.278,-6.278,-6.278,-6.278,-6.278,-6.278,-6.278,-6.2952,-6.3282,-6.3282,-6.3539,-6.409,-6.4383,-6.4971,-6.5778,-6.6256,-6.6659,-6.6953,-6.7467,-6.7687,-6.7687,-6.7687,-6.7687,0.0,-6.7687,-6.7687,-6.7687,-6.7687,-6.7687,-6.7687,-6.7687,-6.7687,-6.7687,-6.7687,-6.7687,-6.7687,-6.7687,-6.7687,-6.7687,-6.7687,-6.7687,-6.7687,-6.7687,-6.7687,-6.7687,-6.7687,-6.7687,-6.7687,-6.7687,-6.7687,-6.7687,-6.7687,-6.7687,-6.7687,-6.7687,-6.7687,-6.7687,-6.7687,-6.7687,-6.7687,-6.7687,-6.7687,-6.7687,-6.7687,-6.7687,-6.7569,-6.723,-6.67,-6.5779,-6.4323,-6.4183,-6.4042,-6.3719,-6.3719,-6.3537,-6.3202,-6.2697,-6.2381,-6.2381,-6.2381,-6.2381,-6.2381,-6.2381,-6.2381,-6.2381,-6.2381,-6.2381,0.0,-6.5897,-6.5471,-6.3693,-6.3217,-6.2747,-6.1029,-6.059,0.0,-6.0566,-6.0529,-6.0236,-5.9404,-5.9221,-5.8927,-5.8143,-5.7997,-5.8033,-5.807,-5.8841,-5.9942,-6.1484,-6.2365,-6.278,-6.278,-6.278,-6.278,-6.278,-6.278,-6.278,-6.278,-6.2853,-6.3282,-6.4053,-6.42,-6.4273,-6.4273,-6.5007,-6.5778,-6.6586,-6.6586,-6.699,-6.7687,-6.7687,-6.7687,-6.7687,-6.7687,-6.7687,-6.7687,-6.7687,-6.7687,-6.7687,-6.7687,-6.7687,-6.7687,-6.7687,-6.7687,-6.7687,-6.7687,-6.7687,-6.7687,-6.7687,-6.7687,-6.7687,-6.7687,-6.7687,-6.7687,-6.7687,-6.7687,-6.7687,-6.7687,-6.7687,-6.7687,-6.7687,-6.7687,-6.7687,-6.7687,-6.7687,-6.7687,-6.7687,-6.7687,-6.7687,-6.7687,-6.7687,-6.7687,-6.7687,-6.7687,-6.7687,-6.7687,-6.7687,-6.7405,-6.6582,-6.6493,-6.6156,-6.5261,-6.5131,-6.4734,-6.3829,-6.3757,-6.3425,-6.2537,-6.242,-6.2381,-6.2381,-6.2381,-6.2381,-6.2381,-6.2381,-6.2381,-6.2381,-6.2381,-6.2381,-6.5897,0.0,-6.5678,-6.4832,-6.4358,-6.3878,0.0,-6.2519,-6.2254,-6.2254,-6.1741,-6.108,-6.0272,-5.9588,-5.8927,-5.8143,-5.7997,-5.8217,-5.8817,-6.0126,-6.141,-6.2401,-6.2695,-6.278,-6.278,-6.278,-6.278,-6.278,-6.278,-6.278,-6.278,-6.3429,-6.387,-6.409,-6.5301,-6.5925,-6.5925,-6.6109,-6.6623,-6.7393,-6.7393,-6.7504,-6.7687,-6.7687,-6.7687,-6.7687,-6.7687,-6.7687,-6.7687,-6.7687,-6.7687,-6.7687,-6.7687,-6.7687,-6.7687,-6.7687,-6.7687,-6.7687,-6.7687,-6.7687,-6.7687,-6.7687,-6.7687,-6.7687,-6.7687,-6.7687,-6.7687,-6.7687,-6.7687,-6.7687,-6.7687,-6.7687,-6.7687,-6.7687,-6.7687,-6.7687,-6.7687,-6.7687,-6.7687,-6.7687,-6.7687,-6.7687,-6.7687,-6.7687,-6.7687,-6.7687,-6.7687,-6.7687,-6.7687,-6.7687,-6.7633,-6.7433,-6.7405,-6.7286,-6.7081,-6.6457,-6.5685,-6.4732,-6.4698,-6.4288,-6.3425,-6.274,-6.2381,-6.2381,-6.2381,-6.2381,-6.2381,-6.2381,-6.2381,-6.2381,-6.2381,-6.2381,-6.5897,-6.5703,-6.5417,-6.4921,-6.4407,-6.3913,-6.334,-6.3014,-6.278,-6.278,-6.2144,-6.1337,-6.0566,-5.9758,-5.8927,-5.8143,-5.8327,-5.8951,-6.0162,-6.1043,-6.1887,-6.267,-6.278,-6.278,-6.278,-6.278,-6.278,-6.278,-6.278,-6.2989,-6.3392,-6.3833,-6.442,-6.5154,-6.6035,-6.6512,-6.6512,-6.688,-6.7247,-6.7687,-6.7687,-6.7687,-6.7687,-6.7687,-6.7687,-6.7687,-6.7687,-6.7687,-6.7687,-6.7687,-6.7687,-6.7687,-6.7687,-6.7687,-6.7687,-6.7687,-6.7687,-6.7687,-6.7687,-6.7687,-6.7687,-6.7687,-6.7687,-6.7687,-6.7687,-6.7687,-6.7687,-6.7687,-6.7687,-6.7687,-6.7687,-6.7687,-6.7687,-6.7687,-6.7687,-6.7687,-6.7687,-6.7687,-6.7687,-6.7687,-6.7687,-6.7687,-6.7687,-6.7687,-6.7687,-6.7687,-6.7687,-6.7687,-6.7687,-6.7687,-6.7687,-6.7687,-6.7314,-6.7117,-6.7117,-6.6277,-6.5554,-6.5032,-6.4597,-6.4007,-6.3162,-6.2659,-6.2381,-6.2381,-6.2381,-6.2381,-6.2381,-6.2381,-6.2381,-6.2381,-6.2381,-6.2381,-6.5897,-6.5527,-6.5003,-6.45,-6.4076,-6.3587,-6.2941,-6.278,-6.278,-6.278,-6.2144,-6.1337,-6.0566,-5.9758,-5.8964,-5.829,-5.8951,-6.0052,-6.141,-6.1704,-6.2034,-6.2707,-6.278,-6.278,-6.278,-6.278,-6.278,-6.278,-6.289,-6.3319,-6.4053,-6.431,-6.5081,-6.6439,-6.6623,-6.6659,-6.6659,-6.7357,-6.7687,-6.7687,-6.7687,-6.7687,-6.7687,-6.7687,-6.7687,-6.7687,-6.7687,-6.7687,-6.7687,-6.7687,-6.7687,-6.7687,-6.7687,-6.7687,-6.7687,-6.7687,-6.7687,-6.7687,-6.7687,-6.7687,-6.7687,-6.7687,-6.7687,-6.7687,-6.7687,-6.7687,-6.7687,-6.7687,-6.7687,-6.7687,-6.7687,-6.7687,-6.7687,-6.7687,-6.7687,-6.7687,-6.7687,-6.7687,-6.7687,-6.7687,-6.7687,-6.7687,-6.7687,-6.7687,-6.7687,-6.7687,-6.7687,-6.7687,-6.7687,-6.7687,-6.7687,-6.7687,-6.691,-6.6404,-6.6404,-6.5426,-6.4799,-6.4799,-6.4113,-6.3314,-6.242,-6.2381,-6.2381,-6.2381,-6.2381,-6.2381,-6.2381,-6.2381,-6.2448,-6.255,-6.255,-6.2618,-6.5897,-6.5527,-6.5003,-6.45,-6.4332,-6.3998,-6.3038,-6.278,-6.278,-6.278,-6.2144,-6.1337,-6.0566,-5.9758,-5.9148,-5.9038,-6.0272,-6.13,-6.1557,-6.2181,-6.2658,-6.2805,-6.278,-6.278,-6.278,-6.278,-6.278,-6.278,-6.3466,-6.3943,-6.409,-6.5375,-6.6219,-6.6476,-6.7136,-6.7504,-6.7504,-6.7614,-6.7687,-6.7687,-6.7687,-6.7687,-6.7687,-6.7687,-6.7687,-6.7687,-6.7687,-6.7687,-6.7687,-6.7687,-6.7687,-6.7687,-6.7687,-6.7687,-6.7687,-6.7687,-6.7687,-6.7687,-6.7687,-6.7687,-6.7687,-6.7687,-6.7687,-6.7687,-6.7687,-6.7687,-6.7687,-6.7687,-6.7687,-6.7687,-6.7687,-6.7687,-6.7687,-6.7687,-6.7687,-6.7687,-6.7687,-6.7687,-6.7687,-6.7687,-6.7687,-6.7687,-6.7687,-6.7687,-6.7687,-6.7687,-6.7687,-6.7687,-6.7687,-6.7687,-6.7687,-6.7687,-6.691,-6.6404,-6.6404,-6.4835,-6.39,-6.39,-6.3757,-6.3314,-6.242,-6.2381,-6.2381,-6.2381,-6.2381,-6.2381,-6.2381,-6.2381,-6.2719,-6.3328,-6.3328,-6.3666,-6.5897,-6.5703,-6.5417,-6.4921,-6.4572,-6.4178,-6.3408,-6.3238,-6.3144,-6.2855,-6.1814,-6.086,-6.0456,-5.9758,-5.9478,-6.0382,-6.1117,-6.1741,-6.2181,-6.2585,-6.278,-6.278,-6.278,-6.278,-6.278,-6.278,-6.3025,-6.3466,-6.387,-6.4457,-6.5338,-6.6109,-6.6696,-6.7136,-6.7504,-6.7687,-6.7687,-6.7687,-6.7687,-6.7687,-6.7687,-6.7687,-6.7687,-6.7687,-6.7687,-6.7687,-6.7687,-6.7687,-6.7687,-6.7687,-6.7687,-6.7687,-6.7687,-6.7687,-6.7687,-6.7687,-6.7687,-6.7687,-6.7687,-6.7687,-6.7687,-6.7687,-6.7687,-6.7687,-6.7687,-6.7687,-6.7687,-6.7687,-6.7687,-6.7687,-6.7687,-6.7687,-6.7687,-6.7687,-6.7687,-6.7687,-6.7687,-6.7687,-6.7687,-6.7687,-6.7687,-6.7687,-6.7687,-6.7687,-6.7687,-6.7687,-6.7687,-6.7687,-6.7687,-6.7687,-6.7687,-6.7687,-6.6825,-6.6228,-6.6228,-6.4981,-6.3863,-6.3042,-6.3384,-6.3392,-6.299,-6.3396,-6.3599,-6.3599,-6.3599,-6.3599,-6.3599,-6.3599,-6.3768,-6.4106,-6.4106,-6.4275,-6.5897,-6.5897,-6.5781,-6.5245,-6.4731,-6.4236,-6.3723,-6.352,-6.3234,-6.2647,-6.141,-6.0419,-6.0419,-6.0052,-6.0162,-6.141,-6.1741,-6.2108,-6.2732,-6.278,-6.278,-6.278,-6.278,-6.278,-6.278,-6.2989,-6.3392,-6.4053,-6.4457,-6.5191,-6.6439,-6.6659,-6.7063,-6.7677,-6.7687,-6.7687,-6.7687,-6.7687,-6.7687,-6.7687,-6.7687,-6.7687,-6.7687,-6.7687,-6.7687,-6.7687,-6.7687,-6.7687,-6.7687,-6.7687,-6.7687,-6.7687,-6.7687,-6.7687,-6.7687,-6.7687,-6.7687,-6.7687,-6.7687,-6.7687,-6.7687,-6.7687,-6.7687,-6.7687,-6.7687,-6.7687,-6.7687,-6.7687,-6.7687,-6.7687,-6.7687,-6.7687,-6.7687,-6.7687,-6.7687,-6.7687,-6.7687,-6.7687,-6.7687,-6.7687,-6.7687,-6.7687,-6.7687,-6.7687,-6.776,-6.7944,-6.7981,-6.8054,-6.8238,-6.8074,-6.7926,-6.7926,-6.6821,-6.597,-6.5759,-6.5049,-6.4106,-6.299,-6.3463,-6.3768,-6.3768,-6.4309,-6.4613,-6.4613,-6.4613,-6.4613,-6.4613,-6.4613,-6.4681,-6.485,-6.485,-6.4952,-6.5897,-6.5897,-6.5781,-6.5245,-6.4731,-6.4236,-6.3723,-6.3215,-6.2634,-6.1875,-6.1006,-6.0419,-6.0419,-6.097,-6.1484,-6.1557,-6.2218,-6.2732,-6.278,-6.278,-6.278,-6.278,-6.278,-6.278,-6.278,-6.3539,-6.4016,-6.409,-6.5485,-6.6366,-6.6476,-6.721,-6.7614,-6.7687,-6.7687,-6.7687,-6.7687,-6.7687,-6.7687,-6.7687,-6.7687,-6.7687,-6.7687,-6.7687,-6.7687,-6.7687,-6.7687,-6.7687,-6.7687,-6.7687,-6.7687,-6.7687,-6.7687,-6.7687,-6.7687,-6.7687,-6.7687,-6.7687,-6.7687,-6.7687,-6.7687,-6.7687,-6.7687,-6.7687,-6.7687,-6.7687,-6.7687,-6.7687,-6.7687,-6.7687,-6.7687,-6.7687,-6.7687,-6.7687,-6.7687,-6.7687,-6.7687,-6.7687,-6.7687,-6.7687,-6.7687,-6.7687,-6.7687,-6.7687,-6.7944,-6.8715,-6.8825,-6.9082,-6.9816,-6.9157,-6.8636,-6.8636,-6.6988,-6.5596,-6.4761,-6.4627,-6.4546,-6.4444,-6.4478,-6.4512,-6.4512,-6.458,-6.4613,-6.4613,-6.4613,-6.4613,-6.4613,-6.4613,-6.4952,-6.5595,-6.5595,-6.6,-6.5897,-6.5663,-6.5432,-6.5569,-6.4731,-6.385,-6.3637,-6.3453,-6.3141,-6.2475,-6.1704,-6.1153,-6.1153,-6.1374,-6.1741,-6.2254,-6.2622,-6.278,-6.278,-6.278,-6.278,-6.278,-6.278,-6.278,-6.278,-6.3576,-6.431,-6.4824,-6.5888,-6.6733,-6.721,-6.7504,-6.7687,-6.7687,-6.7687,-6.7687,-6.7687,-6.7687,-6.7687,-6.7687,-6.7687,-6.7687,-6.7687,-6.7687,-6.7687,-6.7687,-6.7687,-6.7687,-6.7687,-6.7687,-6.7687,-6.7687,-6.7687,-6.7687,-6.7687,-6.7687,-6.7687,-6.7687,-6.7687,-6.7687,-6.7687,-6.7687,-6.7687,-6.7687,-6.7687,-6.7687,-6.7687,-6.7687,-6.7687,-6.7687,-6.7687,-6.7687,-6.7687,-6.7687,-6.7687,-6.7687,-6.7687,-6.7687,-6.7687,-6.7687,-6.8091,-6.8458,-6.8458,-6.8862,-6.9302,-6.9596,-6.9633,-6.9743,-7.0073,-6.9783,-6.9544,-6.9544,-6.8862,-6.8222,-6.7813,-6.72,-6.6843,-6.6843,-6.5827,-6.5256,-6.5256,-6.573,-6.5967,-6.5967,-6.5967,-6.5967,-6.5967,-6.5967,-6.6136,-6.6373,-6.6373,-6.6542,-6.5897,-6.5649,-6.5335,-6.5403,-6.4626,-6.3766,-6.3431,-6.334,-6.3187,-6.2549,-6.1998,-6.1594,-6.1594,-6.1814,-6.2144,-6.2732,-6.278,-6.278,-6.278,-6.278,-6.278,-6.278,-6.278,-6.2915,-6.3172,-6.398,-6.4824,-6.5632,-6.6402,-6.71,-6.765,-6.7687,-6.7687,-6.7687,-6.7687,-6.7687,-6.7687,-6.7687,-6.7687,-6.7687,-6.7687,-6.7687,-6.7687,-6.7687,-6.7687,-6.7687,-6.7687,-6.7687,-6.7687,-6.7687,-6.7687,-6.7687,-6.7687,-6.7687,-6.7687,-6.7687,-6.7687,-6.7687,-6.7687,-6.7687,-6.7687,-6.7687,-6.7687,-6.7687,-6.7687,-6.7687,-6.7687,-6.7687,-6.7687,-6.7687,-6.7687,-6.7687,-6.7687,-6.7687,-6.7687,-6.7687,-6.7687,-6.7907,-6.8091,-6.8091,-6.8715,-6.9302,-6.9302,-6.9743,-7.0183,-7.044,-7.0477,-7.0587,-7.0844,-7.0608,-7.031,-7.0005,-6.9913,-6.9658,-6.9278,-6.861,-6.8068,-6.7787,-6.6685,-6.6034,-6.6034,-6.6542,-6.6812,-6.6812,-6.6812,-6.6812,-6.6812,-6.6812,-6.6812,-6.6812,-6.6812,-6.6812,-6.5897,-6.5897,-6.5649,-6.4664,-6.4389,-6.4099,-6.3062,-6.2805,-6.2585,-6.1777,-6.1594,-6.1594,-6.1594,-6.2254,-6.278,-6.278,-6.278,-6.278,-6.278,-6.278,-6.278,-6.278,-6.278,-6.3172,-6.4016,-6.4824,-6.5632,-6.6439,-6.7247,-6.7687,-6.7687,-6.7687,-6.7687,-6.7687,-6.7687,-6.7687,-6.7687,-6.7687,-6.7687,-6.7687,-6.7687,-6.7687,-6.7687,-6.7687,-6.7687,-6.7687,-6.7687,-6.7687,-6.7687,-6.7687,-6.7687,-6.7687,-6.7687,-6.7687,-6.7687,-6.7687,-6.7687,-6.7687,-6.7687,-6.7687,-6.7687,-6.7687,-6.7687,-6.7687,-6.7687,-6.7687,-6.7687,-6.7687,-6.7714,-6.7714,-6.7714,-6.7724,-6.7724,-6.7687,-6.7714,-6.7687,-6.7724,-6.8348,-6.8898,-6.8898,-6.9559,-7.011,-7.011,-7.011,-7.0403,-7.1211,-7.1293,-7.1615,-7.2422,-7.1702,-7.0767,-6.9849,-6.9743,-6.9314,-6.8305,-6.8189,-6.7827,-6.6896,-6.6812,-6.6812,-6.6812,-6.6812,-6.6812,-6.6812,-6.6812,-6.6812,-6.6812,-6.6812,-6.6812,-6.6812,-6.6812,-6.6812,-6.5897,-6.5374,-6.4854,-6.4866,-6.4099,-6.3271,-6.334,-6.3086,-6.2732,-6.2511,-6.2438,-6.2438,-6.2438,-6.2658,-6.278,-6.278,-6.278,-6.278,-6.278,-6.278,-6.278,-6.278,-6.3356,-6.3796,-6.4053,-6.5338,-6.6256,-6.6476,-6.7247,-6.7687,-6.7687,-6.7687,-6.7687,-6.7687,-6.7687,-6.7687,-6.7687,-6.7687,-6.7687,-6.7687,-6.7687,-6.7687,-6.7687,-6.7687,-6.7687,-6.7687,-6.7687,-6.7687,-6.7687,-6.7687,-6.7687,-6.7687,-6.7687,-6.7687,-6.7687,-6.7687,-6.7687,-6.7687,-6.7687,-6.7687,-6.7687,-6.7687,-6.7687,-6.7687,-6.7687,-6.7687,-6.7687,-6.7687,-6.8091,-6.8531,-6.8531,-6.8972,-6.9229,-6.8678,-6.8531,-6.8715,-6.9265,-6.9559,-6.9743,-6.9743,-7.0403,-7.0954,-7.0954,-7.1431,-7.1872,-7.2129,-7.2165,-7.2239,-7.2459,-7.2255,-7.1981,-7.1702,-7.1095,-7.0532,-7.0263,-6.8986,-6.8107,-6.7827,-6.7161,-6.6812,-6.6812,-6.6812,-6.6812,-6.6812,-6.6812,-6.6812,-6.6812,-6.6812,-6.6812,-6.6812,-6.6812,-6.6812,-6.5897,-6.5314,-6.4696,-6.4782,-6.3978,-6.3144,-6.3262,-6.3038,-6.278,-6.278,-6.278,-6.278,-6.278,-6.278,-6.278,-6.278,-6.278,-6.278,-6.278,-6.278,-6.2952,-6.3282,-6.3759,-6.4347,-6.4971,-6.5925,-6.6623,-6.6953,-6.743,-6.7687,-6.7687,-6.7687,-6.7687,-6.7687,-6.7687,-6.7687,-6.7687,-6.7687,-6.7687,-6.7687,-6.8017,-6.8164,-6.8164,-6.7834,-6.7687,-6.7687,-6.7687,-6.7687,-6.7687,-6.7687,-6.7687,-6.7687,-6.7687,-6.7687,-6.7687,-6.7687,-6.7687,-6.7687,-6.7687,-6.7687,-6.7687,-6.7687,-6.7687,-6.7787,-6.8091,-6.8164,-6.8238,-6.8568,-6.9009,-6.9376,-6.9376,-6.9743,-6.9963,-6.9486,-6.9376,-6.9522,-7.0,-7.033,-7.0587,-7.0587,-7.1248,-7.1798,-7.1798,-7.2202,-7.2496,-7.2496,-7.2496,-7.2496,-7.2496,-7.2496,-7.238,-7.1981,-7.1448,-7.08,-6.9987,-6.891,-6.8068,-6.7668,-6.712,-6.6812,-6.6812,-6.6812,-6.6812,-6.6812,-6.6812,-6.6812,-6.6812,-6.6812,-6.6812,-6.6812,-6.6812,-6.6812,-6.5897,-6.5527,-6.5003,-6.45,-6.3975,-6.3385,-6.2892,-6.278,-6.278,-6.278,-6.278,-6.278,-6.278,-6.278,-6.278,-6.278,-6.278,-6.278,-6.278,-6.2879,-6.3209,-6.4016,-6.4237,-6.4897,-6.6366,-6.6549,-6.6916,-6.7677,-6.7687,-6.7687,-6.7687,-6.7687,-6.7687,-6.7687,-6.7687,-6.7687,-6.7687,-6.776,-6.7797,-6.7797,-6.8605,-6.9009,-6.8972,-6.8238,-6.7907,-6.7907,-6.7907,-6.7907,-6.7907,-6.7834,-6.7797,-6.7797,-6.7724,-6.7687,-6.7687,-6.7687,-6.7724,-6.7797,-6.7797,-6.7834,-6.7907,-6.7907,-6.7907,-6.8054,-6.8788,-6.9009,-6.9155,-6.9889,-7.0146,-7.022,-7.022,-7.0257,-7.033,-7.033,-7.0257,-7.022,-7.0293,-7.0881,-7.1403,-7.1403,-7.2018,-7.2496,-7.2496,-7.2496,-7.2496,-7.2496,-7.2496,-7.2496,-7.2496,-7.2496,-7.213,-7.1191,-7.0995,-7.0229,-6.8343,-6.818,-6.7776,-6.6854,-6.6812,-6.6812,-6.6812,-6.6812,-6.6812,-6.6812,-6.6812,-6.6812,-6.6812,-6.6812,-6.6812,-6.6812,-6.6812,-6.6812,-6.5897,-6.5527,-6.5003,-6.45,-6.368,-6.2941,-6.283,-6.278,-6.278,-6.278,-6.278,-6.278,-6.278,-6.278,-6.278,-6.278,-6.278,-6.278,-6.278,-6.3392,-6.387,-6.4053,-6.5191,-6.6109,-6.6476,-6.7063,-6.7504,-6.7687,-6.7687,-6.7687,-6.7687,-6.7687,-6.7687,-6.7687,-6.7687,-6.7687,-6.7687,-6.8311,-6.8641,-6.8641,-6.9449,-6.9853,-6.9853,-6.9669,-6.9559,-6.9559,-6.9559,-6.9559,-6.9522,-6.8898,-6.8641,-6.8568,-6.7944,-6.7687,-6.7687,-6.7687,-6.8091,-6.8641,-6.8641,-6.9045,-6.9559,-6.9559,-6.9559,-6.9596,-6.9779,-6.9853,-6.9889,-7.0036,-7.055,-7.1064,-7.1064,-7.1505,-7.1982,-7.1982,-7.1505,-7.1211,-7.1835,-7.2129,-7.2239,-7.2239,-7.2386,-7.2496,-7.2496,-7.2496,-7.2496,-7.2496,-7.2496,-7.2496,-7.2496,-7.2496,-7.213,-7.1191,-7.0434,-6.9494,-6.8305,-6.7541,-6.7029,-6.6812,-6.6812,-6.6812,-6.6812,-6.6812,-6.6812,-6.6812,-6.6812,-6.6812,-6.6812,-6.6812,-6.6812,-6.6812,-6.6812,-6.6812,-6.5897,-6.5344,-6.459,-6.3813,-6.3215,-6.278,-6.278,-6.278,-6.278,-6.278,-6.278,-6.278,-6.278,-6.278,-6.278,-6.278,-6.278,-6.2952,-6.3356,-6.3796,-6.4383,-6.5154,-6.5999,-6.6659,-6.7026,-6.743,-6.7687,-6.7687,-6.7687,-6.7687,-6.7687,-6.7687,-6.7687,-6.7687,-6.7687,-6.7871,-6.8274,-6.8678,-6.9082,-6.9486,-7.0293,-7.0881,-7.1211,-7.044,-7.011,-7.011,-7.011,-7.011,-7.0073,-6.9633,-6.9486,-6.9412,-6.9009,-6.8825,-6.8825,-6.8825,-6.9119,-6.9486,-6.9486,-6.9743,-7.011,-7.011,-7.011,-7.0183,-7.055,-7.066,-7.077,-7.1138,-7.1541,-7.1872,-7.1872,-7.2202,-7.2496,-7.2496,-7.2202,-7.1982,-7.2422,-7.2496,-7.2496,-7.2496,-7.2496,-7.2496,-7.2496,-7.2496,-7.2496,-7.2496,-7.2496,-7.2496,-7.2496,-7.2101,-7.148,-7.0535,-6.9566,-6.8607,-6.7622,-6.7078,-6.6812,-6.6812,-6.6812,-6.6812,-6.6812,-6.6812,-6.6812,-6.6812,-6.6812,-6.6812,-6.6812,-6.6812,-6.6812,-6.6812,-6.6812,-6.6812,-6.5768,-6.5105,-6.4158,-6.3191,-6.288,-6.278,-6.278,-6.278,-6.278,-6.278,-6.278,-6.278,-6.278,-6.278,-6.278,-6.278,-6.2952,-6.3282,-6.398,-6.4347,-6.5007,-6.6329,-6.6623,-6.6953,-6.7614,-6.7687,-6.7687,-6.7687,-6.7687,-6.7687,-6.7687,-6.7687,-6.776,-6.7907,-6.7907,-6.8274,-6.9119,-6.9265,-6.9669,-7.033,-7.1138,-7.1872,-7.2459,-7.1101,-7.0513,-7.0513,-7.0513,-7.0513,-7.0513,-7.0367,-7.0293,-7.0293,-7.0146,-7.011,-7.011,-7.011,-7.0183,-7.0293,-7.0293,-7.0403,-7.0513,-7.0513,-7.0513,-7.0624,-7.1321,-7.1541,-7.1651,-7.2312,-7.2496,-7.2496,-7.2496,-7.2496,-7.2496,-7.2496,-7.2496,-7.2496,-7.2496,-7.2496,-7.2496,-7.2496,-7.2496,-7.2496,-7.2496,-7.2496,-7.2496,-7.2496,-7.2496,-7.2438,-7.2285,-7.1573,-7.0668,-6.9566,-6.8685,-6.7827,-6.6896,-6.6812,-6.6812,-6.6812,-6.6812,-6.6812,-6.6812,-6.6812,-6.6812,-6.6812,-6.6812,-6.6812,-6.6812,-6.6812,-6.6812,-6.6812,-6.6812,-6.6812,-6.523,-6.4799,-6.4236,-6.3637,-6.3144,-6.278,-6.278,-6.278,-6.278,-6.278,-6.278,-6.278,-6.278,-6.278,-6.278,-6.278,-6.3429,-6.398,-6.4053,-6.5301,-6.6256,-6.6476,-6.71,-6.7577,-6.7687,-6.7687,-6.7687,-6.7687,-6.7687,-6.7687,-6.7687,-6.7687,-6.8017,-6.8715,-6.8752,-6.9119,-6.9926,-7.0624,-7.0999,-7.1174,-7.1982,-7.2422,-7.2496,-7.2275,-7.2165,-7.2165,-7.2165,-7.2165,-7.2129,-7.1431,-7.1138,-7.1064,-7.0367,-7.011,-7.011,-7.011,-7.055,-7.1138,-7.1138,-7.1615,-7.2165,-7.2165,-7.2165,-7.2202,-7.2312,-7.2349,-7.2349,-7.2459,-7.2496,-7.2496,-7.2496,-7.2496,-7.2496,-7.2496,-7.2496,-7.2496,-7.2496,-7.2496,-7.2496,-7.2496,-7.2496,-7.2496,-7.2496,-7.2496,-7.2496,-7.2496,-7.2496,-7.2226,-7.1417,-7.1191,-7.0398,-6.861,-6.8266,-6.7827,-6.6896,-6.6812,-6.6812,-6.6812,-6.6812,-6.6812,-6.6812,-6.6812,-6.6812,-6.6812,-6.6812,-6.6812,-6.6812,-6.6812,-6.6812,-6.6812,-6.6812,-6.6812,-6.5424,-6.5557,-6.5532,-6.4749,-6.4365,-6.42,-6.42,-6.42,-6.42,-6.42,-6.42,-6.4053,-6.3613,-6.3539,-6.3686,-6.4127,-6.453,-6.4934,-6.5375,-6.6035,-6.6659,-6.71,-6.7467,-6.7687,-6.7687,-6.7687,-6.7687,-6.7687,-6.7687,-6.7687,-6.7687,-6.8128,-6.8531,-6.8898,-6.9339,-6.9963,-7.077,-7.1109,-7.1513,-7.1982,-7.2349,-7.2496,-7.2496,-7.2496,-7.2496,-7.2496,-7.2496,-7.2496,-7.2459,-7.2129,-7.1982,-7.1945,-7.1578,-7.1431,-7.1431,-7.1431,-7.1688,-7.1982,-7.1982,-7.2202,-7.2496,-7.2496,-7.2496,-7.2496,-7.2496,-7.2496,-7.2496,-7.2496,-7.2496,-7.2496,-7.2496,-7.2496,-7.2496,-7.2496,-7.2496,-7.2496,-7.2496,-7.2496,-7.2496,-7.2496,-7.2496,-7.2496,-7.2496,-7.2496,-7.2496,-7.2496,-7.2041,-7.1573,-7.1159,-7.016,-6.9133,-6.8305,-6.7708,-6.7284,-6.6854,-6.6812,-6.6812,-6.6812,-6.6812,-6.6812,-6.6812,-6.6812,-6.6812,-6.6812,-6.6812,-6.6812,-6.6812,-6.6812,-6.6812,-6.6812,-6.6812,-6.6812,-6.559,-6.6049,-6.6373,-6.5508,-6.5301,-6.5301,-6.5301,-6.5301,-6.5301,-6.5301,-6.5301,-6.5191,-6.4787,-6.453,-6.4604,-6.5191,-6.5485,-6.5815,-6.6402,-6.6659,-6.7026,-6.7614,-6.7687,-6.7687,-6.7687,-6.7687,-6.7687,-6.7687,-6.7687,-6.7797,-6.7981,-6.8568,-6.9082,-6.9522,-7.011,-7.0807,-7.1615,-7.1615,-7.1908,-7.2496,-7.2496,-7.2496,-7.2496,-7.2496,-7.2496,-7.2496,-7.2496,-7.2496,-7.2496,-7.2496,-7.2496,-7.2496,-7.2496,-7.2496,-7.2496,-7.2496,-7.2496,-7.2496,-7.2496,-7.2496,-7.2496,-7.2496,-7.2496,-7.2496,-7.2496,-7.2496,-7.2496,-7.2496,-7.2496,-7.2496,-7.2496,-7.2496,-7.2496,-7.2496,-7.2496,-7.2496,-7.2496,-7.2496,-7.2496,-7.2496,-7.2496,-7.2496,-7.2496,-7.2496,-7.2496,-7.2496,-7.1702,-7.0995,-7.0767,-6.9242,-6.8107,-6.7866,-6.7243,-6.6812,-6.6812,-6.6812,-6.6812,-6.6812,-6.6812,-6.6812,-6.6812,-6.6812,-6.6812,-6.6812,-6.6812,-6.6812,-6.6812,-6.6812,-6.6812,-6.6812,-6.6812,-6.6812,-6.5434,-6.5668,0.0,-6.5419,-6.5301,-6.5301,-6.5301,-6.5301,-6.5301,-6.5301,-6.5301,-6.5521,-6.6256,-6.5742,-6.5264,-6.5301,-6.5925,-6.6439,-6.6476,-6.7136,-6.7677,-6.7687,-6.7687,-6.7687,-6.7687,-6.7687,-6.7687,-6.7687,-6.7687,-6.8017,-6.8788,-6.8898,-6.9596,-7.1109,-7.1219,-7.1615,-7.2422,-7.2459,-7.2459,-7.2496,-7.2496,-7.2496,-7.2496,-7.2496,-7.2496,-7.2496,-7.2496,-7.2496,-7.2496,-7.2496,-7.2496,-7.2496,-7.2496,-7.2496,-7.2496,-7.2496,-7.2496,-7.2496,-7.2496,-7.2496,-7.2496,-7.2496,-7.2496,-7.2496,-7.2496,-7.2496,-7.2496,-7.2496,-7.2496,-7.2496,-7.2496,-7.2496,-7.2496,-7.2496,-7.2496,-7.2496,-7.2496,-7.2496,-7.2496,-7.2496,-7.2496,-7.2496,-7.2496,-7.2496,-7.2496,-7.2496,-7.1702,-7.0767,-6.9884,-6.8835,-6.7866,-6.6946,-6.6812,-6.6812,-6.6812,-6.6812,-6.6812,-6.6812,-6.6812,-6.6812,-6.6812,-6.6812,-6.6812,-6.6812,-6.6812,-6.6812,-6.6812,-6.6812,-6.6812,-6.6812,-6.6812,-6.6812,-6.6662,-6.7057,0.0,-6.699,-6.6843,-6.6843,-6.6843,-6.6843,-6.6843,-6.6843,-6.6843,-6.6916,-6.721,-6.6623,-6.6256,-6.6769,-6.7063,-6.7247,-6.7247,-6.7504,-6.7687,-6.7687,-6.7687,-6.7687,-6.7687,-6.7687,-6.7687,-6.7687,-6.8164,-6.8605,-6.8898,-6.9889,-7.0669,-7.1256,-7.1798,-7.2202,-7.2496,-7.2496,-7.2496,-7.2496,-7.2496,-7.2496,-7.2496,-7.2496,-7.2496,-7.2496,-7.2496,-7.2496,-7.2496,-7.2496,-7.2496,-7.2496,-7.2496,-7.2496,-7.2496,-7.2496,-7.2496,-7.2496,-7.2496,-7.2496,-7.2496,-7.2496,-7.2496,-7.2496,-7.2496,-7.2496,-7.2496,-7.2496,-7.2496,-7.2496,-7.2496,-7.2496,-7.2496,-7.2496,-7.2496,-7.2496,-7.2496,-7.2496,-7.2496,-7.2496,-7.2496,-7.2496,-7.2496,-7.2011,-7.1604,-7.1604,-7.0227,-6.9096,-6.8798,-6.7906,-6.7161,-6.6854,-6.6812,-6.6812,-6.6812,-6.6812,-6.6812,-6.6812,-6.6812,-6.6812,-6.6812,-6.6812,-6.6812,-6.6812,-6.6812,-6.6812,-6.6812,-6.6812,-6.6812,-6.6812,-6.6812,-6.6812,-6.7455,-6.7802,-6.8148,-6.7784,-6.7687,-6.7687,-6.7687,-6.7687,-6.7687,-6.7687,-6.7687,-6.7687,-6.7687,-6.7247,-6.7063,-6.7614,-6.7687,-6.7687,-6.7687,-6.7687,-6.7687,-6.7687,-6.7687,-6.7687,-6.7687,-6.7687,-6.7797,-6.8091,-6.8605,-6.9155,-6.9706,-7.0734,-7.1403,-7.1688,-7.2239,-7.2496,-7.2496,-7.2496,-7.2496,-7.2496,-7.2496,-7.2496,-7.2496,-7.2496,-7.2496,-7.2496,-7.2496,-7.2496,-7.2496,-7.2496,-7.2496,-7.2496,-7.2496,-7.2496,-7.2496,-7.2496,-7.2496,-7.2496,-7.2496,-7.2496,-7.2496,-7.2496,-7.2496,-7.2496,-7.2496,-7.2496,-7.2496,-7.2496,-7.2496,-7.2496,-7.2496,-7.2496,-7.2496,-7.2496,-7.2496,-7.2496,-7.2496,-7.2496,-7.2496,-7.2496,-7.2496,-7.2496,-7.2496,-7.1732,-7.1127,-7.1127,-6.9459,-6.8189,-6.8189,-6.7373,-6.6812,-6.6812,-6.6812,-6.6812,-6.6812,-6.6812,-6.6812,-6.6812,-6.6812,-6.6812,-6.6812,-6.6812,-6.6812,-6.6812,-6.6812,-6.6812,-6.6812,-6.6812,-6.6812,-6.6812,-6.6812,-6.6812,0.0,0.0,0.0,-6.7687,-6.7687,-6.7687,-6.7687,-6.7687,-6.7687,-6.7687,-6.7687,-6.7687,-6.7687,-6.7687,-6.7687,-6.7687,-6.7687,-6.7687,-6.7687,-6.7687,-6.7687,-6.7687,-6.7687,-6.7714,-6.7724,-6.7751,-6.8054,-6.8862,-6.8972,-6.9669,-7.1219,-7.1293,-7.1688,-7.2496,-7.2496,-7.2496,-7.2496,-7.2496,-7.2496,-7.2496,-7.2496,-7.2496,-7.2496,-7.2496,-7.2496,-7.2496,-7.2496,-7.2496,-7.2496,-7.2496,-7.2496,-7.2496,-7.2496,-7.2496,-7.2496,-7.2496,-7.2496,-7.2496,-7.2496,-7.2496,-7.2496,-7.2496,-7.2496,-7.2496,-7.2496,-7.2496,-7.2496,-7.2496,-7.2496,-7.2496,-7.2496,-7.2496,-7.2496,-7.2496,-7.2496,-7.2496,-7.2496,-7.2467,-7.2467,-7.2467,-7.2467,-7.2438,-7.2438,-7.1635,-7.0995,-7.0995,-6.9387,-6.815,-6.815,-6.7373,-6.6812,-6.6812,-6.6812,-6.6812,-6.6812,-6.6812,-6.6812,-6.6812,-6.6812,-6.6812,-6.6812,-6.6812,-6.6812,-6.6812,-6.6812,-6.6812,-6.6812,-6.6812,-6.6812,-6.6812,-6.6812,-6.6812,-6.7687,0.0,0.0,0.0,0.0,0.0,-6.7687,-6.7687,-6.7687,-6.7687,-6.7687,-6.7687,-6.7687,-6.7687,-6.7687,-6.7687,-6.7687,-6.7687,-6.7687,-6.7687,-6.7687,-6.7687,-6.7687,-6.7907,-6.8495,-6.8568,-6.8898,-6.9706,-7.033,-7.0844,-7.1256,-7.1872,-7.2275,-7.2496,-7.2496,-7.2496,-7.2496,-7.2496,-7.2496,-7.2496,-7.2496,-7.2496,-7.2496,-7.2496,-7.2496,-7.2496,-7.2496,-7.2496,-7.2496,-7.2496,-7.2496,-7.2496,-7.2496,-7.2496,-7.2496,-7.2496,-7.2496,-7.2496,-7.2496,-7.2496,-7.2496,-7.2496,-7.2496,-7.2496,-7.2496,-7.2496,-7.2496,-7.2496,-7.2496,-7.2496,-7.2496,-7.2496,-7.2496,-7.2496,-7.2496,-7.2496,-7.2496,-7.1981,-7.148,-7.148,-7.148,-7.1255,-7.0601,-6.9672,-6.8986,-6.8986,-6.7985,-6.7202,-6.7202,-6.6946,-6.6812,-6.6812,-6.6812,-6.6812,-6.6812,-6.6812,-6.6812,-6.6812,-6.6812,-6.6812,-6.6812,-6.6812,-6.6812,-6.6812,-6.6812,-6.6812,-6.6812,-6.6812,-6.6812,-6.6812,-6.6812,-6.6812,-6.7687,-6.7687,-6.7687,-6.7687,0.0,0.0,-6.7687,-6.7687,-6.7687,-6.7687,-6.7687,-6.7687,-6.7687,-6.7687,-6.7687,-6.7687,-6.7687,-6.7687,-6.7687,-6.7687,-6.7687,-6.7687,-6.7981,-6.8385,-6.8862,-6.9192,-6.9743,-7.055,-7.1064,-7.1439,-7.1798,-7.2275,-7.2496,-7.2496,-7.2496,-7.2496,-7.2496,-7.2496,-7.2496,-7.2496,-7.2496,-7.2496,-7.2496,-7.2496,-7.2496,-7.2496,-7.2496,-7.2496,-7.2496,-7.2496,-7.2496,-7.2496,-7.2496,-7.2496,-7.2496,-7.2496,-7.2496,-7.2496,-7.2496,-7.2496,-7.2496,-7.2496,-7.2496,-7.2496,-7.2496,-7.2496,-7.2496,-7.2496,-7.2496,-7.2496,-7.2496,-7.2496,-7.2409,-7.2011,-7.1951,-7.1794,-7.1417,-7.0901,-7.0635,-7.0995,-7.0767,-7.0366,-6.9814,-6.8873,-6.8189,-6.8189,-6.7414,-6.6812,-6.6812,-6.6812,-6.6812,-6.6812,-6.6812,-6.6812,-6.6812,-6.6812,-6.6812,-6.6812,-6.6812,-6.6812,-6.6812,-6.6812,-6.6812,-6.6812,-6.6812,-6.6812,-6.6812,-6.6812,-6.6812,-6.6812,-6.6812,-6.6812,-6.7687,-6.7687,-6.7687,-6.7687,-6.7687,0.0,-6.7687,-6.7687,-6.7687,-6.7687,-6.7687,-6.7687,-6.7687,-6.7687,-6.7687,-6.7687,-6.7687,-6.7687,-6.7687,-6.7687,-6.7724,-6.7797,-6.8458,-6.8972,-6.9155,-6.9816,-7.0587,-7.1394,-7.1431,-7.1762,-7.2459,-7.2496,-7.2496,-7.2496,-7.2496,-7.2496,-7.2496,-7.2496,-7.2496,-7.2496,-7.2496,-7.2496,-7.2496,-7.2496,-7.2496,-7.2496,-7.2496,-7.2496,-7.2496,-7.2496,-7.2496,-7.2496,-7.2496,-7.2496,-7.2496,-7.2496,-7.2496,-7.2496,-7.2496,-7.2496,-7.2496,-7.2496,-7.2496,-7.2496,-7.2496,-7.2496,-7.2496,-7.2496,-7.2496,-7.2496,-7.2496,-7.2438,-7.213,-7.1286,-7.1031,-7.0701,-6.9884,-6.9637,-6.9778,-7.0635,-7.0092,-6.9529,-6.9421,-6.861,-6.8068,-6.8068,-6.7332,-6.6812,-6.6812,-6.6812,-6.6812,-6.6812,-6.6812,-6.6812,-6.6812,-6.6812,-6.6812,-6.6812,-6.6812,-6.6812,-6.6812,-6.6812,-6.6812,-6.6812,-6.6812,-6.6812,-6.6812,-6.6812,-6.6812,-6.6812,-6.6812,-6.6812,-6.7687,-6.7687,-6.7687,-6.7687,-6.7687,0.0,-6.7687,-6.7687,-6.7687,-6.7687,-6.7687,-6.7687,-6.7687,-6.7687,-6.7687,-6.7687,-6.7687,-6.7687,-6.7687,-6.7687,-6.7944,-6.8605,-6.8788,-6.9412,-7.0734,-7.0991,-7.1394,-7.2202,-7.2275,-7.2349,-7.2496,-7.2496,-7.2496,-7.2496,-7.2496,-7.2496,-7.2496,-7.2496,-7.2496,-7.2496,-7.2496,-7.2496,-7.2496,-7.2496,-7.2496,-7.2496,-7.2496,-7.2496,-7.2496,-7.2496,-7.2496,-7.2496,-7.2496,-7.2496,-7.2496,-7.2496,-7.2496,-7.2496,-7.2496,-7.2496,-7.2496,-7.2496,-7.2496,-7.2496,-7.2496,-7.2496,-7.2496,-7.2496,-7.2496,-7.2496,-7.2496,-7.1951,-7.1318,-7.1159,-7.0535,-6.9919,-6.9743,-6.9058,-6.8534,-6.8726,-6.861,-6.8262,-6.7495,-6.7202,-6.7037,-6.7037,-6.6904,-6.6812,-6.6812,-6.6812,-6.6812,-6.6812,-6.6812,-6.6812,-6.6812,-6.6812,-6.6812,-6.6812,-6.6812,-6.6812,-6.6812,-6.6812,-6.6812,-6.6812,-6.6812,-6.6812,-6.6812,-6.6812,-6.6812,-6.6812,-6.6812,-6.6812,-6.7687,-6.7687,-6.7687,-6.7687,-6.7687,0.0,0.0,-6.7687,-6.7687,-6.7687,-6.7687,-6.7687,-6.7687,-6.7687,-6.7834,-6.8238,-6.8311,-6.8421,-6.8825,-6.8531,-6.8605,-6.9412,-6.9853,-7.044,-7.1219,-7.1688,-7.2092,-7.2459,-7.2496,-7.2496,-7.2496,-7.2496,-7.2496,-7.2496,-7.2496,-7.2496,-7.2496,-7.2496,-7.2496,-7.2496,-7.2496,-7.2496,-7.2496,-7.2496,-7.2496,-7.2496,-7.2496,-7.2496,-7.2496,-7.2496,-7.2496,-7.2496,-7.2496,-7.2496,-7.2496,-7.2496,-7.2496,-7.2496,-7.2496,-7.2496,-7.2496,-7.2496,-7.2496,-7.2496,-7.2496,-7.2496,-7.2496,-7.2496,-7.2496,-7.2409,-7.1915,-7.148,-7.0865,-6.9883,-6.9278,-6.8798,-6.8374,-6.7861,-6.7501,-6.7501,-6.7501,-6.7373,-6.6896,-6.6812,-6.6812,-6.6812,-6.6812,-6.6812,-6.6812,-6.6812,-6.6812,-6.6812,-6.6812,-6.6812,-6.6812,-6.6812,-6.6812,-6.6812,-6.6812,-6.6812,-6.6812,-6.6812,-6.6812,-6.6812,-6.6812,-6.6812,-6.6812,-6.6812,-6.6812,-6.6812,-6.6812,-6.6812,-6.7687,-6.7687,-6.7687,-6.7687,-6.7687,-6.7687,0.0,0.0,0.0,-6.7907,-6.7907,-6.7981,0.0,-6.8164,-6.8274,-6.8605,-6.8935,-6.9302,-6.9816,-6.9596,-6.9596,-7.0257,-7.0917,-7.1329,-7.1541,-7.2129,-7.2496,-7.2496,-7.2496,-7.2496,-7.2496,-7.2496,-7.2496,-7.2496,-7.2496,-7.2496,-7.2496,-7.2496,-7.2496,-7.2496,-7.2496,-7.2496,-7.2496,-7.2496,-7.2496,-7.2496,-7.2496,-7.2496,-7.2496,-7.2496,-7.2496,-7.2496,-7.2496,-7.2496,-7.2496,-7.2496,-7.2496,-7.2496,-7.2496,-7.2496,-7.2496,-7.2496,-7.2496,-7.2496,-7.2496,-7.2496,-7.2467,-7.2285,-7.2226,-7.2011,-7.1095,-7.0701,-7.016,-6.8537,-6.8068,-6.7708,-6.6946,-6.6812,-6.6812,-6.6812,-6.6812,-6.6812,-6.6812,-6.6812,-6.6812,-6.6812,-6.6812,-6.6812,-6.6812,-6.6812,-6.6812,-6.6812,-6.6812,-6.6812,-6.6812,-6.6812,-6.6812,-6.6812,-6.6812,-6.6812,-6.6812,-6.6812,-6.6812,-6.6812,-6.6812,-6.6812,-6.6812,-6.6812,-6.6812,-6.6812,-6.6812,-6.6812,-6.7687,-6.7687,-6.7687,-6.7687,-6.7687,-6.7687,-6.7687,0.0,-6.7907,-6.8605,0.0,-6.8972,-6.9706,0.0,0.0,-6.8054,-6.9009,-6.9743,-6.9119,-7.0183,-7.1036,-7.1174,-7.1219,-7.1578,-7.2312,-7.2459,-7.2496,-7.2496,-7.2496,-7.2496,-7.2496,-7.2496,-7.2496,-7.2496,-7.2496,-7.2496,-7.2496,-7.2496,-7.2496,-7.2496,-7.2496,-7.2496,-7.2496,-7.2496,-7.2496,-7.2496,-7.2496,-7.2496,-7.2496,-7.2496,-7.2496,-7.2496,-7.2496,-7.2496,-7.2496,-7.2496,-7.2496,-7.2496,-7.2496,-7.2496,-7.2496,-7.2496,-7.2496,-7.2496,-7.2496,-7.2496,-7.2314,-7.1511,-7.1255,-7.1063,-7.0127,-6.9205,-6.8496,-6.8227,-6.7582,-6.6904,-6.6812,-6.6812,-6.6812,-6.6812,-6.6812,-6.6812,-6.6812,-6.6812,-6.6812,-6.6812,-6.6812,-6.6812,-6.6812,-6.6812,-6.6812,-6.6812,-6.6812,-6.6812,-6.6812,-6.6812,-6.6812,-6.6812,-6.6812,-6.6812,-6.6812,-6.6812,-6.6812,-6.6812,-6.6812,-6.6812,-6.6812,-6.6812,-6.6812,-6.6812,-6.6812,-6.6812,-6.7687,-6.7687,-6.7797,-6.8274,-6.8385,-6.8531,-6.8972,-6.9082,-6.9192,-6.9522,0.0,0.0,0.0,0.0,0.0,0.0,-7.0367,-7.0844,-7.0991,-7.1578,-7.2018,-7.2018,-7.2018,-7.2129,-7.2459,-7.2496,-7.2496,-7.2496,-7.2496,-7.2496,-7.2496,-7.2496,-7.2496,-7.2496,-7.2496,-7.2496,-7.2496,-7.2496,-7.2496,-7.2496,-7.2496,-7.2496,-7.2496,-7.2496,-7.2496,-7.2496,-7.2496,-7.2496,-7.2496,-7.2496,-7.2496,-7.2496,-7.2496,-7.2496,-7.2496,-7.2496,-7.2496,-7.2496,-7.2496,-7.2496,-7.2496,-7.2496,-7.213,-7.1702,-7.1702,-7.1702,-7.148,-7.0568,-7.0668,-7.0767,-6.9241,-6.8496,-6.8068,-6.7501,-6.7078,-6.6812,-6.6812,-6.6812,-6.6812,-6.6812,-6.6812,-6.6812,-6.6812,-6.6812,-6.6812,-6.6812,-6.6812,-6.6812,-6.6812,-6.6812,-6.6812,-6.6812,-6.6812,-6.6812,-6.6812,-6.6812,-6.6812,-6.6812,-6.6812,-6.6812,-6.6812,-6.6812,-6.6812,-6.6812,-6.6812,-6.6812,-6.6812,-6.6812,-6.6812,-6.6812,-6.6812,-6.6812,-6.8017,-6.8164,-6.8495,-6.9082,-6.9229,-6.9376,-6.9963,-7.011,-7.0146,-7.0367,-7.044,0.0,0.0,0.0,-7.0807,-7.0954,0.0,-7.1688,-7.1835,-7.2239,-7.2496,-7.2496,-7.2496,-7.2496,-7.2496,-7.2496,-7.2496,-7.2496,-7.2496,-7.2496,-7.2496,-7.2496,-7.2496,-7.2496,-7.2496,-7.2496,-7.2496,-7.2496,-7.2496,-7.2496,-7.2496,-7.2496,-7.2496,-7.2496,-7.2496,-7.2496,-7.2496,-7.2496,-7.2496,-7.2496,-7.2496,-7.2496,-7.2496,-7.2496,-7.2496,-7.2496,-7.2496,-7.2496,-7.2496,-7.2496,-7.2467,-7.2197,-7.1824,-7.1417,-7.0865,-7.0898,-7.0832,-6.9637,-6.9778,-6.9918,-6.8262,-6.7827,-6.7628,-6.6946,-6.6812,-6.6812,-6.6812,-6.6812,-6.6812,-6.6812,-6.6812,-6.6812,-6.6812,-6.6812,-6.6812,-6.6812,-6.6812,-6.6812,-6.6812,-6.6812,-6.6812,-6.6812,-6.6812,-6.6812,-6.6812,-6.6812,-6.6812,-6.6812,-6.6812,-6.6812,-6.6812,-6.6812,-6.6812,-6.6812,-6.6812,-6.6812,-6.6812,-6.6812,-6.6812,-6.6812,-6.6812,-6.6812,-6.8862,-6.9412,-7.0036,-7.0036,-7.0073,-7.0073,-7.0073,-7.011,-7.033,-7.1101,-7.1284,-7.1505,-7.2275,-7.2422,-7.1908,-7.0403,-7.1468,0.0,0.0,-7.1505,-7.2496,-7.2496,-7.2496,-7.2496,-7.2496,-7.2496,-7.2496,-7.2496,-7.2496,-7.2496,-7.2496,-7.2496,-7.2496,-7.2496,-7.2496,-7.2496,-7.2496,-7.2496,-7.2496,-7.2496,-7.2496,-7.2496,-7.2496,-7.2496,-7.2496,-7.2496,-7.2496,-7.2496,-7.2496,-7.2496,-7.2496,-7.2496,-7.2496,-7.2496,-7.2496,-7.2496,-7.2496,-7.2496,-7.2496,-7.2496,-7.2343,-7.1448,-7.1763,-7.2101,-7.0298,-7.04,-7.0701,-6.8763,-6.8266,-6.8068,-6.7078,-6.6854,-6.6854,-6.6812,-6.6812,-6.6812,-6.6812,-6.6812,-6.6812,-6.6812,-6.6812,-6.6812,-6.6812,-6.6812,-6.6812,-6.6812,-6.6812,-6.6812,-6.6812,-6.6812,-6.6812,-6.6812,-6.6812,-6.6812,-6.6812,-6.6812,-6.6812,-6.6812,-6.6812,-6.6812,-6.6812,-6.6812,-6.6812,-6.6812,-6.6812,-6.6812,-6.6812,-6.6812,-6.6812,-6.6812,-6.6812,-6.6812,-6.9706,-6.9889,-7.022,-7.077,-7.0881,-7.1027,-7.1578,-7.1688,-7.1762,-7.2055,-7.2092,-7.2202,-7.2459,-7.2496,-7.2312,-7.1798,-7.2129,-7.2312,0.0,-7.2165,-7.2496,-7.2496,-7.2496,-7.2496,-7.2496,-7.2496,-7.2496,-7.2496,-7.2496,-7.2496,-7.2496,-7.2496,-7.2496,-7.2496,-7.2496,-7.2496,-7.2496,-7.2496,-7.2496,-7.2496,-7.2496,-7.2496,-7.2496,-7.2496,-7.2496,-7.2496,-7.2496,-7.2496,-7.2496,-7.2496,-7.2496,-7.2496,-7.2496,-7.2496,-7.2496,-7.2496,-7.2496,-7.2496,-7.2496,-7.2071,-7.1604,-7.1951,-7.0962,-6.9672,-6.9672,-6.9458,-6.8912,-6.7622,-6.7742,-6.8024,-6.7071,-6.6812,-6.6812,-6.6812,-6.6812,-6.6812,-6.6812,-6.6812,-6.6812,-6.6812,-6.6812,-6.6812,-6.6812,-6.6812,-6.6812,-6.6812,-6.6812,-6.6812,-6.6812,-6.6812,-6.6812,-6.6812,-6.6812,-6.6812,-6.6812,-6.6812,-6.6812,-6.6812,-6.6812,-6.6812,-6.6812,-6.6812,-6.6812,-6.6812,-6.6812,-6.6812,-6.6812,-6.6812,-6.6812,-6.6812,-6.6812,-6.6812,-7.055,-7.0734,-7.1064,-7.1615,-7.1725,-7.1872,-7.2386,-7.2496,-7.2496,-7.2496,-7.2496,-7.2496,-7.2496,-7.2496,-7.2496,0.0,0.0,0.0,0.0,-7.2496,-7.2496,-7.2496,-7.2496,-7.2496,-7.2496,-7.2496,-7.2496,-7.2496,-7.2496,-7.2496,-7.2496,-7.2496,-7.2496,-7.2496,-7.2496,-7.2496,-7.2496,-7.2496,-7.2496,-7.2496,-7.2496,-7.2496,-7.2496,-7.2496,-7.2496,-7.2496,-7.2496,-7.2496,-7.2496,-7.2496,-7.2496,-7.2496,-7.2496,-7.2496,-7.2496,-7.2496,-7.2496,-7.2496,-7.2496,-7.2101,-7.1573,-7.1511,-7.0465,-6.9206,-6.9168,-6.8723,-6.793,-6.681,-6.7124,-6.7513,-6.6302,-6.6406,-6.6812,-6.6812,-6.6812,-6.6812,-6.6812,-6.6812,-6.6812,-6.6812,-6.6812,-6.6812,-6.6812,-6.6812,-6.6812,-6.6812,-6.6812,-6.6812,-6.6812,-6.6812,-6.6812,-6.6812,-6.6812,-6.6812,-6.6812,-6.6812,-6.6812,-6.6812,-6.6812,-6.6812,-6.6812,-6.6812,-6.6812,-6.6812,-6.6812,-6.6812,-6.6812,-6.6812,-6.6812,-6.6812,-6.6812,-6.6812]},{"header":{"parameterUnit":"m.s-1","parameterCategory":1,"la1":30.6,"la2":29.2853,"lo1":-89.7004,"lo2":-87.6739,"dy":0.0162,"dx":0.0183,"nx":112,"ny":82,"refTime":"2023-04-01T06:00:00:Z","depth":0,"parameterNumber":3,"parameterNumberName":"V-component_of_WINDS"},"data":[0.0,0.0,0.0,0.0,0.0,0.0,0.0,0.0,0.0,0.0,0.0,0.0,0.0,0.0,0.0,0.0,0.0,0.0,0.0,0.0,0.0,0.0,0.0,0.0,0.0,0.0,0.0,0.0,0.0,0.0,0.0,0.0,0.0,0.0,0.0,0.0,0.0,0.0,0.0,0.0,0.0,0.0,0.0,0.0,0.0,0.0,0.0,0.0,0.0,0.0,0.0,0.0,0.0,0.0,0.0,0.0,0.0,0.0,0.0,0.0,0.0,0.0,0.0,0.0,0.0,0.0,0.0,0.0,0.0,0.0,0.0,0.0,0.0,0.0,0.0,0.0,0.0,0.0,0.0,0.0,0.0,0.0,0.0,0.0,0.0,0.0,0.0,0.0,0.0,0.0,1.7458,1.8019,1.8089,1.8089,1.8089,1.9565,1.9704,1.7739,0.0,0.0,0.0,0.0,0.0,0.0,0.0,0.0,0.0,0.0,0.0,0.0,0.0,0.0,0.0,0.0,0.0,0.0,0.0,0.0,0.0,0.0,0.0,0.0,0.0,0.0,0.0,0.0,0.0,0.0,0.0,0.0,0.0,0.0,0.0,0.0,0.0,0.0,0.0,0.0,0.0,0.0,0.0,0.0,0.0,0.0,0.0,0.0,0.0,0.0,0.0,0.0,0.0,0.0,0.0,0.0,0.0,0.0,0.0,0.0,0.0,0.0,0.0,0.0,0.0,0.0,0.0,0.0,0.0,0.0,0.0,0.0,0.0,0.0,0.0,0.0,0.0,0.0,0.0,0.0,0.0,0.0,0.0,0.0,0.0,0.0,0.0,0.0,0.0,0.0,0.0,0.0,0.0,0.0,0.0,0.0,0.0,0.0,0.0,0.0,0.0,0.0,0.0,0.0,1.8438,2.1665,2.2022,2.2022,2.2022,2.2297,2.1665,1.9773,0.0,0.0,0.0,0.0,0.0,0.0,0.0,0.0,0.0,0.0,0.0,0.0,0.0,0.0,0.0,0.0,0.0,0.0,0.0,0.0,0.0,0.0,0.0,0.0,0.0,0.0,0.0,0.0,0.0,0.0,0.0,0.0,0.0,0.0,0.0,0.0,0.0,0.0,0.0,0.0,0.0,0.0,0.0,0.0,0.0,0.0,0.0,0.0,0.0,0.0,0.0,0.0,0.0,0.0,0.0,0.0,0.0,0.0,0.0,0.0,0.0,0.0,0.0,0.0,0.0,0.0,0.0,0.0,0.0,0.0,0.0,0.0,0.0,0.0,0.0,0.0,0.0,0.0,0.0,0.0,0.0,0.0,0.0,0.0,0.0,0.0,0.0,0.0,0.0,0.0,0.0,0.0,0.0,0.0,0.0,0.0,0.0,0.0,0.0,0.0,0.0,0.0,0.0,1.9773,2.0963,2.2722,2.2928,2.2928,2.2928,2.2928,2.2503,2.1665,2.1596,0.0,0.0,0.0,0.0,0.0,0.0,0.0,0.0,0.0,0.0,0.0,0.0,0.0,0.0,0.0,0.0,0.0,0.0,0.0,0.0,0.0,0.0,0.0,0.0,0.0,0.0,0.0,0.0,0.0,0.0,0.0,0.0,0.0,0.0,0.0,0.0,0.0,0.0,0.0,0.0,0.0,0.0,0.0,0.0,0.0,0.0,0.0,0.0,0.0,0.0,0.0,0.0,0.0,0.0,0.0,0.0,0.0,0.0,0.0,0.0,0.0,0.0,0.0,0.0,0.0,0.0,0.0,0.0,0.0,0.0,0.0,0.0,0.0,0.0,0.0,0.0,0.0,0.0,0.0,0.0,0.0,0.0,0.0,0.0,0.0,0.0,0.0,0.0,0.0,0.0,0.0,0.0,0.0,0.0,0.0,0.0,0.0,0.0,0.0,0.0,0.0,0.0,2.2654,2.2928,2.2928,2.2928,2.2928,2.2928,2.2928,2.2928,2.2928,2.2928,0.0,0.0,0.0,0.0,0.0,0.0,0.0,0.0,0.0,0.0,0.0,0.0,0.0,0.0,0.0,0.0,0.0,0.0,0.0,0.0,0.0,0.0,0.0,0.0,0.0,0.0,0.0,0.0,0.0,0.0,0.0,0.0,0.0,0.0,0.0,0.0,0.0,0.0,0.0,0.0,0.0,0.0,0.0,0.0,0.0,0.0,0.0,0.0,0.0,0.0,0.0,0.0,0.0,0.0,0.0,0.0,0.0,0.0,0.0,0.0,0.0,0.0,0.0,0.0,0.0,0.0,0.0,0.0,0.0,0.0,0.0,0.0,0.0,0.0,0.0,0.0,0.0,0.0,0.0,0.0,0.0,0.0,0.0,0.0,0.0,0.0,0.0,0.0,0.0,0.0,0.0,0.0,0.0,0.0,0.0,0.0,0.0,0.0,0.0,0.0,0.0,0.0,2.1803,2.2928,2.2928,2.2928,2.2928,2.2928,2.2928,2.2928,2.2928,2.2928,0.0,0.0,0.0,0.0,0.0,0.0,0.0,0.0,0.0,0.0,0.0,0.0,0.0,0.0,0.0,0.0,0.0,0.0,0.0,0.0,0.0,0.0,0.0,0.0,0.0,0.0,0.0,0.0,0.0,0.0,0.0,0.0,0.0,0.0,0.0,0.0,0.0,0.0,0.0,0.0,0.0,0.0,0.0,0.0,0.0,0.0,0.0,0.0,0.0,0.0,0.0,0.0,0.0,0.0,0.0,0.0,0.0,0.0,0.0,0.0,0.0,0.0,0.0,0.0,0.0,0.0,0.0,0.0,0.0,0.0,0.0,0.0,0.0,0.0,0.0,0.0,0.0,0.0,0.0,0.0,0.0,0.0,0.0,0.0,0.0,0.0,0.0,0.0,0.0,0.0,0.0,0.0,0.0,0.0,0.0,0.0,0.0,0.0,0.0,0.0,0.0,0.0,2.2435,2.2928,2.2928,2.2928,2.2928,2.2928,2.2928,2.2928,2.2928,0.0,0.0,0.0,0.0,0.0,0.0,0.0,0.0,0.0,0.0,0.0,0.0,0.0,0.0,0.0,0.0,0.0,0.0,0.0,0.0,0.0,0.0,0.0,0.0,0.0,0.0,0.0,0.0,0.0,0.0,0.0,0.0,0.0,0.0,0.0,0.0,0.0,0.0,0.0,0.0,0.0,0.0,0.0,0.0,0.0,0.0,0.0,0.0,0.0,0.0,0.0,0.0,0.0,0.0,0.0,0.0,0.0,0.0,0.0,0.0,0.0,0.0,0.0,0.0,0.0,0.0,0.0,0.0,0.0,0.0,0.0,0.0,0.0,0.0,0.0,0.0,0.0,0.0,0.0,0.0,0.0,0.0,0.0,0.0,0.0,0.0,0.0,0.0,0.0,0.0,0.0,0.0,0.0,0.0,0.0,0.0,0.0,0.0,0.0,0.0,0.0,0.0,2.2722,2.2928,2.2928,2.2928,2.2928,2.2928,2.2928,2.2928,2.2928,2.2928,0.0,0.0,0.0,0.0,0.0,0.0,0.0,0.0,0.0,0.0,0.0,0.0,0.0,0.0,0.0,0.0,0.0,0.0,0.0,0.0,0.0,0.0,0.0,0.0,0.0,0.0,0.0,0.0,0.0,0.0,0.0,0.0,0.0,0.0,0.0,0.0,0.0,0.0,0.0,0.0,0.0,0.0,0.0,0.0,0.0,0.0,0.0,0.0,0.0,0.0,0.0,0.0,0.0,0.0,0.0,0.0,0.0,0.0,0.0,0.0,0.0,0.0,0.0,0.0,0.0,0.0,0.0,0.0,0.0,0.0,0.0,0.0,0.0,0.0,0.0,0.0,0.0,0.0,0.0,0.0,0.0,0.0,0.0,0.0,0.0,0.0,0.0,0.0,0.0,0.0,0.0,0.0,0.0,0.0,0.0,0.0,0.0,0.0,0.0,0.0,0.0,0.0,2.2928,2.2928,2.2928,2.2928,2.2928,2.2928,2.2928,2.2928,2.2928,0.0,0.0,0.0,0.0,0.0,0.0,0.0,0.0,0.0,0.0,0.0,0.0,0.0,0.0,0.0,0.0,0.0,0.0,0.0,0.0,0.0,0.0,0.0,0.0,0.0,0.0,0.0,0.0,0.0,0.0,0.0,0.0,0.0,0.0,0.0,0.0,0.0,0.0,0.0,0.0,0.0,0.0,0.0,0.0,0.0,0.0,0.0,0.0,0.0,0.0,0.0,0.0,0.0,0.0,0.0,0.0,0.0,0.0,0.0,0.0,0.0,0.0,0.0,0.0,0.0,0.0,0.0,0.0,0.0,0.0,0.0,0.0,0.0,0.0,0.0,0.0,0.0,0.0,0.0,0.0,0.0,0.0,0.0,0.0,0.0,0.0,0.0,0.0,0.0,0.0,0.0,0.0,0.0,0.0,0.0,0.0,0.0,0.0,0.0,0.0,0.0,0.0,0.0,2.2928,2.2928,2.2928,2.2928,2.2928,2.2928,2.2928,2.2928,2.2928,2.2928,0.0,0.0,0.0,0.0,0.0,0.0,0.0,0.0,0.0,0.0,0.0,0.0,0.0,0.0,0.0,0.0,0.0,0.0,0.0,0.0,0.0,0.0,0.0,0.0,0.0,0.0,0.0,0.0,0.0,0.0,0.0,0.0,0.0,0.0,0.0,0.0,0.0,0.0,0.0,0.0,0.0,0.0,0.0,0.0,0.0,0.0,0.0,0.0,0.0,0.0,0.0,0.0,0.0,0.0,0.0,0.0,0.0,0.0,0.0,0.0,0.0,0.0,0.0,0.0,0.0,0.0,0.0,0.0,0.0,0.0,0.0,0.0,0.0,0.0,0.0,0.0,0.0,0.0,0.0,0.0,0.0,0.0,0.0,0.0,0.0,0.0,0.0,0.0,0.0,0.0,0.0,0.0,0.0,0.0,0.0,0.0,0.0,0.0,0.0,0.0,0.0,0.0,2.2928,2.2928,2.2928,2.2928,2.2928,2.2928,2.2928,2.2928,2.2928,2.2928,0.0,0.0,0.0,0.0,0.0,0.0,0.0,0.0,0.0,0.0,0.0,0.0,0.0,0.0,0.0,0.0,0.0,0.0,0.0,0.0,0.0,0.0,0.0,0.0,0.0,0.0,0.0,0.0,0.0,0.0,0.0,0.0,0.0,0.0,0.0,0.0,0.0,0.0,0.0,0.0,0.0,0.0,0.0,0.0,0.0,0.0,0.0,0.0,0.0,0.0,0.0,0.0,0.0,0.0,0.0,0.0,0.0,0.0,0.0,0.0,0.0,0.0,0.0,0.0,0.0,0.0,0.0,0.0,0.0,0.0,0.0,0.0,0.0,0.0,0.0,0.0,0.0,0.0,0.0,0.0,0.0,0.0,0.0,0.0,0.0,0.0,0.0,0.0,0.0,0.0,0.0,0.0,0.0,0.0,0.0,0.0,0.0,0.0,0.0,0.0,0.0,0.0,2.2928,2.2832,2.2819,2.2819,2.2792,2.2847,2.2847,2.2806,2.2819,2.2819,0.0,0.0,0.0,0.0,0.0,0.0,0.0,0.0,0.0,0.0,0.0,0.0,0.0,0.0,0.0,0.0,0.0,0.0,0.0,0.0,0.0,0.0,0.0,0.0,0.0,0.0,0.0,0.0,0.0,0.0,0.0,0.0,0.0,0.0,0.0,0.0,0.0,0.0,0.0,0.0,0.0,0.0,0.0,0.0,0.0,0.0,0.0,0.0,0.0,0.0,0.0,0.0,0.0,0.0,0.0,0.0,0.0,0.0,0.0,0.0,1.7142,1.6613,0.0,0.0,0.0,0.0,0.0,0.0,0.0,0.0,0.0,0.0,0.0,0.0,0.0,0.0,0.0,0.0,0.0,0.0,0.0,0.0,0.0,0.0,0.0,0.0,0.0,0.0,0.0,0.0,0.0,0.0,0.0,0.0,0.0,0.0,0.0,0.0,0.0,0.0,0.0,0.0,2.2928,2.2659,2.2512,2.2512,2.2311,2.2178,2.2178,2.2378,2.2512,2.2512,2.2726,0.0,0.0,0.0,0.0,0.0,0.0,0.0,0.0,0.0,0.0,0.0,0.0,0.0,0.0,0.0,0.0,0.0,0.0,0.0,0.0,0.0,0.0,0.0,0.0,0.0,0.0,0.0,0.0,0.0,0.0,0.0,0.0,0.0,0.0,0.0,0.0,0.0,0.0,0.0,0.0,0.0,0.0,0.0,0.0,0.0,0.0,0.0,0.0,0.0,0.0,0.0,0.0,0.0,0.0,0.0,0.0,0.0,0.0,0.0,1.8568,1.7969,0.0,0.0,0.0,0.0,0.0,0.0,0.0,0.0,0.0,0.0,0.0,0.0,0.0,0.0,0.0,0.0,0.0,0.0,0.0,0.0,0.0,0.0,0.0,0.0,0.0,0.0,0.0,0.0,0.0,0.0,0.0,0.0,0.0,0.0,0.0,0.0,0.0,0.0,0.0,0.0,2.2672,2.2512,2.2365,2.2218,2.2071,2.1991,2.1991,2.2124,2.2271,2.2405,2.2565,0.0,0.0,0.0,0.0,0.0,0.0,0.0,0.0,0.0,0.0,0.0,0.0,0.0,0.0,0.0,0.0,0.0,0.0,0.0,0.0,0.0,0.0,0.0,0.0,0.0,0.0,0.0,0.0,0.0,0.0,0.0,0.0,0.0,0.0,0.0,0.0,0.0,0.0,0.0,0.0,0.0,0.0,0.0,0.0,0.0,0.0,0.0,0.0,0.0,0.0,0.0,0.0,0.0,1.8159,1.9008,2.0617,2.0617,2.1459,2.2722,1.9565,1.9189,2.0662,1.9085,0.0,0.0,0.0,0.0,0.0,0.0,0.0,0.0,0.0,0.0,0.0,0.0,0.0,0.0,0.0,0.0,0.0,0.0,0.0,0.0,0.0,0.0,2.318,2.2926,2.2928,2.2928,2.2928,0.0,0.0,0.0,0.0,0.0,0.0,0.0,0.0,0.0,0.0,0.0,2.2378,2.2298,2.2178,2.1937,2.1871,2.183,2.183,2.1884,2.2004,2.2258,2.2311,2.2472,0.0,0.0,0.0,0.0,0.0,0.0,0.0,0.0,0.0,0.0,0.0,0.0,0.0,0.0,0.0,0.0,0.0,0.0,0.0,0.0,0.0,0.0,0.0,0.0,0.0,0.0,0.0,0.0,0.0,0.0,0.0,0.0,1.6545,1.6826,0.0,0.0,0.0,0.0,0.0,0.0,0.0,0.0,0.0,0.0,0.0,0.0,0.0,1.804,1.975,1.9727,2.0548,2.216,2.216,2.2297,2.2516,2.2516,2.2654,2.2859,2.2366,0.0,2.2569,2.2281,0.0,0.0,0.0,0.0,0.0,0.0,0.0,0.0,0.0,0.0,0.0,0.0,0.0,0.0,0.0,0.0,0.0,0.0,0.0,0.0,0.0,0.0,2.2913,2.2941,2.2928,2.2928,2.2928,2.2928,2.2928,2.2928,2.2928,2.2928,0.0,0.0,0.0,0.0,0.0,0.0,2.2084,2.1817,2.1722,2.1681,2.1376,2.1229,2.1229,2.147,2.1695,2.1735,2.1897,2.2178,2.2458,2.2472,0.0,0.0,0.0,0.0,0.0,0.0,0.0,0.0,0.0,0.0,0.0,0.0,0.0,0.0,0.0,0.0,0.0,0.0,0.0,0.0,0.0,0.0,0.0,0.0,0.0,0.0,0.0,0.0,0.0,1.8508,1.9982,1.8938,1.8868,1.8868,0.0,0.0,0.0,0.0,0.0,0.0,0.0,0.0,0.0,2.0397,2.0397,2.0825,2.1665,2.1665,2.2091,2.2928,2.2928,2.2928,2.2928,2.2928,2.2928,2.2928,2.2928,2.2928,2.2928,2.2928,2.2939,2.299,0.0,0.0,0.0,0.0,2.2898,2.3754,2.3581,2.3527,2.3527,2.3527,0.0,0.0,0.0,0.0,0.0,0.0,0.0,2.3033,2.2899,2.2928,2.2928,2.2928,2.2928,2.2928,2.2928,2.2928,2.2928,2.2928,2.2928,2.2928,2.2928,2.2726,0.0,0.0,0.0,2.2071,2.1777,2.1695,2.1561,2.1323,2.1189,2.1109,2.1109,2.1229,2.1376,2.1601,2.1735,2.1871,2.2164,2.2338,2.2485,0.0,0.0,0.0,0.0,0.0,0.0,0.0,0.0,0.0,0.0,0.0,0.0,0.0,0.0,0.0,0.0,0.0,0.0,0.0,0.0,0.0,0.0,0.0,0.0,0.0,0.0,0.0,0.0,2.1101,2.2366,2.0963,2.0825,2.0825,0.0,0.0,0.0,0.0,0.0,0.0,2.0756,2.0825,2.1459,2.2859,2.2928,2.2928,2.2928,2.2928,2.2928,2.2928,2.2928,2.2928,2.2928,2.2928,2.2928,2.2928,2.2928,2.2928,2.2928,2.2928,2.2928,2.2928,2.2928,2.3006,2.3207,2.3207,2.3354,2.35,2.3287,2.3207,2.3207,2.3207,2.3207,2.3247,2.3474,0.0,0.0,0.0,0.0,2.2928,2.2928,2.2928,2.2928,2.2928,2.2928,2.2928,2.2928,2.2928,2.2928,2.2928,2.2928,2.2832,2.2766,2.2565,0.0,2.2218,2.2017,2.1764,2.1483,2.1443,2.1349,2.1136,2.1109,2.1109,2.1109,2.1475,2.1633,2.1494,2.1879,2.2079,2.1923,2.2084,2.2271,2.2418,0.0,0.0,0.0,0.0,0.0,0.0,0.0,0.0,0.0,0.0,0.0,0.0,0.0,0.0,0.0,0.0,0.0,0.0,0.0,0.0,0.0,0.0,0.0,0.0,0.0,0.0,0.0,0.0,0.0,2.2791,2.2791,0.0,0.0,0.0,0.0,2.2585,2.2585,2.2654,2.2722,2.2791,2.2791,2.2928,2.2928,2.2928,2.2928,2.2928,2.2928,2.2928,2.2928,2.2928,2.2928,2.2928,2.2928,2.2928,2.2928,2.2928,2.2928,2.2928,2.2928,2.2928,2.2928,2.2941,2.2886,2.2886,2.2968,2.2968,2.2954,2.2886,2.2886,2.2886,2.2886,2.2886,2.2968,2.2899,0.0,0.0,2.2928,2.2928,2.2928,2.2928,2.2928,2.2928,2.2928,2.2928,2.2928,2.2928,2.2928,2.2928,2.2928,2.2779,2.2485,0.0,2.2231,2.1748,2.1655,2.1534,2.1162,2.1136,2.1122,2.1109,2.1109,2.1109,2.1109,2.2591,2.2779,2.1186,2.2606,2.2938,2.1692,2.1655,2.1857,2.2405,2.2432,0.0,0.0,0.0,0.0,0.0,0.0,0.0,0.0,0.0,0.0,0.0,0.0,0.0,0.0,0.0,0.0,0.0,0.0,0.0,0.0,0.0,0.0,0.0,0.0,0.0,0.0,0.0,0.0,2.2928,2.2928,0.0,2.2928,2.2928,2.2928,2.2928,2.2928,2.2928,2.2928,2.2928,2.2928,2.2928,2.2928,2.2928,2.2928,2.2928,2.2928,2.2928,2.2928,2.2928,2.2928,2.2928,2.2928,2.2928,2.2928,2.2928,2.2928,2.2928,2.2928,2.2928,2.2928,2.2928,2.2928,2.2928,2.2928,2.2928,2.2928,2.2928,2.2928,2.2928,2.2928,2.2928,2.2928,2.2928,2.2928,2.2928,2.2928,2.2928,2.2928,2.2928,2.2928,2.2928,2.2928,2.2928,2.2928,2.2928,2.2806,2.2619,2.2579,2.2539,2.2432,2.2111,2.179,2.1655,2.139,2.1229,2.1122,2.1109,2.1109,2.1109,2.2104,2.2716,2.2716,2.3263,2.3807,2.4224,2.3869,2.3867,2.4393,2.4609,2.4761,2.4942,2.5172,2.5789,0.0,0.0,0.0,0.0,0.0,0.0,0.0,0.0,0.0,0.0,0.0,0.0,0.0,0.0,0.0,0.0,0.0,0.0,0.0,0.0,0.0,0.0,0.0,0.0,0.0,2.2928,2.2928,2.2928,2.2928,2.2928,2.2928,2.2928,2.2928,2.2928,2.2928,2.2928,2.2928,2.2928,2.2928,2.2928,2.2928,2.2928,2.2928,2.2928,2.2928,2.2928,2.2928,2.2928,2.2928,2.2928,2.2928,2.2928,2.2928,2.2928,2.2928,2.2928,2.2928,2.2928,2.2928,2.2928,2.2928,2.2928,2.2928,2.2928,2.2928,2.2928,2.2928,2.2928,2.2928,2.2928,2.2928,2.2928,2.2928,2.2928,2.2928,2.2928,2.2928,2.2928,2.2928,2.2928,2.2928,2.2928,2.2928,2.2779,2.2659,2.2458,2.2418,2.2352,2.2164,2.1804,2.1588,2.1416,2.1229,2.1109,2.1109,2.1109,2.1299,2.1853,2.2404,2.3014,2.3574,2.4116,2.4655,2.513,2.5208,2.5452,2.5984,2.6138,2.6385,2.6632,2.7516,2.7835,2.7489,0.0,0.0,0.0,0.0,0.0,0.0,0.0,0.0,0.0,0.0,0.0,0.0,0.0,0.0,0.0,0.0,0.0,0.0,0.0,0.0,0.0,0.0,0.0,2.2928,2.2928,2.2928,2.2928,2.2928,2.2928,2.2928,2.2928,2.2928,2.2928,2.2928,2.2928,2.2928,2.2928,2.2928,2.2928,2.2928,2.2928,2.2928,2.2928,2.2928,2.2928,2.2928,2.2928,2.2928,2.2928,2.2928,2.2928,2.2928,2.2928,2.2928,2.2928,2.2928,2.2928,2.2928,2.2928,2.2928,2.2928,2.2928,2.2928,2.2928,2.2928,2.2928,2.2928,2.2928,2.2928,2.2928,2.2928,2.2928,2.2928,2.2928,2.2928,2.2928,2.2928,2.2928,2.2928,2.2928,2.2928,2.2914,2.2619,2.2418,2.2392,2.2392,2.2218,2.1722,2.1614,2.1443,2.1149,2.1109,0.0,2.1172,2.1109,2.179,2.3512,2.2215,2.1915,2.3636,2.5192,2.5436,2.3946,2.6729,2.7751,2.6227,2.6167,2.6499,2.7167,2.9204,2.9397,2.765,0.0,0.0,0.0,0.0,0.0,0.0,0.0,0.0,0.0,0.0,0.0,0.0,0.0,0.0,0.0,0.0,0.0,0.0,0.0,0.0,0.0,2.2928,2.2928,2.2928,2.2928,2.2928,2.2928,2.2928,2.2928,2.2928,2.2928,2.2928,2.2928,2.2928,2.2928,2.2928,2.2928,2.2928,2.2928,2.2928,2.2928,2.2928,2.2928,2.2928,2.2928,2.2928,2.2928,2.2928,2.2928,2.2928,2.2928,2.2928,2.2928,2.2928,2.2928,2.2928,2.2928,2.2928,2.2928,2.2928,2.2928,2.2928,2.2928,2.2928,2.2928,2.2928,2.2928,2.2928,2.2928,2.2928,2.2928,2.2928,2.2928,2.2928,2.2928,2.2928,2.2928,2.2928,2.2928,2.2928,2.2806,2.2592,2.2472,2.2298,2.1871,2.179,2.1737,2.1641,2.1376,2.1203,2.1122,2.1109,2.1538,2.2779,2.1853,2.2215,2.5008,2.4947,2.5314,2.697,2.7512,2.8068,2.8861,2.8545,2.8724,2.953,2.953,2.9643,2.9886,3.0721,3.0929,0.0,0.0,0.0,0.0,0.0,0.0,0.0,0.0,0.0,0.0,0.0,0.0,0.0,0.0,0.0,0.0,0.0,0.0,0.0,0.0,0.0,0.0,2.2928,2.2928,2.2928,2.2928,2.2928,2.2928,2.2928,2.2928,2.2928,2.2928,2.2928,2.2928,2.2928,2.2928,2.2928,2.2928,2.2928,2.2928,2.2928,2.2928,2.2928,2.2928,2.2928,2.2928,2.2928,2.2928,2.2928,2.2928,2.2928,2.2928,2.2928,2.2928,2.2928,2.2928,2.2928,2.2928,0.0,0.0,0.0,0.0,2.2928,2.2928,2.2928,2.2928,2.2928,2.2928,2.2928,2.2928,2.2928,2.2928,2.2928,2.2928,2.2928,2.2928,2.2928,2.2928,2.2928,2.2928,2.2766,2.2632,2.2458,2.2231,2.1951,2.1681,2.1521,0.0,2.1363,2.1229,2.1362,2.2041,2.1538,2.1727,2.3387,2.2153,2.2327,2.568,2.5375,2.5924,2.823,2.8426,0.0,0.0,0.0,2.9903,3.084,3.1055,0.0,0.0,0.0,3.1523,3.1523,3.1777,0.0,0.0,3.1451,3.2144,0.0,0.0,0.0,0.0,0.0,0.0,0.0,0.0,0.0,0.0,0.0,0.0,0.0,0.0,0.0,0.0,2.2928,2.2928,2.2928,2.2928,2.2928,2.2928,2.2928,2.2928,2.2928,2.2928,2.2928,2.2928,2.2928,2.2928,2.2928,2.2928,0.0,0.0,0.0,2.2928,2.2928,2.2928,2.2928,2.2928,2.2928,2.2928,2.2928,2.2928,2.2928,2.2928,2.2928,2.2928,2.2928,2.2928,2.2928,2.2928,2.2928,2.2928,2.2928,2.2928,2.2928,2.2928,2.2928,0.0,0.0,2.2928,2.2928,2.2928,2.2928,2.2928,2.2928,2.2928,2.2928,2.2928,2.2928,2.2928,2.2928,2.2928,2.2632,2.2405,2.2378,2.1937,2.1601,2.1574,2.1296,2.1109,2.1109,2.1109,2.1601,2.3076,2.2027,2.1727,2.3387,2.2278,2.264,2.5924,2.5024,0.0,2.8426,2.8664,2.8664,2.8664,3.0079,3.0898,3.0898,3.125,3.1269,3.0898,3.125,3.1445,3.1445,3.1445,3.168,3.2109,3.2578,3.2988,0.0,0.0,0.0,0.0,0.0,0.0,0.0,0.0,0.0,0.0,0.0,0.0,0.0,0.0,0.0,2.2928,2.2928,2.2928,2.2928,2.2928,2.2928,2.2928,2.2928,2.2928,2.2928,2.2928,2.2928,2.2928,2.2928,2.2928,2.2928,2.2928,2.2928,2.2928,2.2928,2.2928,2.2928,2.2928,2.2928,2.2928,2.2928,0.0,2.2928,2.2928,2.2928,2.2928,2.2928,2.2928,2.2928,2.2928,2.2928,2.2928,2.2928,2.2928,2.2928,2.2928,2.2928,2.2928,2.2928,2.2928,2.2928,2.2928,2.2928,2.2928,2.2928,2.2928,0.0,2.2928,2.2928,2.2928,2.2928,2.2928,2.2928,2.2928,2.2632,2.2352,2.2124,2.1804,2.1547,2.1243,2.1149,2.1109,2.1109,2.1109,2.1235,2.1538,2.1299,2.1727,2.3387,2.3325,2.4348,2.7572,2.7692,2.8247,3.0274,3.0392,3.0392,3.0392,3.0704,3.0898,3.0898,3.0976,3.0976,3.0898,3.0976,3.1016,3.1016,3.1016,3.123,3.166,3.2441,3.2832,0.0,0.0,0.0,0.0,0.0,0.0,0.0,0.0,0.0,0.0,0.0,2.2928,2.2928,0.0,2.2887,2.2659,2.2645,2.2592,2.2445,2.2418,2.2472,2.2619,2.2645,2.2579,2.2432,2.2418,2.2418,2.2418,2.2418,2.2418,2.2418,2.2418,2.2418,2.2418,2.2418,2.2418,2.2418,2.2565,2.2645,2.2645,2.2792,2.2928,2.2928,2.2928,2.2928,2.2928,2.2928,2.2928,2.2928,2.2928,2.2928,2.2928,2.2928,2.2928,2.2928,2.2928,2.2928,2.2928,2.2928,2.2928,2.2928,2.2928,2.2928,2.2928,2.2928,2.2928,2.2928,2.2928,2.2928,2.2928,2.2928,2.2928,2.2887,2.2672,2.2418,2.2124,2.183,2.1537,2.1283,2.1136,2.1109,2.1109,2.1109,2.1109,2.1348,2.2215,2.1664,2.2027,2.4471,2.4116,2.484,2.8051,2.8426,2.9098,3.0762,3.1074,3.1211,3.1211,3.1406,3.1523,3.1523,3.1523,3.1523,3.1523,3.1523,3.1523,3.1523,3.1523,3.1641,3.1855,3.25,3.2676,0.0,0.0,0.0,0.0,0.0,0.0,0.0,2.2753,2.2753,2.2753,2.2753,2.2753,2.2753,2.2753,2.2619,2.2378,2.2338,2.2258,2.2017,2.1991,2.2044,2.2231,2.2298,2.2245,2.2004,2.1991,2.1991,2.1991,2.1991,2.1991,2.1991,2.1991,2.1991,2.1991,2.1991,2.1991,2.1991,2.2218,2.2365,2.2418,2.2659,2.2806,2.2928,2.2928,2.2928,2.2928,2.2928,2.2928,2.2928,2.2928,2.2928,2.2928,2.2928,2.2928,2.2928,2.2928,2.2928,2.2928,2.2928,2.2928,2.2928,2.2928,2.2928,2.2928,2.2928,2.2928,2.2928,2.2928,2.2928,2.2928,2.2928,2.2928,2.2792,2.2485,2.2205,2.1911,2.1681,2.1323,2.1109,2.1109,2.1109,2.1109,2.1109,2.1109,2.1538,2.2889,2.1978,2.209,2.4701,2.4178,2.4748,2.7737,2.8355,2.9246,3.1015,3.1445,3.1641,3.1641,3.1973,3.2229,3.2229,3.2229,3.2229,3.2229,3.2229,3.2229,3.2229,3.2229,3.2229,3.2229,3.2519,3.2539,2.1951,2.2031,2.2044,2.2071,2.2084,2.2084,0.0,2.2084,2.2084,2.2084,2.2084,2.2084,2.2084,2.2084,2.2071,2.2044,2.2031,2.2017,2.1991,2.1991,2.1897,2.1735,2.1884,2.2017,2.1991,2.1991,2.1991,2.1991,2.1991,2.1991,2.1991,2.1991,2.1991,2.1991,2.1991,2.1991,2.1991,2.2017,2.2164,2.2418,2.2458,2.2605,2.2928,2.2928,2.2928,2.2928,2.2928,2.2928,2.2928,2.2928,2.2928,2.2928,2.2928,2.2928,2.2928,2.2928,2.2928,2.2928,2.2928,2.2928,2.2928,2.2928,2.2928,2.2928,2.2928,2.2928,2.2928,2.2928,2.2928,2.2928,2.2928,2.2928,2.2792,2.2485,2.2205,2.1911,2.1681,2.1323,2.1109,2.1109,2.1109,2.1109,2.1109,2.1109,2.1172,2.1362,2.1235,2.1235,2.1601,2.2764,2.4409,2.657,2.814,2.9841,3.1871,3.207,3.209,3.209,3.2148,3.2229,3.2229,3.2229,3.2229,3.2229,3.2229,3.2229,3.2229,3.2229,3.2229,3.2229,3.2268,3.2422,2.1657,2.1857,2.1991,2.1991,2.1991,2.1991,2.1991,2.1991,2.1991,2.1991,2.1991,2.1991,2.1991,2.1991,2.1937,2.1764,2.1802,2.167,2.1496,2.147,2.143,2.1309,2.1403,2.147,2.147,2.147,2.147,2.147,2.147,2.147,2.147,2.147,2.147,2.147,2.147,2.147,2.147,2.1643,2.179,2.1924,2.2258,2.2485,2.2605,2.2779,2.2928,2.2928,2.2928,2.2928,2.2928,2.2928,2.2928,2.2928,2.2928,2.2928,2.2928,2.2928,2.2928,2.2928,2.2928,2.2928,2.2928,2.2928,2.2928,2.2928,2.2928,2.2928,2.2928,2.2928,2.2928,2.2928,2.2928,2.2928,2.2792,2.2485,2.2205,2.1911,2.1681,2.1323,2.1162,2.1336,2.1363,2.1416,2.159,2.1617,2.1617,2.1617,2.147,2.1801,2.2851,2.3632,2.5123,2.7968,2.9874,3.1268,3.2148,3.2383,3.2539,3.2539,3.2754,3.2891,3.2891,3.2891,3.2891,3.2891,3.2891,3.2891,3.2891,3.2891,3.2891,3.2891,3.2891,3.2988,2.1376,2.1577,2.175,2.175,2.175,2.175,2.175,2.175,2.175,2.175,2.175,2.175,2.175,2.175,2.167,2.147,2.143,2.1363,2.1136,2.1109,2.1109,2.1109,2.1109,2.1109,2.1109,2.1109,2.1109,2.1109,2.1109,2.1109,2.1109,2.1109,2.1109,2.1109,2.1109,2.1149,2.1229,2.1507,2.1695,2.1804,2.2218,2.2458,2.2552,2.2766,2.2928,2.2928,2.2928,2.2928,2.2928,2.2928,2.2928,2.2928,2.2928,2.2928,2.2928,2.2928,2.2928,2.2928,2.2928,2.2928,2.2928,2.2928,2.2928,2.2928,2.2928,2.2928,2.2928,2.2928,2.2928,2.2928,2.2928,2.2928,2.2792,2.2485,2.2258,2.2031,2.1802,2.1496,2.1416,2.163,2.1735,2.1737,2.1951,2.1991,2.2017,2.2098,2.1924,2.2288,2.3558,2.4685,2.6456,2.9449,3.1399,3.2519,3.2519,3.2793,3.2969,3.2969,3.3242,3.3418,3.3418,3.3418,3.3418,3.3418,3.3418,3.3418,3.3418,3.3418,3.3418,3.3418,3.3418,3.3418,2.1122,2.1122,2.1136,2.1136,2.1136,2.1136,2.1136,2.1136,2.1136,2.1136,2.1136,2.1136,2.1136,2.1136,2.1136,2.1122,2.1122,2.1122,2.1109,2.1109,2.1109,2.1109,2.1109,2.1109,2.1109,2.1109,2.1109,2.1109,2.1109,2.1109,2.1109,2.1109,2.1109,2.1109,2.1109,2.1243,2.1601,2.1614,2.183,2.2392,2.2405,2.2565,2.2914,2.2928,2.2928,2.2928,2.2928,2.2928,2.2928,2.2928,2.2928,2.2928,2.2928,2.2928,2.2928,2.2928,2.2928,2.2928,2.2928,2.2928,2.2928,2.2928,2.2928,2.2928,2.2928,2.2928,2.2928,2.2928,2.2928,2.2928,2.2928,2.2928,2.2792,2.2485,2.2405,2.2325,2.2031,2.1964,2.1964,2.1977,2.1977,2.1977,2.1991,2.1991,2.2084,2.2365,2.2392,2.2298,2.2083,2.5336,2.831,3.0176,3.2163,3.3379,3.3379,3.3398,3.3398,3.3398,3.3418,3.3418,3.3418,3.3418,3.3418,3.3418,3.3418,3.3418,3.3418,3.3418,3.3418,3.3418,3.3418,3.3418,0.0,0.0,2.1109,2.1109,2.1109,2.1109,2.1109,2.1109,2.1109,2.1109,2.1109,2.1109,2.1109,2.1109,2.1109,2.1109,2.1109,2.1109,2.1109,2.1109,2.1109,2.1109,2.1109,2.1109,2.1109,2.1109,2.1109,2.1109,2.1109,2.1109,2.1109,2.1109,2.1203,2.1403,2.1403,2.155,2.1844,2.1844,2.1937,2.2138,2.2325,2.2579,2.2928,2.2928,2.2928,2.2928,2.2928,2.2928,2.2928,2.2928,2.2928,2.2928,2.2928,2.2928,2.2928,2.2928,2.2928,2.2928,2.2928,2.2928,2.2928,2.2928,2.2928,2.2928,2.2928,2.2928,2.2928,2.2928,2.2928,2.2928,2.2928,2.2928,2.2832,2.2739,2.2565,2.2392,2.2298,2.2124,2.2044,2.2231,2.2271,2.2338,2.2539,2.2565,2.2605,2.2699,2.2712,2.2672,2.2579,2.4759,2.6468,2.7046,2.9842,3.1689,3.1689,3.2765,3.3418,3.3418,3.3418,3.3418,3.3418,3.3418,3.3418,3.3418,3.3418,3.3418,3.3418,3.3418,3.3418,3.3418,3.3418,3.3418,0.0,2.1109,2.1109,2.1109,2.1109,2.1109,2.1109,2.1109,2.1109,2.1109,2.1109,2.1109,2.1109,2.1109,2.1109,2.1109,2.1109,2.1109,2.1109,2.1109,2.1109,2.1109,2.1109,2.1109,2.1109,2.1109,2.1109,2.1109,2.1109,2.1109,2.1109,2.1203,2.1363,2.1614,2.1722,2.1844,2.2138,2.2138,2.2191,2.2298,2.2485,2.2672,2.2928,2.2928,2.2928,2.2928,2.2928,2.2928,2.2928,2.2928,2.2928,2.2928,2.2928,2.2928,2.2928,2.2928,2.2928,2.2928,2.2928,2.2928,2.2928,2.2928,2.2928,2.2928,2.2928,2.2928,2.2928,2.2928,2.2928,2.2928,2.2928,2.2928,2.2928,2.2928,2.2712,2.2579,2.2579,2.2432,2.2352,2.2539,2.2579,2.2632,2.2832,2.2928,2.2928,2.2928,2.2928,2.3133,2.372,2.4791,2.5786,2.6373,2.9083,3.0789,3.0771,3.2428,3.3418,3.3418,3.3418,3.3418,3.3418,3.3418,3.3418,3.3418,3.3418,3.3418,3.3418,3.3418,3.3418,3.3418,3.3418,3.3418,2.1109,2.1109,2.1109,2.1109,2.1109,2.1109,2.1109,2.1109,2.1109,2.1109,2.1109,2.1109,0.0,2.1109,2.1109,2.1109,2.1109,2.1109,2.1109,2.1109,2.1109,2.1109,2.1109,2.1109,2.1109,2.1109,2.1109,2.1109,2.1109,2.1122,2.1136,2.1403,2.1628,2.1655,2.1857,2.2151,2.2432,2.2445,2.2579,2.2928,2.2928,2.2928,2.2928,2.2928,2.2928,2.2928,2.2928,2.2928,2.2928,2.2928,2.2928,2.2928,2.2928,2.2928,2.2928,2.2928,2.2928,2.2928,2.2928,2.2928,2.2928,2.2928,2.2928,2.2928,2.2928,2.2928,2.2928,2.2928,2.2928,2.2928,2.2928,2.2928,2.2928,2.2928,2.2928,2.2928,2.2928,2.2928,2.2928,2.2928,2.2928,2.2928,2.2928,2.2928,2.2928,2.2928,2.2928,2.3529,2.5181,2.5383,2.6039,2.7834,2.9622,3.0678,3.0771,3.2428,3.3418,3.3418,3.3418,3.3418,3.3418,3.3418,3.3418,3.3418,3.3418,3.3418,3.3418,3.3418,3.3437,3.3457,3.3457,3.3476,2.1109,2.1109,2.1109,2.1109,2.1109,2.1109,2.1109,2.1109,2.1109,2.1109,2.1109,2.1109,2.1109,2.1109,2.1109,2.1109,2.1109,2.1109,2.1109,2.1109,2.1109,2.1109,2.1109,2.1109,2.1109,2.1109,2.1109,2.1109,2.1109,2.1203,2.1494,2.1574,2.175,2.2178,2.2271,2.2445,2.2752,2.2752,2.2792,2.2928,2.2928,2.2928,2.2928,2.2928,2.2928,2.2928,2.2928,2.2928,2.2928,2.2928,2.2928,2.2928,2.2928,2.2928,2.2928,2.2928,2.2928,2.2928,2.2928,2.2928,2.2928,2.2928,2.2928,2.2928,2.2928,2.2928,2.2928,2.2928,2.2928,2.2928,2.2928,2.2928,2.2928,2.2928,2.2928,2.2928,2.2928,2.2928,2.2928,2.2928,2.2928,2.2928,2.2928,2.2928,2.2928,2.2928,2.2928,2.3065,2.3529,2.3597,2.4263,2.5972,2.7768,2.9409,3.0707,3.2428,3.3418,3.3418,3.3418,3.3418,3.3418,3.3418,3.3418,3.3418,3.3418,3.3418,3.3418,3.3418,3.3594,3.3906,3.3906,3.4062,2.1109,2.1109,2.1109,2.1109,2.1109,2.1109,2.1109,2.1109,2.1109,2.1109,2.1109,2.1109,2.1109,2.1109,2.1109,2.1109,2.1109,2.1109,2.1109,2.1109,2.1109,2.1109,2.1109,2.1109,2.1109,2.1109,2.1162,2.1296,2.1309,2.1376,2.1614,2.179,2.2084,2.2405,2.2539,2.2699,2.2928,2.2928,2.2928,2.2928,2.2928,2.2928,2.2928,2.2928,2.2928,2.2928,2.2928,2.2928,2.2928,2.2928,2.2928,2.2928,2.2928,2.2928,2.2928,2.2928,2.2928,2.2928,2.2928,2.2928,2.2928,2.2928,2.2928,2.2928,2.2928,2.2928,2.2928,2.2928,2.2928,2.2928,2.2928,2.2928,2.2928,2.2928,2.2928,2.2928,2.2928,2.2928,2.2928,2.2928,2.2928,2.2928,2.2928,2.2928,2.2928,2.2928,2.2928,2.2913,2.3046,2.3612,2.4385,2.5383,2.7964,2.9996,3.0977,3.2865,3.3984,3.3984,3.3984,3.3984,3.3984,3.3984,3.3984,3.3984,3.3984,3.3984,3.3984,3.3984,3.4101,3.4336,3.4336,3.4473,2.1109,2.1109,2.1109,2.1109,2.1109,2.1109,2.1109,2.1109,2.1109,2.1109,2.1109,2.1109,2.1109,2.1109,2.1109,2.1109,0.0,2.1109,2.1109,2.1109,2.1109,2.1109,2.1109,2.1109,2.1109,2.1149,2.1269,2.1601,2.1695,2.1735,2.1735,2.2151,2.2432,2.2472,2.2726,2.2928,2.2928,2.2928,2.2928,2.2928,2.2928,2.2928,2.2928,2.2928,2.2928,2.2928,2.2928,2.2928,2.2928,2.2928,2.2928,2.2928,2.2928,2.2928,2.2928,2.2928,2.2928,2.2928,2.2928,2.2928,2.2928,2.2928,2.2928,2.2928,2.2928,2.2928,2.2928,2.2928,2.2928,2.2928,2.2928,2.2928,2.2928,2.2928,2.2928,2.2928,2.2928,2.2928,2.2928,2.2928,2.2928,2.2928,2.2928,2.2899,2.2926,2.2926,2.2953,2.3073,2.3354,2.4465,2.5337,2.5569,2.871,3.0862,3.106,3.2861,3.4077,3.4293,3.4359,3.4425,3.4707,3.4707,3.4707,3.4707,3.4707,3.4707,3.4707,3.4707,3.4726,3.4785,3.4785,3.4824,2.1109,2.1109,2.1109,2.1109,2.1109,2.1109,2.1109,2.1109,0.0,2.1109,2.1109,2.1109,2.1109,2.1109,2.1109,2.1109,2.1109,2.1109,2.1109,2.1109,2.1109,0.0,2.1109,2.1109,2.1109,2.1336,2.1561,2.1614,2.1991,2.2271,2.2271,2.2365,2.2525,2.2779,2.2832,2.2928,2.2928,2.2928,2.2928,2.2928,2.2928,2.2928,2.2928,2.2928,2.2928,2.2928,2.2928,2.2928,2.2928,2.2928,2.2928,2.2928,2.2928,2.2928,2.2928,2.2928,2.2928,2.2928,2.2928,2.2928,2.2928,2.2928,2.2928,2.2928,2.2928,2.2928,2.2928,2.2928,2.2928,2.2928,2.2928,2.2928,2.2928,2.2928,2.2928,2.2928,2.2928,2.2928,2.2928,2.2928,2.2928,2.2928,2.2928,2.3073,2.3247,2.3247,2.346,2.3634,2.3688,2.3701,2.4358,2.6087,2.6855,2.7836,2.9274,2.9749,3.0665,3.2266,3.2399,3.3066,3.4622,3.4707,3.4707,3.4707,3.4707,3.4707,3.4707,3.4707,3.4902,3.5273,3.5273,3.5469,2.0895,2.1109,2.1109,2.1109,2.1109,2.1109,2.1109,0.0,0.0,2.1109,2.1109,2.1109,2.1109,2.1109,2.1109,2.1109,2.1109,2.1109,2.1109,2.1109,2.1109,2.1109,2.1109,2.1162,2.1323,2.1534,2.1748,2.1977,2.2258,2.2418,2.2418,2.2565,2.2712,2.2859,2.2928,2.2928,2.2928,2.2928,2.2928,2.2928,2.2928,2.2928,2.2928,2.2928,2.2928,2.2941,2.3033,2.31,2.3113,2.3273,2.334,2.334,2.334,2.334,2.334,2.334,2.334,2.334,2.334,2.334,2.3313,2.3153,2.2993,2.2928,2.2928,2.2928,2.2928,2.2928,2.2928,2.2928,2.2928,2.2928,2.2928,2.2928,2.2928,2.2928,2.2928,2.2928,2.2913,2.3073,2.31,2.3153,2.3313,2.346,2.3554,2.3554,2.3674,2.3821,2.3981,2.3875,2.4465,2.6224,2.7408,2.8478,2.931,3.0461,3.1547,3.2525,3.3514,3.4412,3.5324,3.5391,3.5391,3.5391,3.5391,3.5391,3.5391,3.5391,3.5508,3.5723,3.5723,3.582,1.9695,2.031,2.0526,2.0526,2.0843,2.1109,2.1109,2.1109,0.0,2.1109,2.1109,2.1109,2.1109,2.1109,2.1109,2.1109,2.1109,2.1109,2.1109,2.1109,2.1109,2.1109,2.1162,0.0,2.1601,2.1735,2.1924,2.2378,2.2472,2.2512,2.2512,2.2739,2.2928,2.2928,2.2928,2.2928,2.2928,2.2928,2.2928,2.2928,2.2928,2.2928,2.2928,2.2926,2.2966,2.2979,2.3287,2.342,2.3447,2.3674,2.3768,2.3768,2.3768,2.3768,2.3768,2.3768,2.3768,2.3768,2.3768,2.3768,2.3728,2.35,2.322,2.2953,2.2954,2.2928,2.2928,2.2928,2.2928,2.2928,2.2928,2.2928,2.2928,2.2928,2.2913,2.2966,2.2966,2.3006,2.3126,2.338,2.342,2.35,2.3728,2.3821,2.3861,2.3861,2.3915,2.4035,2.4262,2.4302,2.4761,2.5896,2.7574,2.8773,2.9196,3.0935,3.2316,3.317,3.459,3.5587,3.5947,3.6016,3.6016,3.6016,3.6016,3.6016,3.6016,3.6016,3.6016,3.6016,3.6016,3.6016,1.6491,1.764,1.8768,1.8768,1.9941,2.1109,2.1109,0.0,2.1109,2.1109,2.1109,2.1109,2.1109,2.1109,2.1109,2.1109,2.1109,2.1109,2.1109,2.1109,2.1109,2.1109,0.0,0.0,2.1614,2.2031,2.2365,2.2418,2.2672,2.2819,2.2819,2.2846,2.2928,2.2928,2.2928,2.2928,2.2928,2.2928,2.2928,2.2928,2.2928,2.2928,2.2941,2.3153,2.3287,2.33,2.3607,2.3728,2.3728,2.3754,2.3768,2.3768,2.3768,2.3768,2.3768,2.3768,2.3768,2.3768,2.3768,2.3768,2.3768,2.3741,2.3527,2.3233,2.2953,2.2928,2.2928,2.2928,2.2928,2.2928,2.2928,2.2928,2.2928,2.2928,2.3073,2.3287,2.3287,2.35,2.3688,2.3728,2.3728,2.3741,2.3768,2.3995,2.4168,2.4168,2.4382,2.4569,2.4596,2.4596,2.4583,2.4777,2.4937,2.5817,2.7533,2.7909,2.9488,3.2961,3.3378,3.4245,3.5947,3.6016,3.6016,3.6016,3.6016,3.6016,3.6016,3.6016,3.6016,3.6016,3.6016,3.6016,1.6009,1.6685,1.7304,1.8346,1.908,1.9801,2.0843,0.0,2.1109,2.1109,2.1109,2.1109,2.1109,2.1109,2.1109,2.1109,2.1109,0.0,2.1109,2.1109,2.1109,2.1109,2.1376,2.1681,2.1804,2.2178,2.2485,2.2672,2.2792,2.2928,2.2928,2.2928,2.2928,2.2928,2.2928,2.2928,2.2928,2.2928,2.2928,2.2928,2.3046,2.314,2.3153,2.346,2.3594,2.3607,2.3901,2.4035,2.4048,2.4222,2.4289,2.4289,2.4289,2.4289,2.4289,2.4289,2.4289,2.4289,2.4289,2.4289,2.4262,2.4088,2.3955,2.3794,2.35,2.3407,2.3407,2.3407,2.3407,2.3407,2.3407,2.3407,2.3407,2.3407,2.35,2.3594,2.3594,2.3688,2.3821,2.3995,2.4035,2.4088,2.4262,2.4382,2.4462,2.4462,2.4556,2.4636,2.4636,2.4636,2.4636,2.4636,2.5639,2.6648,2.7433,2.9631,3.1614,3.3101,3.4245,3.5226,3.5947,3.6016,3.6016,3.6016,3.6016,3.6016,3.6016,3.6016,3.6016,3.6016,3.6016,3.6016,1.4611,1.5171,1.5795,1.7522,1.8239,1.8992,0.0,0.0,2.1109,2.1109,2.1109,2.1109,2.1109,2.1109,2.1109,2.1109,0.0,2.1109,2.1109,2.1109,2.1149,2.1229,2.151,2.179,2.2084,2.2378,2.2632,2.2846,2.2928,2.2928,2.2928,2.2928,2.2928,2.2928,2.2928,2.2928,2.2928,2.2928,2.2913,2.3006,2.322,2.3367,2.3474,2.3768,2.3901,2.3915,2.4209,2.4329,2.4342,2.4556,2.4636,2.4636,2.4636,2.4636,2.4636,2.4636,2.4636,2.4636,2.4636,2.4636,2.4609,2.4396,2.4329,2.4289,2.4088,2.3915,2.3768,2.3768,2.3768,2.3768,2.3768,2.3768,2.3768,2.3768,2.3834,2.3901,2.3901,2.3968,2.4088,2.4289,2.4329,2.4396,2.4596,2.4636,2.4636,2.4636,2.4636,2.4636,2.4636,2.4636,2.4857,2.5419,2.7215,2.8341,2.8341,3.1316,3.3448,3.402,3.5245,3.6016,3.6016,3.6016,3.6016,3.6016,3.6016,3.6016,3.6016,3.6016,3.6016,3.6016,3.6016,3.6016,1.1459,1.2581,1.4163,1.5709,1.7445,1.909,0.0,0.0,2.1109,2.1109,2.1109,2.1109,2.1109,2.1109,2.1109,2.1109,2.1109,0.0,2.1109,2.1109,2.1216,0.0,2.1804,2.2098,2.2392,2.2686,2.2928,2.2928,2.2928,2.2928,2.2928,2.2928,2.2928,2.2928,2.2928,2.2928,2.2928,2.2928,2.302,2.3327,2.3327,2.3487,2.3768,2.4062,2.4195,2.4209,2.4502,2.4636,2.4636,2.4636,2.4636,2.4636,2.4636,2.4636,2.4636,2.4636,2.4636,2.4636,2.4636,2.4636,2.4636,2.4636,2.4636,2.4636,2.4549,2.4222,2.3768,2.3768,2.3768,2.3768,2.3768,2.3768,2.3768,2.3768,2.3995,2.4195,2.4195,2.4422,2.4549,2.4636,2.4636,2.4636,2.4636,2.4636,2.4636,2.4636,2.4636,2.4636,2.4636,2.4636,2.5359,2.7288,2.9115,3.0239,3.0239,3.2088,3.402,3.5879,3.6016,3.6016,3.6016,3.6016,3.6016,3.6016,3.6016,3.6016,3.6016,3.6016,3.6016,3.6016,3.6016,3.6016,1.1545,1.1854,1.2542,1.4268,1.5982,1.774,1.9394,2.0771,2.171,2.171,2.155,2.1416,2.1416,2.1243,2.1109,2.1109,2.1109,0.0,0.0,0.0,0.0,2.1601,2.1991,2.2405,2.2699,2.2806,2.2928,2.2928,2.2928,2.2928,2.2928,2.2928,2.2928,2.2928,2.2928,2.2966,2.318,2.318,2.3327,2.3634,2.3834,2.3968,2.4075,2.4369,2.4502,2.4502,2.4596,2.4636,2.4636,2.4636,2.4636,2.4636,2.4636,2.4636,2.4636,2.4636,2.4636,2.4636,2.4636,2.4636,2.4636,2.4636,2.4636,2.4636,2.4636,2.4502,2.4369,2.4369,2.4369,2.4369,2.4369,2.4369,2.4369,2.4369,2.4436,2.4502,2.4502,2.4569,2.4636,2.4636,2.4636,2.4636,2.4636,2.4636,2.4636,2.4636,2.4636,2.4636,2.4636,2.4636,2.4844,2.5419,2.7201,2.9401,3.2036,3.2874,3.3448,3.402,3.4089,3.4089,3.4089,3.5314,3.6016,3.6016,3.6016,3.6016,3.6016,3.6016,3.6016,3.6016,3.6016,3.6016,1.1619,1.1552,1.2023,1.4449,1.5843,0.0,0.0,2.1172,2.1991,2.1991,2.1844,2.1748,2.1641,2.1403,2.1243,2.1122,2.1109,2.1109,2.1109,2.1363,2.1695,2.1857,2.2298,2.2659,2.2914,2.2928,2.2928,2.2928,2.2928,2.2928,2.2928,2.2928,2.2913,2.3033,2.3033,2.3126,2.3327,2.3434,2.3647,2.3941,2.4115,2.4262,2.4369,2.4556,2.4636,2.4636,2.4636,2.4636,0.0,2.4636,2.4636,2.4636,2.4636,2.4636,2.4636,2.4636,2.4636,2.4636,2.4636,2.4636,2.4636,2.4636,2.4636,2.4636,2.4636,2.4636,2.4636,2.4636,2.4636,2.4636,2.4636,2.4636,2.4636,2.4636,2.4636,2.4636,2.4636,2.4636,2.4636,2.4636,2.4636,2.4636,2.4636,2.4636,2.4636,2.4636,2.4636,2.4636,2.4636,2.4636,2.4844,2.5639,2.6779,2.8772,3.1808,3.2088,3.2455,3.317,3.317,3.3517,3.4227,3.5382,3.6016,3.6016,3.6016,3.6016,3.6016,3.6016,3.6016,3.6016,3.6016,3.6016,0.0,1.1619,1.243,1.5807,1.6718,1.7697,2.1089,2.1978,0.0,2.2044,2.2031,2.1924,2.1695,2.1628,2.1521,2.1162,2.1109,2.1122,2.1136,2.1416,2.1817,2.2378,2.2699,2.2928,2.2928,2.2928,2.2928,2.2928,2.2928,2.2928,2.2928,2.2954,2.3033,2.3313,2.3367,2.3394,2.3394,2.3661,2.3941,2.4235,2.4235,2.4382,2.4636,2.4636,2.4636,2.4636,2.4636,2.4636,2.4636,2.4636,2.4636,2.4636,2.4636,2.4636,2.4636,2.4636,2.4636,2.4636,2.4636,2.4636,2.4636,2.4636,2.4636,2.4636,2.4636,2.4636,2.4636,2.4636,2.4636,2.4636,2.4636,2.4636,2.4636,2.4636,2.4636,2.4636,2.4636,2.4636,2.4636,2.4636,2.4636,2.4636,2.4636,2.4636,2.4636,2.4636,2.4636,2.4636,2.4636,2.4636,2.5286,2.707,2.7288,2.7996,2.9741,3.0026,3.0963,3.2874,3.3013,3.3812,3.5743,3.5947,3.6016,3.6016,3.6016,3.6016,3.6016,3.6016,3.6016,3.6016,3.6016,3.6016,1.1619,0.0,1.2173,1.4373,1.6046,1.7715,0.0,2.168,2.2659,2.2659,2.2472,2.2231,2.1937,2.1762,2.1521,2.1162,2.1109,2.1189,2.148,2.1884,2.2352,2.2712,2.2819,2.2928,2.2928,2.2928,2.2928,2.2928,2.2928,2.2928,2.2928,2.3086,2.3247,2.3327,2.3768,2.3995,2.3995,2.4062,2.4249,2.4529,2.4529,2.4569,2.4636,2.4636,2.4636,2.4636,2.4636,2.4636,2.4636,2.4636,2.4636,2.4636,2.4636,2.4636,2.4636,2.4636,2.4636,2.4636,2.4636,2.4636,2.4636,2.4636,2.4636,2.4636,2.4636,2.4636,2.4636,2.4636,2.4636,2.4636,2.4636,2.4636,2.4636,2.4636,2.4636,2.4636,2.4636,2.4636,2.4636,2.4636,2.4636,2.4636,2.4636,2.4636,2.4636,2.4636,2.4636,2.4636,2.4636,2.4636,2.4784,2.5212,2.5286,2.5492,2.5918,2.7273,2.8988,3.0876,3.0946,3.1878,3.3812,3.5226,3.6016,3.6016,3.6016,3.6016,3.6016,3.6016,3.6016,3.6016,3.6016,3.6016,1.1619,1.2252,1.3309,1.5212,1.7107,1.9008,2.0963,2.216,2.2928,2.2928,2.2619,2.2325,2.2044,2.175,2.1521,2.1162,2.1229,2.1456,2.1897,2.2218,2.2525,2.2887,2.2928,2.2928,2.2928,2.2928,2.2928,2.2928,2.2928,2.2926,2.3073,2.3233,2.3447,2.3714,2.4035,2.4209,2.4209,2.4342,2.4476,2.4636,2.4636,2.4636,2.4636,2.4636,2.4636,2.4636,2.4636,2.4636,2.4636,2.4636,2.4636,2.4636,2.4636,2.4636,2.4636,2.4636,2.4636,2.4636,2.4636,2.4636,2.4636,2.4636,2.4636,2.4636,2.4636,2.4636,2.4636,2.4636,2.4636,2.4636,2.4636,2.4636,2.4636,2.4636,2.4636,2.4636,2.4636,2.4636,2.4636,2.4636,2.4636,2.4636,2.4636,2.4636,2.4636,2.4636,2.4636,2.4636,2.4636,2.4636,2.4636,2.4636,2.5419,2.5932,2.5932,2.7707,2.9186,3.0239,3.1158,3.2525,3.4383,3.5451,3.6016,3.6016,3.6016,3.6016,3.6016,3.6016,3.6016,3.6016,3.6016,3.6016,1.1619,1.296,1.4858,1.6756,1.8449,2.0201,2.2366,2.2928,2.2928,2.2928,2.2619,2.2325,2.2044,2.175,2.1534,2.1216,2.1456,2.1857,2.2352,2.2458,2.2579,2.2901,2.2928,2.2928,2.2928,2.2928,2.2928,2.2928,2.2968,2.3046,2.3313,2.3407,2.3688,2.4182,2.4249,2.4262,2.4262,2.4516,2.4636,2.4636,2.4636,2.4636,2.4636,2.4636,2.4636,2.4636,2.4636,2.4636,2.4636,2.4636,2.4636,2.4636,2.4636,2.4636,2.4636,2.4636,2.4636,2.4636,2.4636,2.4636,2.4636,2.4636,2.4636,2.4636,2.4636,2.4636,2.4636,2.4636,2.4636,2.4636,2.4636,2.4636,2.4636,2.4636,2.4636,2.4636,2.4636,2.4636,2.4636,2.4636,2.4636,2.4636,2.4636,2.4636,2.4636,2.4636,2.4636,2.4636,2.4636,2.4636,2.4636,2.4636,2.6357,2.7505,2.7505,2.9472,3.0734,3.0734,3.2316,3.402,3.5947,3.6016,3.6016,3.6016,3.6016,3.6016,3.6016,3.6016,3.6055,3.6113,3.6113,3.6152,1.1619,1.296,1.4858,1.6756,1.7388,1.8578,2.2091,2.2928,2.2928,2.2928,2.2619,2.2325,2.2044,2.175,2.1601,2.1561,2.1937,2.2311,2.2405,2.2632,2.2806,2.2859,2.2928,2.2928,2.2928,2.2928,2.2928,2.2928,2.31,2.3273,2.3327,2.3794,2.4102,2.4195,2.4436,2.4569,2.4569,2.4609,2.4636,2.4636,2.4636,2.4636,2.4636,2.4636,2.4636,2.4636,2.4636,2.4636,2.4636,2.4636,2.4636,2.4636,2.4636,2.4636,2.4636,2.4636,2.4636,2.4636,2.4636,2.4636,2.4636,2.4636,2.4636,2.4636,2.4636,2.4636,2.4636,2.4636,2.4636,2.4636,2.4636,2.4636,2.4636,2.4636,2.4636,2.4636,2.4636,2.4636,2.4636,2.4636,2.4636,2.4636,2.4636,2.4636,2.4636,2.4636,2.4636,2.4636,2.4636,2.4636,2.4636,2.4636,2.6357,2.7505,2.7505,3.0751,3.2735,3.2735,3.3013,3.402,3.5947,3.6016,3.6016,3.6016,3.6016,3.6016,3.6016,3.6016,3.6211,3.6562,3.6562,3.6758,1.1619,1.2252,1.3309,1.5212,1.6474,1.7949,2.0756,2.139,2.1665,2.2722,2.2498,2.2151,2.2004,2.175,2.1722,2.1977,2.2245,2.2472,2.2632,2.2779,2.2928,2.2928,2.2928,2.2928,2.2928,2.2928,2.2939,2.31,2.3247,2.346,2.3781,2.4062,2.4275,2.4436,2.4569,2.4636,2.4636,2.4636,2.4636,2.4636,2.4636,2.4636,2.4636,2.4636,2.4636,2.4636,2.4636,2.4636,2.4636,2.4636,2.4636,2.4636,2.4636,2.4636,2.4636,2.4636,2.4636,2.4636,2.4636,2.4636,2.4636,2.4636,2.4636,2.4636,2.4636,2.4636,2.4636,2.4636,2.4636,2.4636,2.4636,2.4636,2.4636,2.4636,2.4636,2.4636,2.4636,2.4636,2.4636,2.4636,2.4636,2.4636,2.4636,2.4636,2.4636,2.4636,2.4636,2.4636,2.4636,2.4636,2.4636,2.4636,2.7509,2.94,2.94,3.3109,3.5218,3.4765,3.4954,3.5501,3.6367,3.6601,3.6719,3.6719,3.6719,3.6719,3.6719,3.6719,3.6816,3.7012,3.7012,3.7109,1.1619,1.1619,1.2043,1.3943,1.5839,1.7739,1.9634,2.0409,2.1158,2.2493,2.2352,2.1991,2.1991,2.1857,2.1897,2.2352,2.2472,2.2605,2.2832,2.2928,2.2928,2.2928,2.2928,2.2928,2.2928,2.2926,2.3073,2.3313,2.346,2.3728,2.4182,2.4262,2.4409,2.4549,2.4636,2.4636,2.4636,2.4636,2.4636,2.4636,2.4636,2.4636,2.4636,2.4636,2.4636,2.4636,2.4636,2.4636,2.4636,2.4636,2.4636,2.4636,2.4636,2.4636,2.4636,2.4636,2.4636,2.4636,2.4636,2.4636,2.4636,2.4636,2.4636,2.4636,2.4636,2.4636,2.4636,2.4636,2.4636,2.4636,2.4636,2.4636,2.4636,2.4636,2.4636,2.4636,2.4636,2.4636,2.4636,2.4636,2.4636,2.4636,2.4636,2.4636,2.4663,2.473,2.4743,2.477,2.4836,2.5283,2.5566,2.5566,2.9315,3.1998,3.2429,3.541,3.7012,3.6367,3.6641,3.6816,3.6816,3.7129,3.7305,3.7305,3.7305,3.7305,3.7305,3.7305,3.7344,3.7441,3.7441,3.75,1.1619,1.1619,1.2043,1.3943,1.5839,1.7739,1.9634,2.1459,2.2642,2.2444,2.2205,2.1991,2.1991,2.2191,2.2378,2.2405,2.2645,2.2832,2.2928,2.2928,2.2928,2.2928,2.2928,2.2928,2.2928,2.3126,2.33,2.3327,2.3834,2.4155,2.4195,2.4462,2.4609,2.4636,2.4636,2.4636,2.4636,2.4636,2.4636,2.4636,2.4636,2.4636,2.4636,2.4636,2.4636,2.4636,2.4636,2.4636,2.4636,2.4636,2.4636,2.4636,2.4636,2.4636,2.4636,2.4636,2.4636,2.4636,2.4636,2.4636,2.4636,2.4636,2.4636,2.4636,2.4636,2.4636,2.4636,2.4636,2.4636,2.4636,2.4636,2.4636,2.4636,2.4636,2.4636,2.4636,2.4636,2.4636,2.4636,2.4636,2.4636,2.4636,2.4636,2.4636,2.473,2.501,2.505,2.5144,2.5411,2.7154,2.8342,2.8342,3.1862,3.497,3.6733,3.7125,3.7266,3.7207,3.7226,3.7246,3.7246,3.7285,3.7305,3.7305,3.7305,3.7305,3.7305,3.7305,3.75,3.7871,3.7871,3.8105,1.1619,1.2466,1.3238,1.2745,1.5839,1.9217,1.9912,2.0617,2.1433,2.2508,2.2458,2.2258,2.2258,2.2338,2.2472,2.2659,2.2792,2.2928,2.2928,2.2928,2.2928,2.2928,2.2928,2.2928,2.2928,2.314,2.3407,2.3594,2.3981,2.4289,2.4462,2.4569,2.4636,2.4636,2.4636,2.4636,2.4636,2.4636,2.4636,2.4636,2.4636,2.4636,2.4636,2.4636,2.4636,2.4636,2.4636,2.4636,2.4636,2.4636,2.4636,2.4636,2.4636,2.4636,2.4636,2.4636,2.4636,2.4636,2.4636,2.4636,2.4636,2.4636,2.4636,2.4636,2.4636,2.4636,2.4636,2.4636,2.4636,2.4636,2.4636,2.4636,2.4636,2.4636,2.4636,2.4636,2.4636,2.4636,2.4636,2.4636,2.4783,2.4917,2.4917,2.5064,2.5224,2.5331,2.5344,2.5384,2.5504,2.6177,2.6696,2.6696,2.9319,3.1994,3.4088,3.5449,3.6199,3.6199,3.7148,3.7676,3.7676,3.7949,3.8086,3.8086,3.8086,3.8086,3.8086,3.8086,3.8184,3.832,3.832,3.8418,1.1619,1.2538,1.3515,1.3381,1.6263,1.9495,2.0686,2.0963,2.1296,2.2534,2.2565,2.2418,2.2418,2.2498,2.2619,2.2832,2.2928,2.2928,2.2928,2.2928,2.2928,2.2928,2.2928,2.2899,2.2993,2.3287,2.3594,2.3888,2.4168,2.4422,2.4623,2.4636,2.4636,2.4636,2.4636,2.4636,2.4636,2.4636,2.4636,2.4636,2.4636,2.4636,2.4636,2.4636,2.4636,2.4636,2.4636,2.4636,2.4636,2.4636,2.4636,2.4636,2.4636,2.4636,2.4636,2.4636,2.4636,2.4636,2.4636,2.4636,2.4636,2.4636,2.4636,2.4636,2.4636,2.4636,2.4636,2.4636,2.4636,2.4636,2.4636,2.4636,2.4636,2.4636,2.4636,2.4636,2.4636,2.4716,2.4783,2.4783,2.501,2.5224,2.5224,2.5384,2.5545,2.5638,2.5651,2.5692,2.5785,2.6312,2.699,2.7664,2.9138,3.1014,3.323,3.4676,3.5812,3.6423,3.7536,3.8125,3.8125,3.8418,3.8574,3.8574,3.8574,3.8574,3.8574,3.8574,3.8574,3.8574,3.8574,3.8574,1.1619,1.1619,1.2538,1.6272,1.7178,1.8229,2.2022,2.2859,2.2779,2.2485,2.2418,2.2418,2.2418,2.2659,2.2928,2.2928,2.2928,2.2928,2.2928,2.2928,2.2928,2.2928,2.2928,2.2993,2.33,2.3594,2.3888,2.4182,2.4476,2.4636,2.4636,2.4636,2.4636,2.4636,2.4636,2.4636,2.4636,2.4636,2.4636,2.4636,2.4636,2.4636,2.4636,2.4636,2.4636,2.4636,2.4636,2.4636,2.4636,2.4636,2.4636,2.4636,2.4636,2.4636,2.4636,2.4636,2.4636,2.4636,2.4636,2.4636,2.4636,2.4636,2.4636,2.4636,2.4636,2.4636,2.4636,2.4636,2.4562,2.4562,2.4562,2.4649,2.4649,2.4636,2.4562,2.4636,2.4649,2.4877,2.5077,2.5077,2.5317,2.5518,2.5518,2.5518,2.5625,2.5919,2.6037,2.6066,2.636,2.8154,3.013,3.2201,3.2429,3.3247,3.5274,3.5497,3.6349,3.8428,3.8574,3.8574,3.8574,3.8574,3.8574,3.8574,3.8574,3.8574,3.8574,3.8574,3.8574,3.8574,3.8574,3.8574,1.1619,1.3523,1.5495,1.5274,1.8229,2.117,2.0963,2.1953,2.2832,2.2752,2.2726,2.2726,2.2726,2.2806,2.2928,2.2928,2.2928,2.2928,2.2928,2.2928,2.2928,2.2928,2.306,2.322,2.3313,2.3781,2.4115,2.4195,2.4476,2.4636,2.4636,2.4636,2.4636,2.4636,2.4636,2.4636,2.4636,2.4636,2.4636,2.4636,2.4636,2.4636,2.4636,2.4636,2.4636,2.4636,2.4636,2.4636,2.4636,2.4636,2.4636,2.4636,2.4636,2.4636,2.4636,2.4636,2.4636,2.4636,2.4636,2.4636,2.4636,2.4636,2.4636,2.4636,2.4636,2.4636,2.4636,2.4636,2.4783,2.4943,2.4943,2.5104,2.5197,2.4997,2.4943,2.501,2.5211,2.5317,2.5384,2.5384,2.5625,2.5825,2.5825,2.5999,2.6159,2.6253,2.6266,2.6293,2.6373,2.6925,2.7541,2.8154,2.9449,3.0577,3.1191,3.3833,3.5738,3.6349,3.7805,3.8574,3.8574,3.8574,3.8574,3.8574,3.8574,3.8574,3.8574,3.8574,3.8574,3.8574,3.8574,3.8574,1.1619,1.3808,1.5981,1.5628,1.8648,2.1665,2.1321,2.2091,2.2928,2.2928,2.2928,2.2928,2.2928,2.2928,2.2928,2.2928,2.2928,2.2928,2.2928,2.2928,2.2913,2.3033,2.3207,2.342,2.3647,2.3995,2.4249,2.4369,2.4543,2.4636,2.4636,2.4636,2.4636,2.4636,2.4636,2.4636,2.4636,2.4636,2.4636,2.4636,2.4756,2.481,2.481,2.469,2.4636,2.4636,2.4636,2.4636,2.4636,2.4636,2.4636,2.4636,2.4636,2.4636,2.4636,2.4636,2.4636,2.4636,2.4636,2.4636,2.4636,2.4636,2.4636,2.4589,2.4783,2.481,2.4836,2.4957,2.5117,2.5251,2.5251,2.5384,2.5464,2.5291,2.5251,2.5304,2.5478,2.5598,2.5692,2.5692,2.5932,2.6132,2.6132,2.6279,2.6386,2.6386,2.6386,2.6386,2.6386,2.6386,2.6702,2.7541,2.8686,3.0053,3.1711,3.4076,3.5812,3.6645,3.7878,3.8574,3.8574,3.8574,3.8574,3.8574,3.8574,3.8574,3.8574,3.8574,3.8574,3.8574,3.8574,3.8574,1.1619,1.296,1.4858,1.6756,1.8798,2.0825,2.2503,2.2928,2.2928,2.2928,2.2928,2.2928,2.2928,2.2928,2.2928,2.2928,2.2928,2.2928,2.2928,2.2886,2.3006,2.33,2.338,2.3621,2.4155,2.4222,2.4356,2.4549,2.4636,2.4636,2.4636,2.4636,2.4636,2.4636,2.4636,2.4636,2.4636,2.4663,2.4676,2.4676,2.497,2.5117,2.5104,2.4836,2.4716,2.4716,2.4716,2.4716,2.4716,2.469,2.4676,2.4676,2.4649,2.4636,2.4636,2.4636,2.4649,2.4676,2.4676,2.469,2.4716,2.4716,2.4716,2.477,2.5037,2.5117,2.517,2.5438,2.5531,2.5558,2.5558,2.5571,2.5598,2.5598,2.5571,2.5558,2.5585,2.5798,2.6077,2.6077,2.6213,2.6386,2.6386,2.6386,2.6386,2.6386,2.6386,2.6386,2.6386,2.6386,2.7148,2.9216,2.9589,3.1268,3.5199,3.5682,3.6608,3.8501,3.8574,3.8574,3.8574,3.8574,3.8574,3.8574,3.8574,3.8574,3.8574,3.8574,3.8574,3.8574,3.8574,3.8574,1.1619,1.296,1.4858,1.6756,1.9773,2.2366,2.2791,2.2928,2.2928,2.2928,2.2928,2.2928,2.2928,2.2928,2.2928,2.2928,2.2928,2.2928,2.2928,2.3073,2.3247,2.3313,2.3728,2.4062,2.4195,2.4409,2.4569,2.4636,2.4636,2.4636,2.4636,2.4636,2.4636,2.4636,2.4636,2.4636,2.4636,2.4863,2.4983,2.4983,2.5277,2.5424,2.5424,2.5358,2.5317,2.5317,2.5317,2.5317,2.5304,2.5077,2.4983,2.4957,2.473,2.4636,2.4636,2.4636,2.4783,2.4983,2.4983,2.513,2.5317,2.5317,2.5317,2.5331,2.5398,2.5424,2.5438,2.5491,2.5678,2.5865,2.5865,2.6026,2.6199,2.6199,2.6026,2.5919,2.6146,2.6253,2.6293,2.6293,2.6346,2.6386,2.6386,2.6386,2.6386,2.6386,2.6386,2.6386,2.6386,2.6386,2.7148,2.9216,3.09,3.2868,3.5274,3.6959,3.8117,3.8574,3.8574,3.8574,3.8574,3.8574,3.8574,3.8574,3.8574,3.8574,3.8574,3.8574,3.8574,3.8574,3.8574,3.8574,1.1619,1.3666,1.6404,1.9206,2.1459,2.2928,2.2928,2.2928,2.2928,2.2928,2.2928,2.2928,2.2928,2.2928,2.2928,2.2928,2.2928,2.2913,2.306,2.322,2.3434,2.3714,2.4022,2.4262,2.4396,2.4543,2.4636,2.4636,2.4636,2.4636,2.4636,2.4636,2.4636,2.4636,2.4636,2.4703,2.485,2.4997,2.5144,2.5291,2.5585,2.5798,2.5919,2.5638,2.5518,2.5518,2.5518,2.5518,2.5504,2.5344,2.5291,2.5264,2.5117,2.505,2.505,2.505,2.5157,2.5291,2.5291,2.5384,2.5518,2.5518,2.5518,2.5545,2.5678,2.5718,2.5758,2.5892,2.6039,2.6159,2.6159,2.6279,2.6386,2.6386,2.6279,2.6199,2.636,2.6386,2.6386,2.6386,2.6386,2.6386,2.6386,2.6386,2.6386,2.6386,2.6386,2.6386,2.6386,2.7227,2.8608,3.0669,3.2717,3.4769,3.6811,3.7951,3.8574,3.8574,3.8574,3.8574,3.8574,3.8574,3.8574,3.8574,3.8574,3.8574,3.8574,3.8574,3.8574,3.8574,3.8574,3.8574,1.2115,1.4583,1.8019,2.1527,2.2654,2.2928,2.2928,2.2928,2.2928,2.2928,2.2928,2.2928,2.2928,2.2928,2.2928,2.2928,2.2913,2.3033,2.3287,2.342,2.3661,2.4142,2.4249,2.4369,2.4609,2.4636,2.4636,2.4636,2.4636,2.4636,2.4636,2.4636,2.4663,2.4716,2.4716,2.485,2.5157,2.5211,2.5358,2.5598,2.5892,2.6159,2.6373,2.5879,2.5665,2.5665,2.5665,2.5665,2.5665,2.5611,2.5585,2.5585,2.5531,2.5518,2.5518,2.5518,2.5545,2.5585,2.5585,2.5625,2.5665,2.5665,2.5665,2.5705,2.5959,2.6039,2.6079,2.6319,2.6386,2.6386,2.6386,2.6386,2.6386,2.6386,2.6386,2.6386,2.6386,2.6386,2.6386,2.6386,2.6386,2.6386,2.6386,2.6386,2.6386,2.6386,2.6386,2.6544,2.6847,2.8374,3.0361,3.2717,3.4526,3.6349,3.8428,3.8574,3.8574,3.8574,3.8574,3.8574,3.8574,3.8574,3.8574,3.8574,3.8574,3.8574,3.8574,3.8574,3.8574,3.8574,3.8574,3.8574,1.4014,1.5557,1.7739,1.9912,2.1665,2.2928,2.2928,2.2928,2.2928,2.2928,2.2928,2.2928,2.2928,2.2928,2.2928,2.2928,2.3086,2.3287,2.3313,2.3768,2.4115,2.4195,2.4422,2.4596,2.4636,2.4636,2.4636,2.4636,2.4636,2.4636,2.4636,2.4636,2.4756,2.501,2.5024,2.5157,2.5451,2.5705,2.5929,2.5905,2.6199,2.636,2.6386,2.6306,2.6266,2.6266,2.6266,2.6266,2.6253,2.5999,2.5892,2.5865,2.5611,2.5518,2.5518,2.5518,2.5678,2.5892,2.5892,2.6066,2.6266,2.6266,2.6266,2.6279,2.6319,2.6333,2.6333,2.6373,2.6386,2.6386,2.6386,2.6386,2.6386,2.6386,2.6386,2.6386,2.6386,2.6386,2.6386,2.6386,2.6386,2.6386,2.6386,2.6386,2.6386,2.6386,2.6386,2.7004,2.8764,2.9216,3.0884,3.4676,3.5348,3.6349,3.8428,3.8574,3.8574,3.8574,3.8574,3.8574,3.8574,3.8574,3.8574,3.8574,3.8574,3.8574,3.8574,3.8574,3.8574,3.8574,3.8574,3.8574,1.5631,1.6878,1.8328,2.1429,2.2793,2.3367,2.3367,2.3367,2.3367,2.3367,2.3367,2.3313,2.3153,2.3126,2.318,2.334,2.3487,2.3634,2.3794,2.4035,2.4262,2.4422,2.4556,2.4636,2.4636,2.4636,2.4636,2.4636,2.4636,2.4636,2.4636,2.4796,2.4943,2.5077,2.5237,2.5464,2.5758,2.597,2.6117,2.6199,2.6333,2.6386,2.6386,2.6386,2.6386,2.6386,2.6386,2.6386,2.6373,2.6253,2.6199,2.6186,2.6052,2.5999,2.5999,2.5999,2.6092,2.6199,2.6199,2.6279,2.6386,2.6386,2.6386,2.6386,2.6386,2.6386,2.6386,2.6386,2.6386,2.6386,2.6386,2.6386,2.6386,2.6386,2.6386,2.6386,2.6386,2.6386,2.6386,2.6386,2.6386,2.6386,2.6386,2.6386,2.6386,2.6386,2.7384,2.8374,2.9293,3.1421,3.3532,3.5274,3.6571,3.7585,3.8501,3.8574,3.8574,3.8574,3.8574,3.8574,3.8574,3.8574,3.8574,3.8574,3.8574,3.8574,3.8574,3.8574,3.8574,3.8574,3.8574,3.8574,1.8267,1.8939,1.9503,2.2957,2.3768,2.3768,2.3768,2.3768,2.3768,2.3768,2.3768,2.3728,2.3581,2.3487,2.3514,2.3728,2.3834,2.3955,2.4168,2.4262,2.4396,2.4609,2.4636,2.4636,2.4636,2.4636,2.4636,2.4636,2.4636,2.4676,2.4743,2.4957,2.5144,2.5304,2.5518,2.5772,2.6066,2.6066,2.6172,2.6386,2.6386,2.6386,2.6386,2.6386,2.6386,2.6386,2.6386,2.6386,2.6386,2.6386,2.6386,2.6386,2.6386,2.6386,2.6386,2.6386,2.6386,2.6386,2.6386,2.6386,2.6386,2.6386,2.6386,2.6386,2.6386,2.6386,2.6386,2.6386,2.6386,2.6386,2.6386,2.6386,2.6386,2.6386,2.6386,2.6386,2.6386,2.6386,2.6386,2.6386,2.6386,2.6386,2.6386,2.6386,2.6386,2.6386,2.8154,2.9589,3.013,3.3305,3.5738,3.6275,3.7658,3.8574,3.8574,3.8574,3.8574,3.8574,3.8574,3.8574,3.8574,3.8574,3.8574,3.8574,3.8574,3.8574,3.8574,3.8574,3.8574,3.8574,3.8574,3.8574,2.2931,2.2131,0.0,2.3327,2.3768,2.3768,2.3768,2.3768,2.3768,2.3768,2.3768,2.3848,2.4115,2.3928,2.3754,2.3768,2.3995,2.4182,2.4195,2.4436,2.4549,2.4636,2.4636,2.4636,2.4636,2.4636,2.4636,2.4636,2.4636,2.4756,2.5037,2.5077,2.5331,2.597,2.601,2.6066,2.636,2.6373,2.6373,2.6386,2.6386,2.6386,2.6386,2.6386,2.6386,2.6386,2.6386,2.6386,2.6386,2.6386,2.6386,2.6386,2.6386,2.6386,2.6386,2.6386,2.6386,2.6386,2.6386,2.6386,2.6386,2.6386,2.6386,2.6386,2.6386,2.6386,2.6386,2.6386,2.6386,2.6386,2.6386,2.6386,2.6386,2.6386,2.6386,2.6386,2.6386,2.6386,2.6386,2.6386,2.6386,2.6386,2.6386,2.6386,2.6386,2.6386,2.8154,3.013,3.2125,3.4226,3.6275,3.8263,3.8574,3.8574,3.8574,3.8574,3.8574,3.8574,3.8574,3.8574,3.8574,3.8574,3.8574,3.8574,3.8574,3.8574,3.8574,3.8574,3.8574,3.8574,3.8574,3.8574,2.174,2.1788,0.0,2.3805,2.4329,2.4329,2.4329,2.4329,2.4329,2.4329,2.4329,2.4356,2.4462,2.4249,2.4115,2.4302,2.4409,2.4476,2.4476,2.4569,2.4636,2.4636,2.4636,2.4636,2.4636,2.4636,2.4636,2.4636,2.481,2.497,2.5077,2.5438,2.5809,2.6023,2.6132,2.6279,2.6386,2.6386,2.6386,2.6386,2.6386,2.6386,2.6386,2.6386,2.6386,2.6386,2.6386,2.6386,2.6386,2.6386,2.6386,2.6386,2.6386,2.6386,2.6386,2.6386,2.6386,2.6386,2.6386,2.6386,2.6386,2.6386,2.6386,2.6386,2.6386,2.6386,2.6386,2.6386,2.6386,2.6386,2.6386,2.6386,2.6386,2.6386,2.6386,2.6386,2.6386,2.6386,2.6386,2.6386,2.6386,2.6386,2.6386,2.7462,2.8296,2.8296,3.1175,3.3607,3.4301,3.6201,3.7805,3.8501,3.8574,3.8574,3.8574,3.8574,3.8574,3.8574,3.8574,3.8574,3.8574,3.8574,3.8574,3.8574,3.8574,3.8574,3.8574,3.8574,3.8574,3.8574,3.8574,3.8574,2.208,2.2522,2.2967,2.4253,2.4636,2.4636,2.4636,2.4636,2.4636,2.4636,2.4636,2.4636,2.4636,2.4476,2.4409,2.4609,2.4636,2.4636,2.4636,2.4636,2.4636,2.4636,2.4636,2.4636,2.4636,2.4636,2.4676,2.4783,2.497,2.517,2.5371,2.5745,2.6077,2.6092,2.6293,2.6386,2.6386,2.6386,2.6386,2.6386,2.6386,2.6386,2.6386,2.6386,2.6386,2.6386,2.6386,2.6386,2.6386,2.6386,2.6386,2.6386,2.6386,2.6386,2.6386,2.6386,2.6386,2.6386,2.6386,2.6386,2.6386,2.6386,2.6386,2.6386,2.6386,2.6386,2.6386,2.6386,2.6386,2.6386,2.6386,2.6386,2.6386,2.6386,2.6386,2.6386,2.6386,2.6386,2.6386,2.6386,2.6386,2.6386,2.6386,2.8076,2.9371,2.9371,3.2852,3.5497,3.5497,3.7345,3.8574,3.8574,3.8574,3.8574,3.8574,3.8574,3.8574,3.8574,3.8574,3.8574,3.8574,3.8574,3.8574,3.8574,3.8574,3.8574,3.8574,3.8574,3.8574,3.8574,3.8574,3.8574,0.0,0.0,0.0,2.4636,2.4636,2.4636,2.4636,2.4636,2.4636,2.4636,2.4636,2.4636,2.4636,2.4636,2.4636,2.4636,2.4636,2.4636,2.4636,2.4636,2.4636,2.4636,2.4636,2.4562,2.4649,2.4576,2.477,2.5064,2.5104,2.5358,2.601,2.6037,2.6092,2.6386,2.6386,2.6386,2.6386,2.6386,2.6386,2.6386,2.6386,2.6386,2.6386,2.6386,2.6386,2.6386,2.6386,2.6386,2.6386,2.6386,2.6386,2.6386,2.6386,2.6386,2.6386,2.6386,2.6386,2.6386,2.6386,2.6386,2.6386,2.6386,2.6386,2.6386,2.6386,2.6386,2.6386,2.6386,2.6386,2.6386,2.6386,2.6386,2.6386,2.6386,2.6386,2.6386,2.6386,2.6465,2.6465,2.6465,2.6465,2.6544,2.6544,2.8218,2.9589,2.9589,3.3003,3.5571,3.5571,3.7345,3.8574,3.8574,3.8574,3.8574,3.8574,3.8574,3.8574,3.8574,3.8574,3.8574,3.8574,3.8574,3.8574,3.8574,3.8574,3.8574,3.8574,3.8574,3.8574,3.8574,3.8574,3.8574,2.4636,0.0,0.0,0.0,0.0,0.0,2.4636,2.4636,2.4636,2.4636,2.4636,2.4636,2.4636,2.4636,2.4636,2.4636,2.4636,2.4636,2.4636,2.4636,2.4636,2.4636,2.4636,2.4716,2.493,2.4957,2.5077,2.5371,2.5598,2.5785,2.6023,2.6159,2.6306,2.6386,2.6386,2.6386,2.6386,2.6386,2.6386,2.6386,2.6386,2.6386,2.6386,2.6386,2.6386,2.6386,2.6386,2.6386,2.6386,2.6386,2.6386,2.6386,2.6386,2.6386,2.6386,2.6386,2.6386,2.6386,2.6386,2.6386,2.6386,2.6386,2.6386,2.6386,2.6386,2.6386,2.6386,2.6386,2.6386,2.6386,2.6386,2.6386,2.6386,2.6386,2.6386,2.6386,2.6386,2.7541,2.8608,2.8608,2.8608,2.906,3.0515,3.2489,3.3833,3.3833,3.6053,3.7731,3.7731,3.8263,3.8574,3.8574,3.8574,3.8574,3.8574,3.8574,3.8574,3.8574,3.8574,3.8574,3.8574,3.8574,3.8574,3.8574,3.8574,3.8574,3.8574,3.8574,3.8574,3.8574,3.8574,3.8574,2.4636,2.4636,2.4636,2.4636,0.0,0.0,2.4636,2.4636,2.4636,2.4636,2.4636,2.4636,2.4636,2.4636,2.4636,2.4636,2.4636,2.4636,2.4636,2.4636,2.4636,2.4636,2.4743,2.489,2.5064,2.5184,2.5384,2.5678,2.5865,2.609,2.6132,2.6306,2.6386,2.6386,2.6386,2.6386,2.6386,2.6386,2.6386,2.6386,2.6386,2.6386,2.6386,2.6386,2.6386,2.6386,2.6386,2.6386,2.6386,2.6386,2.6386,2.6386,2.6386,2.6386,2.6386,2.6386,2.6386,2.6386,2.6386,2.6386,2.6386,2.6386,2.6386,2.6386,2.6386,2.6386,2.6386,2.6386,2.6386,2.6386,2.6386,2.6386,2.6623,2.7462,2.7619,2.7919,2.8764,2.9913,3.0438,2.9589,3.013,3.1054,3.2277,3.4151,3.5497,3.5497,3.7272,3.8574,3.8574,3.8574,3.8574,3.8574,3.8574,3.8574,3.8574,3.8574,3.8574,3.8574,3.8574,3.8574,3.8574,3.8574,3.8574,3.8574,3.8574,3.8574,3.8574,3.8574,3.8574,3.8574,3.8574,3.8574,2.4636,2.4636,2.4636,2.4636,2.4636,0.0,2.4636,2.4636,2.4636,2.4636,2.4636,2.4636,2.4636,2.4636,2.4636,2.4636,2.4636,2.4636,2.4636,2.4636,2.4649,2.4676,2.4917,2.5104,2.517,2.5411,2.5692,2.5985,2.5999,2.6119,2.6373,2.6386,2.6386,2.6386,2.6386,2.6386,2.6386,2.6386,2.6386,2.6386,2.6386,2.6386,2.6386,2.6386,2.6386,2.6386,2.6386,2.6386,2.6386,2.6386,2.6386,2.6386,2.6386,2.6386,2.6386,2.6386,2.6386,2.6386,2.6386,2.6386,2.6386,2.6386,2.6386,2.6386,2.6386,2.6386,2.6386,2.6386,2.6386,2.6386,2.6386,2.6544,2.7148,2.8983,2.9604,3.0284,3.2125,3.2657,3.2261,3.0438,3.1574,3.2885,3.3112,3.4676,3.5812,3.5812,3.7419,3.8574,3.8574,3.8574,3.8574,3.8574,3.8574,3.8574,3.8574,3.8574,3.8574,3.8574,3.8574,3.8574,3.8574,3.8574,3.8574,3.8574,3.8574,3.8574,3.8574,3.8574,3.8574,3.8574,3.8574,3.8574,2.4636,2.4636,2.4636,2.4636,2.4636,0.0,2.4636,2.4636,2.4636,2.4636,2.4636,2.4636,2.4636,2.4636,2.4636,2.4636,2.4636,2.4636,2.4636,2.4636,2.473,2.497,2.5037,2.5264,2.5745,2.5838,2.5985,2.6279,2.6306,2.6333,2.6386,2.6386,2.6386,2.6386,2.6386,2.6386,2.6386,2.6386,2.6386,2.6386,2.6386,2.6386,2.6386,2.6386,2.6386,2.6386,2.6386,2.6386,2.6386,2.6386,2.6386,2.6386,2.6386,2.6386,2.6386,2.6386,2.6386,2.6386,2.6386,2.6386,2.6386,2.6386,2.6386,2.6386,2.6386,2.6386,2.6386,2.6386,2.6386,2.6386,2.6386,2.7619,2.8905,2.9293,3.0669,3.2048,3.2429,3.3775,3.4826,3.4359,3.4676,3.544,3.7125,3.7731,3.8024,3.8024,3.8336,3.8574,3.8574,3.8574,3.8574,3.8574,3.8574,3.8574,3.8574,3.8574,3.8574,3.8574,3.8574,3.8574,3.8574,3.8574,3.8574,3.8574,3.8574,3.8574,3.8574,3.8574,3.8574,3.8574,3.8574,3.8574,2.4636,2.4636,2.4636,2.4636,2.4636,0.0,0.0,2.4636,2.4636,2.4636,2.4636,2.4636,2.4636,2.4636,2.469,2.4836,2.4863,2.4903,2.505,2.4943,2.497,2.5264,2.5424,2.5638,2.601,2.6092,2.6239,2.6373,2.6386,2.6386,2.6386,2.6386,2.6386,2.6386,2.6386,2.6386,2.6386,2.6386,2.6386,2.6386,2.6386,2.6386,2.6386,2.6386,2.6386,2.6386,2.6386,2.6386,2.6386,2.6386,2.6386,2.6386,2.6386,2.6386,2.6386,2.6386,2.6386,2.6386,2.6386,2.6386,2.6386,2.6386,2.6386,2.6386,2.6386,2.6386,2.6386,2.6386,2.6386,2.6623,2.7605,2.8608,2.9898,3.194,3.323,3.4301,3.5309,3.6368,3.7032,3.7032,3.7032,3.7345,3.8428,3.8574,3.8574,3.8574,3.8574,3.8574,3.8574,3.8574,3.8574,3.8574,3.8574,3.8574,3.8574,3.8574,3.8574,3.8574,3.8574,3.8574,3.8574,3.8574,3.8574,3.8574,3.8574,3.8574,3.8574,3.8574,3.8574,3.8574,3.8574,3.8574,2.4636,2.4636,2.4636,2.4636,2.4636,2.4636,0.0,0.0,0.0,2.4716,2.4716,2.4743,0.0,2.481,2.485,2.497,2.509,2.5224,2.5411,2.5331,2.5331,2.5571,2.5812,2.605,2.6039,2.6253,2.6386,2.6386,2.6386,2.6386,2.6386,2.6386,2.6386,2.6386,2.6386,2.6386,2.6386,2.6386,2.6386,2.6386,2.6386,2.6386,2.6386,2.6386,2.6386,2.6386,2.6386,2.6386,2.6386,2.6386,2.6386,2.6386,2.6386,2.6386,2.6386,2.6386,2.6386,2.6386,2.6386,2.6386,2.6386,2.6386,2.6386,2.6386,2.6386,2.6386,2.6465,2.6847,2.7004,2.7462,2.9449,3.0284,3.1421,3.4733,3.5812,3.6571,3.8263,3.8574,3.8574,3.8574,3.8574,3.8574,3.8574,3.8574,3.8574,3.8574,3.8574,3.8574,3.8574,3.8574,3.8574,3.8574,3.8574,3.8574,3.8574,3.8574,3.8574,3.8574,3.8574,3.8574,3.8574,3.8574,3.8574,3.8574,3.8574,3.8574,3.8574,3.8574,3.8574,3.8574,3.8574,3.8574,2.4636,2.4636,2.4636,2.4636,2.4636,2.4636,2.4636,0.0,2.4716,2.497,0.0,2.5104,2.5371,0.0,0.0,2.477,2.5117,2.5384,2.5157,2.5545,2.5943,2.5905,2.601,2.6052,2.6319,2.6373,2.6386,2.6386,2.6386,2.6386,2.6386,2.6386,2.6386,2.6386,2.6386,2.6386,2.6386,2.6386,2.6386,2.6386,2.6386,2.6386,2.6386,2.6386,2.6386,2.6386,2.6386,2.6386,2.6386,2.6386,2.6386,2.6386,2.6386,2.6386,2.6386,2.6386,2.6386,2.6386,2.6386,2.6386,2.6386,2.6386,2.6386,2.6386,2.6386,2.6386,2.6768,2.853,2.906,2.9526,3.159,3.3473,3.49,3.5422,3.6885,3.8336,3.8574,3.8574,3.8574,3.8574,3.8574,3.8574,3.8574,3.8574,3.8574,3.8574,3.8574,3.8574,3.8574,3.8574,3.8574,3.8574,3.8574,3.8574,3.8574,3.8574,3.8574,3.8574,3.8574,3.8574,3.8574,3.8574,3.8574,3.8574,3.8574,3.8574,3.8574,3.8574,3.8574,3.8574,3.8574,3.8574,2.4636,2.4636,2.4676,2.485,2.489,2.4943,2.5104,2.5144,2.5184,2.5304,0.0,0.0,0.0,0.0,0.0,0.0,2.5611,2.5785,2.5838,2.6052,2.6213,2.6213,2.6213,2.6253,2.6373,2.6386,2.6386,2.6386,2.6386,2.6386,2.6386,2.6386,2.6386,2.6386,2.6386,2.6386,2.6386,2.6386,2.6386,2.6386,2.6386,2.6386,2.6386,2.6386,2.6386,2.6386,2.6386,2.6386,2.6386,2.6386,2.6386,2.6386,2.6386,2.6386,2.6386,2.6386,2.6386,2.6386,2.6386,2.6386,2.6386,2.6386,2.7148,2.8154,2.8154,2.8154,2.8608,3.0592,3.0361,3.013,3.3398,3.49,3.5812,3.7032,3.7951,3.8574,3.8574,3.8574,3.8574,3.8574,3.8574,3.8574,3.8574,3.8574,3.8574,3.8574,3.8574,3.8574,3.8574,3.8574,3.8574,3.8574,3.8574,3.8574,3.8574,3.8574,3.8574,3.8574,3.8574,3.8574,3.8574,3.8574,3.8574,3.8574,3.8574,3.8574,3.8574,3.8574,3.8574,3.8574,3.8574,3.8574,2.4756,2.481,2.493,2.5144,2.5197,2.5251,2.5464,2.5518,2.5531,2.5611,2.5638,0.0,0.0,0.0,2.5772,2.5825,0.0,2.6092,2.6146,2.6293,2.6386,2.6386,2.6386,2.6386,2.6386,2.6386,2.6386,2.6386,2.6386,2.6386,2.6386,2.6386,2.6386,2.6386,2.6386,2.6386,2.6386,2.6386,2.6386,2.6386,2.6386,2.6386,2.6386,2.6386,2.6386,2.6386,2.6386,2.6386,2.6386,2.6386,2.6386,2.6386,2.6386,2.6386,2.6386,2.6386,2.6386,2.6386,2.6386,2.6386,2.6465,2.7083,2.7841,2.8764,2.9898,2.9821,2.9975,3.2565,3.2261,3.1863,3.544,3.6349,3.6719,3.8263,3.8574,3.8574,3.8574,3.8574,3.8574,3.8574,3.8574,3.8574,3.8574,3.8574,3.8574,3.8574,3.8574,3.8574,3.8574,3.8574,3.8574,3.8574,3.8574,3.8574,3.8574,3.8574,3.8574,3.8574,3.8574,3.8574,3.8574,3.8574,3.8574,3.8574,3.8574,3.8574,3.8574,3.8574,3.8574,3.8574,3.8574,3.8574,2.5064,2.5264,2.5491,2.5491,2.5504,2.5504,2.5504,2.5518,2.5598,2.5879,2.5945,2.6026,2.6306,2.636,2.6172,2.5625,2.6012,0.0,0.0,2.6026,2.6386,2.6386,2.6386,2.6386,2.6386,2.6386,2.6386,2.6386,2.6386,2.6386,2.6386,2.6386,2.6386,2.6386,2.6386,2.6386,2.6386,2.6386,2.6386,2.6386,2.6386,2.6386,2.6386,2.6386,2.6386,2.6386,2.6386,2.6386,2.6386,2.6386,2.6386,2.6386,2.6386,2.6386,2.6386,2.6386,2.6386,2.6386,2.6386,2.6386,2.6689,2.8686,2.7997,2.7227,3.1207,3.0977,3.0284,3.4284,3.5348,3.5812,3.7951,3.8501,3.8501,3.8574,3.8574,3.8574,3.8574,3.8574,3.8574,3.8574,3.8574,3.8574,3.8574,3.8574,3.8574,3.8574,3.8574,3.8574,3.8574,3.8574,3.8574,3.8574,3.8574,3.8574,3.8574,3.8574,3.8574,3.8574,3.8574,3.8574,3.8574,3.8574,3.8574,3.8574,3.8574,3.8574,3.8574,3.8574,3.8574,3.8574,3.8574,3.8574,2.5371,2.5438,2.5558,2.5758,2.5798,2.5852,2.6052,2.6092,2.6119,2.6226,2.6239,2.6279,2.6373,2.6386,2.6319,2.6132,2.6253,2.6319,0.0,2.6266,2.6386,2.6386,2.6386,2.6386,2.6386,2.6386,2.6386,2.6386,2.6386,2.6386,2.6386,2.6386,2.6386,2.6386,2.6386,2.6386,2.6386,2.6386,2.6386,2.6386,2.6386,2.6386,2.6386,2.6386,2.6386,2.6386,2.6386,2.6386,2.6386,2.6386,2.6386,2.6386,2.6386,2.6386,2.6386,2.6386,2.6386,2.6386,2.6386,2.7305,2.8296,2.7619,2.9666,3.2396,3.2489,3.2944,3.3984,3.6811,3.659,3.5979,3.8044,3.8574,3.8574,3.8574,3.8574,3.8574,3.8574,3.8574,3.8574,3.8574,3.8574,3.8574,3.8574,3.8574,3.8574,3.8574,3.8574,3.8574,3.8574,3.8574,3.8574,3.8574,3.8574,3.8574,3.8574,3.8574,3.8574,3.8574,3.8574,3.8574,3.8574,3.8574,3.8574,3.8574,3.8574,3.8574,3.8574,3.8574,3.8574,3.8574,3.8574,3.8574,2.5678,2.5745,2.5865,2.6066,2.6106,2.6159,2.6346,2.6386,2.6386,2.6386,2.6386,2.6386,2.6386,2.6386,2.6386,0.0,0.0,0.0,0.0,2.6386,2.6386,2.6386,2.6386,2.6386,2.6386,2.6386,2.6386,2.6386,2.6386,2.6386,2.6386,2.6386,2.6386,2.6386,2.6386,2.6386,2.6386,2.6386,2.6386,2.6386,2.6386,2.6386,2.6386,2.6386,2.6386,2.6386,2.6386,2.6386,2.6386,2.6386,2.6386,2.6386,2.6386,2.6386,2.6386,2.6386,2.6386,2.6386,2.6386,2.7227,2.8374,2.853,3.0731,3.3381,3.3549,3.4451,3.5739,3.6748,3.6826,3.6848,3.7895,3.834,3.8574,3.8574,3.8574,3.8574,3.8574,3.8574,3.8574,3.8574,3.8574,3.8574,3.8574,3.8574,3.8574,3.8574,3.8574,3.8574,3.8574,3.8574,3.8574,3.8574,3.8574,3.8574,3.8574,3.8574,3.8574,3.8574,3.8574,3.8574,3.8574,3.8574,3.8574,3.8574,3.8574,3.8574,3.8574,3.8574,3.8574,3.8574,3.8574,3.8574]}]]